Wetterdaten: Donnerstag, 26.10.2017
Datum Zeit Temp. A. Pool Temp. Feuchte A. Luftdruck Regen Wind Richtung Richtung Sonnenschein ET UV Solar Taupunkt Windchill Windben Empfang
26.10.2017 00:00 8,1 C 10,6 C 97 % 1024,8 hPa 0,0 l/m 4,3 km/h (1 Bft) S-SW 199 0 min 0,000 mm 0,0 UV-I 0 W/m 7,7 C 8,1 C 6,4 km/h (2 Bft) 100,00 %
26.10.2017 00:02 8,1 C 10,6 C 97 % 1024,8 hPa 0,0 l/m 4,1 km/h (1 Bft) S-SW 199 0 min 0,000 mm 0,0 UV-I 0 W/m 7,7 C 8,1 C 6,4 km/h (2 Bft) 97,30 %
26.10.2017 00:04 8,2 C 10,6 C 97 % 1024,8 hPa 0,0 l/m 4,0 km/h (1 Bft) S-SW 199 0 min 0,000 mm 0,0 UV-I 0 W/m 7,8 C 8,2 C 6,4 km/h (2 Bft) 100,00 %
26.10.2017 00:06 8,3 C 10,6 C 97 % 1024,8 hPa 0,0 l/m 3,2 km/h (1 Bft) S-SW 199 0 min 0,000 mm 0,0 UV-I 0 W/m 7,9 C 8,3 C 4,8 km/h (1 Bft) 97,87 %
26.10.2017 00:08 8,3 C 10,6 C 97 % 1024,9 hPa 0,0 l/m 3,0 km/h (1 Bft) S-SW 199 0 min 0,000 mm 0,0 UV-I 0 W/m 7,9 C 8,3 C 4,8 km/h (1 Bft) 97,73 %
26.10.2017 00:10 8,3 C 10,6 C 97 % 1024,8 hPa 0,0 l/m 3,3 km/h (1 Bft) S-SW 199 0 min 0,000 mm 0,0 UV-I 0 W/m 7,9 C 8,3 C 4,8 km/h (1 Bft) 100,00 %
26.10.2017 00:12 8,4 C 10,6 C 97 % 1024,8 hPa 0,0 l/m 3,8 km/h (1 Bft) S-SW 199 0 min 0,000 mm 0,0 UV-I 0 W/m 8,0 C 8,4 C 4,8 km/h (1 Bft) 100,00 %
26.10.2017 00:14 8,4 C 10,6 C 97 % 1024,9 hPa 0,0 l/m 3,6 km/h (1 Bft) S-SW 199 0 min 0,000 mm 0,0 UV-I 0 W/m 8,0 C 8,4 C 4,8 km/h (1 Bft) 100,00 %
26.10.2017 00:16 8,4 C 10,6 C 97 % 1024,8 hPa 0,0 l/m 2,6 km/h (1 Bft) S-SW 199 0 min 0,000 mm 0,0 UV-I 0 W/m 8,0 C 8,4 C 4,8 km/h (1 Bft) 100,00 %
26.10.2017 00:18 8,4 C 10,6 C 97 % 1024,9 hPa 0,0 l/m 1,7 km/h (1 Bft) S-SW 199 0 min 0,000 mm 0,0 UV-I 0 W/m 8,0 C 8,4 C 3,2 km/h (1 Bft) 100,00 %
26.10.2017 00:20 8,4 C 10,6 C 97 % 1024,9 hPa 0,0 l/m 2,1 km/h (1 Bft) S-SW 199 0 min 0,000 mm 0,0 UV-I 0 W/m 8,0 C 8,4 C 3,2 km/h (1 Bft) 98,00 %
26.10.2017 00:22 8,4 C 10,6 C 97 % 1024,9 hPa 0,0 l/m 1,9 km/h (1 Bft) S-SW 199 0 min 0,000 mm 0,0 UV-I 0 W/m 8,0 C 8,4 C 3,2 km/h (1 Bft) 97,56 %
26.10.2017 00:24 8,3 C 10,6 C 97 % 1024,9 hPa 0,0 l/m 2,9 km/h (1 Bft) S-SW 199 0 min 0,000 mm 0,0 UV-I 0 W/m 7,9 C 8,3 C 4,8 km/h (1 Bft) 100,00 %
26.10.2017 00:26 8,3 C 10,6 C 97 % 1024,9 hPa 0,0 l/m 1,0 km/h (0 Bft) S-SW 199 0 min 0,000 mm 0,0 UV-I 0 W/m 7,9 C 8,3 C 3,2 km/h (1 Bft) 100,00 %
26.10.2017 00:28 8,3 C 10,6 C 97 % 1025,0 hPa 0,0 l/m 1,2 km/h (1 Bft) S-SW 199 0 min 0,000 mm 0,0 UV-I 0 W/m 7,9 C 8,3 C 3,2 km/h (1 Bft) 98,21 %
26.10.2017 00:30 8,4 C 10,6 C 97 % 1025,0 hPa 0,0 l/m 0,2 km/h (0 Bft) S-SW 199 0 min 0,000 mm 0,0 UV-I 0 W/m 8,0 C 8,4 C 1,6 km/h (1 Bft) 100,00 %
26.10.2017 00:32 8,4 C 10,6 C 97 % 1025,0 hPa 0,0 l/m 0,0 km/h (0 Bft) S-SW 199 0 min 0,000 mm 0,0 UV-I 0 W/m 8,0 C 8,4 C 0,0 km/h (0 Bft) 100,00 %
26.10.2017 00:34 8,4 C 10,6 C 97 % 1025,0 hPa 0,0 l/m 0,0 km/h (0 Bft) S-SW 199 0 min 0,000 mm 0,0 UV-I 0 W/m 8,0 C 8,4 C 1,6 km/h (1 Bft) 100,00 %
26.10.2017 00:36 8,4 C 10,6 C 97 % 1024,9 hPa 0,0 l/m 0,1 km/h (0 Bft) S-SW 199 0 min 0,000 mm 0,0 UV-I 0 W/m 8,0 C 8,4 C 1,6 km/h (1 Bft) 100,00 %
26.10.2017 00:38 8,3 C 10,6 C 97 % 1024,9 hPa 0,0 l/m 0,5 km/h (0 Bft) S-SW 199 0 min 0,000 mm 0,0 UV-I 0 W/m 7,9 C 8,3 C 1,6 km/h (1 Bft) 100,00 %
26.10.2017 00:40 8,3 C 10,6 C 96 % 1024,9 hPa 0,0 l/m 1,6 km/h (1 Bft) S-SW 199 0 min 0,000 mm 0,0 UV-I 0 W/m 7,7 C 8,3 C 3,2 km/h (1 Bft) 100,00 %
26.10.2017 00:42 8,2 C 10,6 C 96 % 1025,0 hPa 0,0 l/m 1,8 km/h (1 Bft) S-SW 199 0 min 0,000 mm 0,0 UV-I 0 W/m 7,6 C 8,2 C 3,2 km/h (1 Bft) 97,87 %
26.10.2017 00:44 8,1 C 10,6 C 96 % 1025,0 hPa 0,0 l/m 3,2 km/h (1 Bft) S-SW 199 0 min 0,000 mm 0,0 UV-I 0 W/m 7,5 C 8,1 C 4,8 km/h (1 Bft) 97,87 %
26.10.2017 00:46 8,1 C 10,6 C 97 % 1025,0 hPa 0,0 l/m 2,8 km/h (1 Bft) S-SW 199 0 min 0,000 mm 0,0 UV-I 0 W/m 7,7 C 8,1 C 3,2 km/h (1 Bft) 95,74 %
26.10.2017 00:48 8,0 C 10,6 C 96 % 1025,0 hPa 0,0 l/m 2,7 km/h (1 Bft) S-SW 198 0 min 0,000 mm 0,0 UV-I 0 W/m 7,4 C 8,0 C 4,8 km/h (1 Bft) 97,56 %
26.10.2017 00:50 7,9 C 10,6 C 96 % 1025,1 hPa 0,0 l/m 1,6 km/h (1 Bft) S-SW 198 0 min 0,000 mm 0,0 UV-I 0 W/m 7,3 C 7,9 C 3,2 km/h (1 Bft) 94,34 %
26.10.2017 00:52 7,9 C 10,6 C 96 % 1025,1 hPa 0,0 l/m 0,5 km/h (0 Bft) S-SW 198 0 min 0,000 mm 0,0 UV-I 0 W/m 7,3 C 7,9 C 3,2 km/h (1 Bft) 95,74 %
26.10.2017 00:54 7,9 C 10,6 C 96 % 1025,1 hPa 0,0 l/m 0,2 km/h (0 Bft) S-SW 198 0 min 0,000 mm 0,0 UV-I 0 W/m 7,3 C 7,9 C 1,6 km/h (1 Bft) 100,00 %
26.10.2017 00:56 7,9 C 10,6 C 96 % 1025,1 hPa 0,0 l/m 1,1 km/h (1 Bft) S-SW 198 0 min 0,000 mm 0,0 UV-I 0 W/m 7,3 C 7,9 C 1,6 km/h (1 Bft) 97,01 %
26.10.2017 00:58 8,0 C 10,6 C 97 % 1025,1 hPa 0,0 l/m 1,4 km/h (1 Bft) S-SW 198 0 min 0,000 mm 0,0 UV-I 0 W/m 7,6 C 8,0 C 3,2 km/h (1 Bft) 97,44 %
26.10.2017 01:00 8,1 C 10,6 C 97 % 1025,1 hPa 0,0 l/m 1,0 km/h (0 Bft) S-SW 198 0 min 0,000 mm 0,0 UV-I 0 W/m 7,7 C 8,1 C 3,2 km/h (1 Bft) 97,87 %
26.10.2017 01:02 8,1 C 10,6 C 97 % 1025,1 hPa 0,0 l/m 1,4 km/h (1 Bft) S-SW 198 0 min 0,000 mm 0,0 UV-I 0 W/m 7,7 C 8,1 C 3,2 km/h (1 Bft) 98,00 %
26.10.2017 01:04 8,1 C 10,6 C 97 % 1025,1 hPa 0,0 l/m 2,1 km/h (1 Bft) S-SW 197 0 min 0,000 mm 0,0 UV-I 0 W/m 7,7 C 8,1 C 4,8 km/h (1 Bft) 97,87 %
26.10.2017 01:06 8,2 C 10,6 C 97 % 1025,0 hPa 0,0 l/m 2,2 km/h (1 Bft) S 184 0 min 0,000 mm 0,0 UV-I 0 W/m 7,8 C 8,2 C 3,2 km/h (1 Bft) 98,00 %
26.10.2017 01:08 8,3 C 10,6 C 97 % 1025,0 hPa 0,0 l/m 2,8 km/h (1 Bft) S 182 0 min 0,000 mm 0,0 UV-I 0 W/m 7,9 C 8,3 C 4,8 km/h (1 Bft) 97,56 %
26.10.2017 01:10 8,4 C 10,6 C 97 % 1025,0 hPa 0,0 l/m 2,4 km/h (1 Bft) S 182 0 min 0,000 mm 0,0 UV-I 0 W/m 8,0 C 8,4 C 4,8 km/h (1 Bft) 94,00 %
26.10.2017 01:12 8,5 C 10,6 C 97 % 1025,0 hPa 0,0 l/m 3,6 km/h (1 Bft) S 183 0 min 0,000 mm 0,0 UV-I 0 W/m 8,1 C 8,5 C 6,4 km/h (2 Bft) 97,73 %
26.10.2017 01:14 8,6 C 10,6 C 97 % 1025,1 hPa 0,0 l/m 4,0 km/h (1 Bft) S 183 0 min 0,000 mm 0,0 UV-I 0 W/m 8,2 C 8,6 C 6,4 km/h (2 Bft) 98,00 %
26.10.2017 01:16 8,6 C 10,6 C 97 % 1025,0 hPa 0,0 l/m 2,8 km/h (1 Bft) S 183 0 min 0,000 mm 0,0 UV-I 0 W/m 8,2 C 8,6 C 4,8 km/h (1 Bft) 96,00 %
26.10.2017 01:18 8,7 C 10,6 C 97 % 1025,1 hPa 0,0 l/m 2,7 km/h (1 Bft) S 183 0 min 0,000 mm 0,0 UV-I 0 W/m 8,3 C 8,7 C 4,8 km/h (1 Bft) 95,74 %
26.10.2017 01:20 8,7 C 10,6 C 97 % 1025,0 hPa 0,0 l/m 3,7 km/h (1 Bft) S 173 0 min 0,000 mm 0,0 UV-I 0 W/m 8,3 C 8,7 C 6,4 km/h (2 Bft) 100,00 %
26.10.2017 01:22 8,7 C 10,6 C 97 % 1025,1 hPa 0,0 l/m 3,5 km/h (1 Bft) S 188 0 min 0,000 mm 0,0 UV-I 0 W/m 8,3 C 8,7 C 6,4 km/h (2 Bft) 96,00 %
26.10.2017 01:24 8,8 C 10,6 C 97 % 1025,1 hPa 0,0 l/m 2,7 km/h (1 Bft) S 176 0 min 0,000 mm 0,0 UV-I 0 W/m 8,4 C 8,8 C 4,8 km/h (1 Bft) 100,00 %
26.10.2017 01:26 8,8 C 10,6 C 97 % 1025,1 hPa 0,0 l/m 4,3 km/h (1 Bft) S 189 0 min 0,000 mm 0,0 UV-I 0 W/m 8,4 C 8,8 C 6,4 km/h (2 Bft) 97,37 %
26.10.2017 01:28 8,9 C 10,6 C 97 % 1025,1 hPa 0,0 l/m 4,2 km/h (1 Bft) S-SW 193 0 min 0,000 mm 0,0 UV-I 0 W/m 8,4 C 8,9 C 4,8 km/h (1 Bft) 100,00 %
26.10.2017 01:30 8,9 C 10,6 C 97 % 1025,1 hPa 0,0 l/m 3,5 km/h (1 Bft) S-SW 193 0 min 0,000 mm 0,0 UV-I 0 W/m 8,4 C 8,9 C 6,4 km/h (2 Bft) 100,00 %
26.10.2017 01:32 8,9 C 10,6 C 97 % 1025,0 hPa 0,0 l/m 2,7 km/h (1 Bft) S-SO 165 0 min 0,000 mm 0,0 UV-I 0 W/m 8,4 C 8,9 C 4,8 km/h (1 Bft) 100,00 %
26.10.2017 01:34 8,9 C 10,6 C 97 % 1025,1 hPa 0,0 l/m 3,7 km/h (1 Bft) S-SO 166 0 min 0,000 mm 0,0 UV-I 0 W/m 8,4 C 8,9 C 6,4 km/h (2 Bft) 100,00 %
26.10.2017 01:36 8,8 C 10,6 C 97 % 1025,1 hPa 0,0 l/m 4,3 km/h (1 Bft) S 188 0 min 0,000 mm 0,0 UV-I 0 W/m 8,4 C 8,8 C 6,4 km/h (2 Bft) 100,00 %
26.10.2017 01:38 8,8 C 10,6 C 97 % 1025,1 hPa 0,0 l/m 3,1 km/h (1 Bft) S 181 0 min 0,000 mm 0,0 UV-I 0 W/m 8,4 C 8,8 C 6,4 km/h (2 Bft) 100,00 %
26.10.2017 01:40 8,8 C 10,6 C 97 % 1025,2 hPa 0,0 l/m 2,0 km/h (1 Bft) S 181 0 min 0,000 mm 0,0 UV-I 0 W/m 8,4 C 8,8 C 4,8 km/h (1 Bft) 100,00 %
26.10.2017 01:42 8,8 C 10,6 C 97 % 1025,1 hPa 0,0 l/m 1,4 km/h (1 Bft) S 180 0 min 0,000 mm 0,0 UV-I 0 W/m 8,4 C 8,8 C 3,2 km/h (1 Bft) 98,11 %
26.10.2017 01:44 8,8 C 10,6 C 97 % 1025,2 hPa 0,0 l/m 1,1 km/h (1 Bft) S 180 0 min 0,000 mm 0,0 UV-I 0 W/m 8,4 C 8,8 C 3,2 km/h (1 Bft) 96,00 %
26.10.2017 01:46 8,8 C 10,6 C 97 % 1025,3 hPa 0,0 l/m 2,3 km/h (1 Bft) S 180 0 min 0,000 mm 0,0 UV-I 0 W/m 8,4 C 8,8 C 3,2 km/h (1 Bft) 96,00 %
26.10.2017 01:48 8,8 C 10,6 C 97 % 1025,3 hPa 0,0 l/m 3,4 km/h (1 Bft) S 180 0 min 0,000 mm 0,0 UV-I 0 W/m 8,4 C 8,8 C 4,8 km/h (1 Bft) 97,37 %
26.10.2017 01:50 8,8 C 10,6 C 97 % 1025,3 hPa 0,0 l/m 2,7 km/h (1 Bft) S 180 0 min 0,000 mm 0,0 UV-I 0 W/m 8,4 C 8,8 C 3,2 km/h (1 Bft) 98,00 %
26.10.2017 01:52 8,8 C 10,6 C 96 % 1025,3 hPa 0,0 l/m 3,5 km/h (1 Bft) S 180 0 min 0,000 mm 0,0 UV-I 0 W/m 8,2 C 8,8 C 4,8 km/h (1 Bft) 96,23 %
26.10.2017 01:54 8,8 C 10,6 C 96 % 1025,3 hPa 0,0 l/m 3,0 km/h (1 Bft) S 180 0 min 0,000 mm 0,0 UV-I 0 W/m 8,2 C 8,8 C 4,8 km/h (1 Bft) 97,37 %
26.10.2017 01:56 8,8 C 10,6 C 96 % 1025,4 hPa 0,0 l/m 2,6 km/h (1 Bft) S 180 0 min 0,000 mm 0,0 UV-I 0 W/m 8,2 C 8,8 C 3,2 km/h (1 Bft) 98,11 %
26.10.2017 01:58 8,8 C 10,6 C 96 % 1025,4 hPa 0,0 l/m 3,1 km/h (1 Bft) S 180 0 min 0,000 mm 0,0 UV-I 0 W/m 8,2 C 8,8 C 4,8 km/h (1 Bft) 98,00 %
26.10.2017 02:00 8,8 C 10,6 C 96 % 1025,4 hPa 0,0 l/m 3,5 km/h (1 Bft) S 180 0 min 0,000 mm 0,0 UV-I 0 W/m 8,2 C 8,8 C 4,8 km/h (1 Bft) 97,56 %
26.10.2017 02:02 8,9 C 10,6 C 96 % 1025,3 hPa 0,0 l/m 3,4 km/h (1 Bft) S 182 0 min 0,000 mm 0,0 UV-I 0 W/m 8,3 C 8,9 C 6,4 km/h (2 Bft) 94,74 %
26.10.2017 02:04 8,8 C 10,6 C 96 % 1025,4 hPa 0,0 l/m 4,1 km/h (1 Bft) S 184 0 min 0,000 mm 0,0 UV-I 0 W/m 8,2 C 8,8 C 6,4 km/h (2 Bft) 98,00 %
26.10.2017 02:06 8,9 C 10,6 C 96 % 1025,4 hPa 0,0 l/m 4,2 km/h (1 Bft) S-SW 196 0 min 0,000 mm 0,0 UV-I 0 W/m 8,3 C 8,9 C 6,4 km/h (2 Bft) 98,11 %
26.10.2017 02:08 8,9 C 10,6 C 96 % 1025,3 hPa 0,0 l/m 5,7 km/h (1 Bft) S 181 0 min 0,000 mm 0,0 UV-I 0 W/m 8,3 C 8,9 C 8,0 km/h (2 Bft) 94,87 %
26.10.2017 02:10 8,9 C 10,6 C 96 % 1025,4 hPa 0,0 l/m 4,9 km/h (1 Bft) S-SW 200 0 min 0,000 mm 0,0 UV-I 0 W/m 8,3 C 8,9 C 8,0 km/h (2 Bft) 96,36 %
26.10.2017 02:12 8,9 C 10,6 C 96 % 1025,3 hPa 0,0 l/m 5,0 km/h (1 Bft) S-SW 205 0 min 0,000 mm 0,0 UV-I 0 W/m 8,3 C 8,9 C 8,0 km/h (2 Bft) 97,44 %
26.10.2017 02:14 8,8 C 10,6 C 96 % 1025,4 hPa 0,0 l/m 3,5 km/h (1 Bft) S-SW 205 0 min 0,000 mm 0,0 UV-I 0 W/m 8,2 C 8,8 C 4,8 km/h (1 Bft) 98,21 %
26.10.2017 02:16 8,8 C 10,6 C 96 % 1025,4 hPa 0,0 l/m 4,9 km/h (1 Bft) S-SW 205 0 min 0,000 mm 0,0 UV-I 0 W/m 8,2 C 8,8 C 6,4 km/h (2 Bft) 97,56 %
26.10.2017 02:18 8,8 C 10,6 C 96 % 1025,4 hPa 0,0 l/m 3,1 km/h (1 Bft) S-SW 204 0 min 0,000 mm 0,0 UV-I 0 W/m 8,2 C 8,8 C 4,8 km/h (1 Bft) 98,00 %
26.10.2017 02:20 8,7 C 10,6 C 96 % 1025,4 hPa 0,0 l/m 2,8 km/h (1 Bft) S-SW 204 0 min 0,000 mm 0,0 UV-I 0 W/m 8,1 C 8,7 C 4,8 km/h (1 Bft) 98,04 %
26.10.2017 02:22 8,7 C 10,6 C 96 % 1025,4 hPa 0,0 l/m 1,3 km/h (1 Bft) S-SW 204 0 min 0,000 mm 0,0 UV-I 0 W/m 8,1 C 8,7 C 3,2 km/h (1 Bft) 97,56 %
26.10.2017 02:24 8,7 C 10,6 C 96 % 1025,5 hPa 0,0 l/m 0,2 km/h (0 Bft) S-SW 204 0 min 0,000 mm 0,0 UV-I 0 W/m 8,1 C 8,7 C 1,6 km/h (1 Bft) 97,87 %
26.10.2017 02:26 8,7 C 10,6 C 96 % 1025,6 hPa 0,0 l/m 1,6 km/h (1 Bft) S-SW 204 0 min 0,000 mm 0,0 UV-I 0 W/m 8,1 C 8,7 C 4,8 km/h (1 Bft) 98,00 %
26.10.2017 02:28 8,8 C 10,6 C 96 % 1025,6 hPa 0,0 l/m 3,2 km/h (1 Bft) S-SW 204 0 min 0,000 mm 0,0 UV-I 0 W/m 8,2 C 8,8 C 4,8 km/h (1 Bft) 97,62 %
26.10.2017 02:30 8,8 C 10,6 C 96 % 1025,6 hPa 0,0 l/m 3,7 km/h (1 Bft) S-SW 204 0 min 0,000 mm 0,0 UV-I 0 W/m 8,2 C 8,8 C 4,8 km/h (1 Bft) 96,00 %
26.10.2017 02:32 8,8 C 10,6 C 96 % 1025,6 hPa 0,0 l/m 1,4 km/h (1 Bft) S-SW 204 0 min 0,000 mm 0,0 UV-I 0 W/m 8,2 C 8,8 C 3,2 km/h (1 Bft) 97,87 %
26.10.2017 02:34 8,8 C 10,6 C 96 % 1025,6 hPa 0,0 l/m 1,4 km/h (1 Bft) S-SW 204 0 min 0,000 mm 0,0 UV-I 0 W/m 8,2 C 8,8 C 3,2 km/h (1 Bft) 98,00 %
26.10.2017 02:36 8,7 C 10,6 C 96 % 1025,6 hPa 0,0 l/m 0,6 km/h (0 Bft) S-SW 204 0 min 0,000 mm 0,0 UV-I 0 W/m 8,1 C 8,7 C 3,2 km/h (1 Bft) 97,56 %
26.10.2017 02:38 8,6 C 10,6 C 96 % 1025,7 hPa 0,0 l/m 1,6 km/h (1 Bft) S-SW 204 0 min 0,000 mm 0,0 UV-I 0 W/m 8,0 C 8,6 C 4,8 km/h (1 Bft) 98,11 %
26.10.2017 02:40 8,6 C 10,6 C 96 % 1025,7 hPa 0,0 l/m 1,9 km/h (1 Bft) S-SW 204 0 min 0,000 mm 0,0 UV-I 0 W/m 8,0 C 8,6 C 3,2 km/h (1 Bft) 97,56 %
26.10.2017 02:42 8,5 C 10,6 C 96 % 1025,7 hPa 0,0 l/m 1,7 km/h (1 Bft) S-SW 204 0 min 0,000 mm 0,0 UV-I 0 W/m 7,9 C 8,5 C 3,2 km/h (1 Bft) 98,00 %
26.10.2017 02:44 8,5 C 10,6 C 96 % 1025,6 hPa 0,0 l/m 1,4 km/h (1 Bft) S-SW 203 0 min 0,000 mm 0,0 UV-I 0 W/m 7,9 C 8,5 C 3,2 km/h (1 Bft) 100,00 %
26.10.2017 02:46 8,5 C 10,6 C 96 % 1025,6 hPa 0,0 l/m 1,1 km/h (1 Bft) S-SW 203 0 min 0,000 mm 0,0 UV-I 0 W/m 7,9 C 8,5 C 1,6 km/h (1 Bft) 97,87 %
26.10.2017 02:48 8,5 C 10,6 C 96 % 1025,7 hPa 0,0 l/m 1,9 km/h (1 Bft) S-SW 203 0 min 0,000 mm 0,0 UV-I 0 W/m 7,9 C 8,5 C 3,2 km/h (1 Bft) 97,37 %
26.10.2017 02:50 8,4 C 10,6 C 96 % 1025,7 hPa 0,0 l/m 2,2 km/h (1 Bft) S-SW 203 0 min 0,000 mm 0,0 UV-I 0 W/m 7,8 C 8,4 C 4,8 km/h (1 Bft) 100,00 %
26.10.2017 02:52 8,4 C 10,6 C 96 % 1025,7 hPa 0,0 l/m 3,2 km/h (1 Bft) S-SW 203 0 min 0,000 mm 0,0 UV-I 0 W/m 7,8 C 8,4 C 4,8 km/h (1 Bft) 100,00 %
26.10.2017 02:54 8,4 C 10,6 C 96 % 1025,7 hPa 0,0 l/m 4,2 km/h (1 Bft) S-SW 202 0 min 0,000 mm 0,0 UV-I 0 W/m 7,8 C 8,4 C 6,4 km/h (2 Bft) 100,00 %
26.10.2017 02:56 8,3 C 10,6 C 96 % 1025,7 hPa 0,0 l/m 3,5 km/h (1 Bft) S-SW 202 0 min 0,000 mm 0,0 UV-I 0 W/m 7,7 C 8,3 C 4,8 km/h (1 Bft) 97,96 %
26.10.2017 02:58 8,3 C 10,6 C 96 % 1025,7 hPa 0,0 l/m 3,9 km/h (1 Bft) S-SW 202 0 min 0,000 mm 0,0 UV-I 0 W/m 7,7 C 8,3 C 4,8 km/h (1 Bft) 97,22 %
26.10.2017 03:00 8,3 C 10,6 C 96 % 1025,7 hPa 0,0 l/m 4,2 km/h (1 Bft) S-SW 202 0 min 0,000 mm 0,0 UV-I 0 W/m 7,7 C 8,3 C 6,4 km/h (2 Bft) 98,00 %
26.10.2017 03:02 8,4 C 10,6 C 96 % 1025,7 hPa 0,0 l/m 3,7 km/h (1 Bft) S-SW 202 0 min 0,000 mm 0,0 UV-I 0 W/m 7,8 C 8,4 C 6,4 km/h (2 Bft) 98,00 %
26.10.2017 03:04 8,3 C 10,6 C 96 % 1025,8 hPa 0,0 l/m 4,5 km/h (1 Bft) S-SW 202 0 min 0,000 mm 0,0 UV-I 0 W/m 7,7 C 8,3 C 6,4 km/h (2 Bft) 97,56 %
26.10.2017 03:06 8,3 C 10,6 C 96 % 1025,8 hPa 0,0 l/m 4,5 km/h (1 Bft) S-SW 200 0 min 0,000 mm 0,0 UV-I 0 W/m 7,7 C 8,3 C 6,4 km/h (2 Bft) 98,00 %
26.10.2017 03:08 8,3 C 10,6 C 96 % 1025,8 hPa 0,0 l/m 3,2 km/h (1 Bft) S-SW 200 0 min 0,000 mm 0,0 UV-I 0 W/m 7,7 C 8,3 C 6,4 km/h (2 Bft) 96,23 %
26.10.2017 03:10 8,4 C 10,6 C 96 % 1025,7 hPa 0,0 l/m 3,0 km/h (1 Bft) S-SW 200 0 min 0,000 mm 0,0 UV-I 0 W/m 7,8 C 8,4 C 4,8 km/h (1 Bft) 97,56 %
26.10.2017 03:12 8,4 C 10,6 C 96 % 1025,7 hPa 0,0 l/m 5,8 km/h (2 Bft) SW 221 0 min 0,000 mm 0,0 UV-I 0 W/m 7,8 C 8,4 C 8,0 km/h (2 Bft) 96,23 %
26.10.2017 03:14 8,5 C 10,6 C 96 % 1025,6 hPa 0,0 l/m 2,7 km/h (1 Bft) S 175 0 min 0,000 mm 0,0 UV-I 0 W/m 7,9 C 8,5 C 6,4 km/h (2 Bft) 97,37 %
26.10.2017 03:16 8,6 C 10,6 C 96 % 1025,6 hPa 0,0 l/m 3,4 km/h (1 Bft) S-SO 167 0 min 0,000 mm 0,0 UV-I 0 W/m 8,0 C 8,6 C 8,0 km/h (2 Bft) 97,87 %
26.10.2017 03:18 8,6 C 10,6 C 96 % 1025,7 hPa 0,0 l/m 3,6 km/h (1 Bft) S-SW 205 0 min 0,000 mm 0,0 UV-I 0 W/m 8,0 C 8,6 C 6,4 km/h (2 Bft) 98,11 %
26.10.2017 03:20 8,7 C 10,6 C 96 % 1025,7 hPa 0,0 l/m 3,0 km/h (1 Bft) S-SW 205 0 min 0,000 mm 0,0 UV-I 0 W/m 8,1 C 8,7 C 4,8 km/h (1 Bft) 97,73 %
26.10.2017 03:22 8,7 C 10,6 C 96 % 1025,7 hPa 0,0 l/m 1,8 km/h (1 Bft) S-SW 205 0 min 0,000 mm 0,0 UV-I 0 W/m 8,1 C 8,7 C 3,2 km/h (1 Bft) 98,11 %
26.10.2017 03:24 8,7 C 10,6 C 96 % 1025,7 hPa 0,0 l/m 2,5 km/h (1 Bft) S-SW 205 0 min 0,000 mm 0,0 UV-I 0 W/m 8,1 C 8,7 C 3,2 km/h (1 Bft) 97,37 %
26.10.2017 03:26 8,7 C 10,6 C 96 % 1025,7 hPa 0,0 l/m 3,5 km/h (1 Bft) S-SW 205 0 min 0,000 mm 0,0 UV-I 0 W/m 8,1 C 8,7 C 4,8 km/h (1 Bft) 96,23 %
26.10.2017 03:28 8,8 C 10,6 C 96 % 1025,7 hPa 0,0 l/m 3,0 km/h (1 Bft) S-SW 205 0 min 0,000 mm 0,0 UV-I 0 W/m 8,2 C 8,8 C 4,8 km/h (1 Bft) 96,00 %
26.10.2017 03:30 8,7 C 10,6 C 96 % 1025,7 hPa 0,0 l/m 2,4 km/h (1 Bft) S-SW 197 0 min 0,000 mm 0,0 UV-I 0 W/m 8,1 C 8,7 C 4,8 km/h (1 Bft) 97,22 %
26.10.2017 03:32 8,7 C 10,6 C 96 % 1025,7 hPa 0,0 l/m 1,3 km/h (1 Bft) S-SW 196 0 min 0,000 mm 0,0 UV-I 0 W/m 8,1 C 8,7 C 3,2 km/h (1 Bft) 94,55 %
26.10.2017 03:34 8,7 C 10,6 C 96 % 1025,6 hPa 0,0 l/m 1,0 km/h (0 Bft) S-SW 196 0 min 0,000 mm 0,0 UV-I 0 W/m 8,1 C 8,7 C 3,2 km/h (1 Bft) 100,00 %
26.10.2017 03:36 8,6 C 10,6 C 96 % 1025,6 hPa 0,0 l/m 1,6 km/h (1 Bft) S-SW 196 0 min 0,000 mm 0,0 UV-I 0 W/m 8,0 C 8,6 C 3,2 km/h (1 Bft) 100,00 %
26.10.2017 03:38 8,6 C 10,6 C 96 % 1025,5 hPa 0,0 l/m 1,6 km/h (1 Bft) S-SW 196 0 min 0,000 mm 0,0 UV-I 0 W/m 8,0 C 8,6 C 3,2 km/h (1 Bft) 100,00 %
26.10.2017 03:40 8,5 C 10,6 C 96 % 1025,6 hPa 0,0 l/m 0,4 km/h (0 Bft) S-SW 196 0 min 0,000 mm 0,0 UV-I 0 W/m 7,9 C 8,5 C 1,6 km/h (1 Bft) 100,00 %
26.10.2017 03:42 8,4 C 10,6 C 96 % 1025,5 hPa 0,0 l/m 0,1 km/h (0 Bft) S-SW 196 0 min 0,000 mm 0,0 UV-I 0 W/m 7,8 C 8,4 C 1,6 km/h (1 Bft) 100,00 %
26.10.2017 03:44 8,4 C 10,6 C 96 % 1025,5 hPa 0,0 l/m 0,8 km/h (0 Bft) S-SW 196 0 min 0,000 mm 0,0 UV-I 0 W/m 7,8 C 8,4 C 3,2 km/h (1 Bft) 100,00 %
26.10.2017 03:46 8,4 C 10,6 C 96 % 1025,5 hPa 0,0 l/m 2,0 km/h (1 Bft) S-SW 196 0 min 0,000 mm 0,0 UV-I 0 W/m 7,8 C 8,4 C 3,2 km/h (1 Bft) 100,00 %
26.10.2017 03:48 8,3 C 10,6 C 96 % 1025,5 hPa 0,0 l/m 3,4 km/h (1 Bft) S-SW 194 0 min 0,000 mm 0,0 UV-I 0 W/m 7,7 C 8,3 C 4,8 km/h (1 Bft) 100,00 %
26.10.2017 03:50 8,3 C 10,6 C 96 % 1025,6 hPa 0,0 l/m 2,1 km/h (1 Bft) S-SW 194 0 min 0,000 mm 0,0 UV-I 0 W/m 7,7 C 8,3 C 3,2 km/h (1 Bft) 100,00 %
26.10.2017 03:52 8,3 C 10,6 C 96 % 1025,5 hPa 0,0 l/m 2,7 km/h (1 Bft) S-SW 194 0 min 0,000 mm 0,0 UV-I 0 W/m 7,7 C 8,3 C 4,8 km/h (1 Bft) 100,00 %
26.10.2017 03:54 8,3 C 10,6 C 96 % 1025,5 hPa 0,0 l/m 1,7 km/h (1 Bft) S-SW 194 0 min 0,000 mm 0,0 UV-I 0 W/m 7,7 C 8,3 C 3,2 km/h (1 Bft) 100,00 %
26.10.2017 03:56 8,2 C 10,6 C 96 % 1025,5 hPa 0,0 l/m 1,3 km/h (1 Bft) S-SW 194 0 min 0,000 mm 0,0 UV-I 0 W/m 7,6 C 8,2 C 3,2 km/h (1 Bft) 100,00 %
26.10.2017 03:58 8,2 C 10,6 C 96 % 1025,5 hPa 0,0 l/m 1,2 km/h (1 Bft) S-SW 194 0 min 0,000 mm 0,0 UV-I 0 W/m 7,6 C 8,2 C 3,2 km/h (1 Bft) 97,87 %
26.10.2017 04:00 8,2 C 10,6 C 96 % 1025,6 hPa 0,0 l/m 0,6 km/h (0 Bft) S-SW 194 0 min 0,000 mm 0,0 UV-I 0 W/m 7,6 C 8,2 C 1,6 km/h (1 Bft) 98,00 %
26.10.2017 04:02 8,2 C 10,6 C 96 % 1025,5 hPa 0,0 l/m 0,0 km/h (0 Bft) S-SW 194 0 min 0,000 mm 0,0 UV-I 0 W/m 7,6 C 8,2 C 1,6 km/h (1 Bft) 100,00 %
26.10.2017 04:04 8,2 C 10,6 C 96 % 1025,5 hPa 0,0 l/m 0,8 km/h (0 Bft) S-SW 194 0 min 0,000 mm 0,0 UV-I 0 W/m 7,6 C 8,2 C 1,6 km/h (1 Bft) 100,00 %
26.10.2017 04:06 8,2 C 10,6 C 96 % 1025,5 hPa 0,0 l/m 0,8 km/h (0 Bft) S-SW 194 0 min 0,000 mm 0,0 UV-I 0 W/m 7,6 C 8,2 C 3,2 km/h (1 Bft) 100,00 %
26.10.2017 04:08 8,2 C 10,6 C 96 % 1025,5 hPa 0,0 l/m 0,9 km/h (0 Bft) S-SW 194 0 min 0,000 mm 0,0 UV-I 0 W/m 7,6 C 8,2 C 3,2 km/h (1 Bft) 100,00 %
26.10.2017 04:10 8,1 C 10,6 C 96 % 1025,6 hPa 0,0 l/m 0,0 km/h (0 Bft) S-SW 194 0 min 0,000 mm 0,0 UV-I 0 W/m 7,5 C 8,1 C 1,6 km/h (1 Bft) 100,00 %
26.10.2017 04:12 8,1 C 10,6 C 96 % 1025,6 hPa 0,0 l/m 0,0 km/h (0 Bft) S-SW 194 0 min 0,000 mm 0,0 UV-I 0 W/m 7,5 C 8,1 C 0,0 km/h (0 Bft) 100,00 %
26.10.2017 04:14 8,0 C 10,6 C 96 % 1025,5 hPa 0,0 l/m 0,8 km/h (0 Bft) S-SW 194 0 min 0,000 mm 0,0 UV-I 0 W/m 7,4 C 8,0 C 3,2 km/h (1 Bft) 100,00 %
26.10.2017 04:16 7,9 C 10,6 C 96 % 1025,5 hPa 0,0 l/m 0,9 km/h (0 Bft) S-SW 194 0 min 0,000 mm 0,0 UV-I 0 W/m 7,3 C 7,9 C 3,2 km/h (1 Bft) 97,87 %
26.10.2017 04:18 7,9 C 10,6 C 96 % 1025,6 hPa 0,0 l/m 0,5 km/h (0 Bft) S-SW 194 0 min 0,000 mm 0,0 UV-I 0 W/m 7,3 C 7,9 C 1,6 km/h (1 Bft) 98,00 %
26.10.2017 04:20 7,8 C 10,6 C 96 % 1025,6 hPa 0,0 l/m 0,3 km/h (0 Bft) S-SW 194 0 min 0,000 mm 0,0 UV-I 0 W/m 7,2 C 7,8 C 1,6 km/h (1 Bft) 100,00 %
26.10.2017 04:22 7,8 C 10,6 C 96 % 1025,5 hPa 0,0 l/m 0,3 km/h (0 Bft) S-SW 194 0 min 0,000 mm 0,0 UV-I 0 W/m 7,2 C 7,8 C 1,6 km/h (1 Bft) 98,00 %
26.10.2017 04:24 7,8 C 10,6 C 96 % 1025,6 hPa 0,0 l/m 0,5 km/h (0 Bft) S-SW 194 0 min 0,000 mm 0,0 UV-I 0 W/m 7,2 C 7,8 C 1,6 km/h (1 Bft) 100,00 %
26.10.2017 04:26 7,7 C 10,6 C 96 % 1025,6 hPa 0,0 l/m 0,5 km/h (0 Bft) S-SW 194 0 min 0,000 mm 0,0 UV-I 0 W/m 7,1 C 7,7 C 1,6 km/h (1 Bft) 100,00 %
26.10.2017 04:28 7,7 C 10,6 C 96 % 1025,6 hPa 0,0 l/m 0,0 km/h (0 Bft) S-SW 194 0 min 0,000 mm 0,0 UV-I 0 W/m 7,1 C 7,7 C 1,6 km/h (1 Bft) 100,00 %
26.10.2017 04:30 7,7 C 10,6 C 96 % 1025,6 hPa 0,0 l/m 0,0 km/h (0 Bft) S-SW 194 0 min 0,000 mm 0,0 UV-I 0 W/m 7,1 C 7,7 C 0,0 km/h (0 Bft) 98,00 %
26.10.2017 04:32 7,7 C 10,6 C 96 % 1025,6 hPa 0,0 l/m 0,0 km/h (0 Bft) S-SW 194 0 min 0,000 mm 0,0 UV-I 0 W/m 7,1 C 7,7 C 0,0 km/h (0 Bft) 100,00 %
26.10.2017 04:34 7,7 C 10,6 C 96 % 1025,6 hPa 0,0 l/m 0,0 km/h (0 Bft) S-SW 194 0 min 0,000 mm 0,0 UV-I 0 W/m 7,1 C 7,7 C 0,0 km/h (0 Bft) 100,00 %
26.10.2017 04:36 7,8 C 10,6 C 96 % 1025,7 hPa 0,0 l/m 0,0 km/h (0 Bft) S-SW 194 0 min 0,000 mm 0,0 UV-I 0 W/m 7,2 C 7,8 C 0,0 km/h (0 Bft) 100,00 %
26.10.2017 04:38 7,8 C 10,6 C 96 % 1025,6 hPa 0,0 l/m 1,0 km/h (0 Bft) S-SW 194 0 min 0,000 mm 0,0 UV-I 0 W/m 7,2 C 7,8 C 3,2 km/h (1 Bft) 100,00 %
26.10.2017 04:40 7,7 C 10,6 C 96 % 1025,6 hPa 0,0 l/m 0,0 km/h (0 Bft) S-SW 194 0 min 0,000 mm 0,0 UV-I 0 W/m 7,1 C 7,7 C 0,0 km/h (0 Bft) 100,00 %
26.10.2017 04:42 7,7 C 10,6 C 96 % 1025,6 hPa 0,0 l/m 0,1 km/h (0 Bft) S-SW 194 0 min 0,000 mm 0,0 UV-I 0 W/m 7,1 C 7,7 C 1,6 km/h (1 Bft) 100,00 %
26.10.2017 04:44 7,6 C 10,6 C 96 % 1025,6 hPa 0,0 l/m 0,8 km/h (0 Bft) S-SW 194 0 min 0,000 mm 0,0 UV-I 0 W/m 7,0 C 7,6 C 1,6 km/h (1 Bft) 97,87 %
26.10.2017 04:46 7,6 C 10,6 C 96 % 1025,6 hPa 0,0 l/m 0,4 km/h (0 Bft) S-SW 194 0 min 0,000 mm 0,0 UV-I 0 W/m 7,0 C 7,6 C 1,6 km/h (1 Bft) 100,00 %
26.10.2017 04:48 7,5 C 10,6 C 96 % 1025,6 hPa 0,0 l/m 0,0 km/h (0 Bft) S-SW 194 0 min 0,000 mm 0,0 UV-I 0 W/m 6,9 C 7,5 C 0,0 km/h (0 Bft) 100,00 %
26.10.2017 04:50 7,5 C 10,6 C 96 % 1025,6 hPa 0,0 l/m 0,2 km/h (0 Bft) S-SW 194 0 min 0,000 mm 0,0 UV-I 0 W/m 6,9 C 7,5 C 1,6 km/h (1 Bft) 100,00 %
26.10.2017 04:52 7,5 C 10,6 C 96 % 1025,6 hPa 0,0 l/m 1,5 km/h (1 Bft) S-SW 194 0 min 0,000 mm 0,0 UV-I 0 W/m 6,9 C 7,5 C 3,2 km/h (1 Bft) 100,00 %
26.10.2017 04:54 7,6 C 10,6 C 96 % 1025,5 hPa 0,0 l/m 1,0 km/h (0 Bft) S-SW 194 0 min 0,000 mm 0,0 UV-I 0 W/m 7,0 C 7,6 C 1,6 km/h (1 Bft) 100,00 %
26.10.2017 04:56 7,6 C 10,6 C 97 % 1025,6 hPa 0,0 l/m 1,4 km/h (1 Bft) S-SW 194 0 min 0,000 mm 0,0 UV-I 0 W/m 7,2 C 7,6 C 3,2 km/h (1 Bft) 97,87 %
26.10.2017 04:58 7,6 C 10,6 C 96 % 1025,7 hPa 0,0 l/m 0,8 km/h (0 Bft) S-SW 194 0 min 0,000 mm 0,0 UV-I 0 W/m 7,0 C 7,6 C 1,6 km/h (1 Bft) 100,00 %
26.10.2017 05:00 7,6 C 10,6 C 96 % 1025,7 hPa 0,0 l/m 0,0 km/h (0 Bft) S-SW 194 0 min 0,000 mm 0,0 UV-I 0 W/m 7,0 C 7,6 C 0,0 km/h (0 Bft) 100,00 %
26.10.2017 05:02 7,6 C 10,6 C 96 % 1025,7 hPa 0,0 l/m 0,0 km/h (0 Bft) S-SW 194 0 min 0,000 mm 0,0 UV-I 0 W/m 7,0 C 7,6 C 0,0 km/h (0 Bft) 98,11 %
26.10.2017 05:04 7,6 C 10,6 C 96 % 1025,7 hPa 0,0 l/m 0,0 km/h (0 Bft) S-SW 194 0 min 0,000 mm 0,0 UV-I 0 W/m 7,0 C 7,6 C 0,0 km/h (0 Bft) 100,00 %
26.10.2017 05:06 7,6 C 10,6 C 96 % 1025,7 hPa 0,0 l/m 0,0 km/h (0 Bft) S-SW 194 0 min 0,000 mm 0,0 UV-I 0 W/m 7,0 C 7,6 C 0,0 km/h (0 Bft) 100,00 %
26.10.2017 05:08 7,6 C 10,6 C 96 % 1025,8 hPa 0,0 l/m 0,0 km/h (0 Bft) S-SW 194 0 min 0,000 mm 0,0 UV-I 0 W/m 7,0 C 7,6 C 0,0 km/h (0 Bft) 100,00 %
26.10.2017 05:10 7,6 C 10,6 C 96 % 1025,8 hPa 0,0 l/m 0,8 km/h (0 Bft) S-SW 194 0 min 0,000 mm 0,0 UV-I 0 W/m 7,0 C 7,6 C 3,2 km/h (1 Bft) 98,00 %
26.10.2017 05:12 7,6 C 10,6 C 96 % 1025,8 hPa 0,0 l/m 1,3 km/h (1 Bft) S-SW 194 0 min 0,000 mm 0,0 UV-I 0 W/m 7,0 C 7,6 C 1,6 km/h (1 Bft) 95,12 %
26.10.2017 05:14 7,7 C 10,6 C 97 % 1025,8 hPa 0,0 l/m 1,0 km/h (0 Bft) S-SW 194 0 min 0,000 mm 0,0 UV-I 0 W/m 7,3 C 7,7 C 1,6 km/h (1 Bft) 96,43 %
26.10.2017 05:16 7,7 C 10,6 C 97 % 1025,8 hPa 0,0 l/m 0,0 km/h (0 Bft) S-SW 194 0 min 0,000 mm 0,0 UV-I 0 W/m 7,3 C 7,7 C 0,0 km/h (0 Bft) 98,00 %
26.10.2017 05:18 7,6 C 10,6 C 96 % 1025,8 hPa 0,0 l/m 0,0 km/h (0 Bft) S-SW 194 0 min 0,000 mm 0,0 UV-I 0 W/m 7,0 C 7,6 C 0,0 km/h (0 Bft) 97,14 %
26.10.2017 05:20 7,5 C 10,6 C 96 % 1025,9 hPa 0,0 l/m 0,0 km/h (0 Bft) S-SW 194 0 min 0,000 mm 0,0 UV-I 0 W/m 6,9 C 7,5 C 0,0 km/h (0 Bft) 94,34 %
26.10.2017 05:22 7,4 C 10,6 C 96 % 1025,9 hPa 0,0 l/m 0,0 km/h (0 Bft) S-SW 194 0 min 0,000 mm 0,0 UV-I 0 W/m 6,8 C 7,4 C 0,0 km/h (0 Bft) 95,12 %
26.10.2017 05:24 7,3 C 10,6 C 96 % 1026,0 hPa 0,0 l/m 0,7 km/h (0 Bft) S-SW 194 0 min 0,000 mm 0,0 UV-I 0 W/m 6,7 C 7,3 C 1,6 km/h (1 Bft) 95,74 %
26.10.2017 05:26 7,3 C 10,6 C 96 % 1026,0 hPa 0,0 l/m 0,6 km/h (0 Bft) S-SW 194 0 min 0,000 mm 0,0 UV-I 0 W/m 6,7 C 7,3 C 1,6 km/h (1 Bft) 94,64 %
26.10.2017 05:28 7,2 C 10,6 C 96 % 1026,0 hPa 0,0 l/m 0,0 km/h (0 Bft) S-SW 194 0 min 0,000 mm 0,0 UV-I 0 W/m 6,6 C 7,2 C 0,0 km/h (0 Bft) 93,62 %
26.10.2017 05:30 7,2 C 10,6 C 96 % 1026,1 hPa 0,0 l/m 0,0 km/h (0 Bft) S-SW 194 0 min 0,000 mm 0,0 UV-I 0 W/m 6,6 C 7,2 C 0,0 km/h (0 Bft) 95,74 %
26.10.2017 05:32 7,3 C 10,6 C 97 % 1026,0 hPa 0,0 l/m 0,0 km/h (0 Bft) S-SW 194 0 min 0,000 mm 0,0 UV-I 0 W/m 6,9 C 7,3 C 0,0 km/h (0 Bft) 94,44 %
26.10.2017 05:34 7,4 C 10,6 C 97 % 1026,0 hPa 0,0 l/m 0,0 km/h (0 Bft) S-SW 194 0 min 0,000 mm 0,0 UV-I 0 W/m 7,0 C 7,4 C 0,0 km/h (0 Bft) 96,43 %
26.10.2017 05:36 7,6 C 10,6 C 97 % 1026,0 hPa 0,0 l/m 0,0 km/h (0 Bft) S-SW 194 0 min 0,000 mm 0,0 UV-I 0 W/m 7,2 C 7,6 C 0,0 km/h (0 Bft) 96,00 %
26.10.2017 05:38 7,7 C 10,6 C 97 % 1026,0 hPa 0,0 l/m 0,0 km/h (0 Bft) S-SW 194 0 min 0,000 mm 0,0 UV-I 0 W/m 7,3 C 7,7 C 0,0 km/h (0 Bft) 93,62 %
26.10.2017 05:40 7,8 C 10,6 C 97 % 1026,0 hPa 0,0 l/m 0,0 km/h (0 Bft) S-SW 194 0 min 0,000 mm 0,0 UV-I 0 W/m 7,4 C 7,8 C 0,0 km/h (0 Bft) 97,37 %
26.10.2017 05:42 7,8 C 10,6 C 97 % 1025,9 hPa 0,0 l/m 0,0 km/h (0 Bft) S-SW 194 0 min 0,000 mm 0,0 UV-I 0 W/m 7,4 C 7,8 C 0,0 km/h (0 Bft) 95,74 %
26.10.2017 05:44 7,8 C 10,6 C 97 % 1026,0 hPa 0,0 l/m 0,0 km/h (0 Bft) S-SW 194 0 min 0,000 mm 0,0 UV-I 0 W/m 7,4 C 7,8 C 0,0 km/h (0 Bft) 91,49 %
26.10.2017 05:46 7,8 C 10,6 C 97 % 1026,0 hPa 0,0 l/m 0,0 km/h (0 Bft) S-SW 194 0 min 0,000 mm 0,0 UV-I 0 W/m 7,4 C 7,8 C 0,0 km/h (0 Bft) 95,45 %
26.10.2017 05:48 7,8 C 10,6 C 97 % 1026,1 hPa 0,0 l/m 0,0 km/h (0 Bft) S-SW 194 0 min 0,000 mm 0,0 UV-I 0 W/m 7,4 C 7,8 C 0,0 km/h (0 Bft) 98,00 %
26.10.2017 05:50 7,7 C 10,6 C 97 % 1026,0 hPa 0,0 l/m 0,3 km/h (0 Bft) S-SW 194 0 min 0,000 mm 0,0 UV-I 0 W/m 7,3 C 7,7 C 1,6 km/h (1 Bft) 96,00 %
26.10.2017 05:52 7,7 C 10,6 C 97 % 1026,1 hPa 0,0 l/m 1,6 km/h (1 Bft) S-SW 194 0 min 0,000 mm 0,0 UV-I 0 W/m 7,3 C 7,7 C 3,2 km/h (1 Bft) 97,56 %
26.10.2017 05:54 7,6 C 10,6 C 97 % 1026,1 hPa 0,0 l/m 1,1 km/h (1 Bft) S-SW 194 0 min 0,000 mm 0,0 UV-I 0 W/m 7,2 C 7,6 C 1,6 km/h (1 Bft) 97,87 %
26.10.2017 05:56 7,5 C 10,6 C 96 % 1026,1 hPa 0,0 l/m 1,5 km/h (1 Bft) S-SW 194 0 min 0,000 mm 0,0 UV-I 0 W/m 6,9 C 7,5 C 3,2 km/h (1 Bft) 98,11 %
26.10.2017 05:58 7,4 C 10,6 C 97 % 1026,2 hPa 0,0 l/m 2,5 km/h (1 Bft) S-SW 194 0 min 0,000 mm 0,0 UV-I 0 W/m 7,0 C 7,4 C 4,8 km/h (1 Bft) 98,00 %
26.10.2017 06:00 7,4 C 10,6 C 97 % 1026,2 hPa 0,0 l/m 1,0 km/h (0 Bft) S-SW 194 0 min 0,000 mm 0,0 UV-I 0 W/m 7,0 C 7,4 C 3,2 km/h (1 Bft) 97,37 %
26.10.2017 06:02 7,3 C 10,6 C 97 % 1026,2 hPa 0,0 l/m 0,3 km/h (0 Bft) S-SW 194 0 min 0,000 mm 0,0 UV-I 0 W/m 6,9 C 7,3 C 1,6 km/h (1 Bft) 98,11 %
26.10.2017 06:04 7,4 C 10,6 C 97 % 1026,2 hPa 0,0 l/m 0,6 km/h (0 Bft) S-SW 194 0 min 0,000 mm 0,0 UV-I 0 W/m 7,0 C 7,4 C 3,2 km/h (1 Bft) 96,00 %
26.10.2017 06:06 7,5 C 10,6 C 97 % 1026,3 hPa 0,0 l/m 1,3 km/h (1 Bft) S-SW 194 0 min 0,000 mm 0,0 UV-I 0 W/m 7,1 C 7,5 C 3,2 km/h (1 Bft) 97,56 %
26.10.2017 06:08 7,5 C 10,6 C 97 % 1026,2 hPa 0,0 l/m 0,4 km/h (0 Bft) S-SW 194 0 min 0,000 mm 0,0 UV-I 0 W/m 7,1 C 7,5 C 1,6 km/h (1 Bft) 98,00 %
26.10.2017 06:10 7,5 C 10,6 C 97 % 1026,2 hPa 0,0 l/m 0,1 km/h (0 Bft) S-SW 194 0 min 0,000 mm 0,0 UV-I 0 W/m 7,1 C 7,5 C 1,6 km/h (1 Bft) 97,22 %
26.10.2017 06:12 7,5 C 10,6 C 97 % 1026,2 hPa 0,0 l/m 0,0 km/h (0 Bft) S-SW 194 0 min 0,000 mm 0,0 UV-I 0 W/m 7,1 C 7,5 C 1,6 km/h (1 Bft) 98,36 %
26.10.2017 06:14 7,6 C 10,6 C 97 % 1026,2 hPa 0,0 l/m 0,0 km/h (0 Bft) S-SW 194 0 min 0,000 mm 0,0 UV-I 0 W/m 7,2 C 7,6 C 0,0 km/h (0 Bft) 97,22 %
26.10.2017 06:16 7,6 C 10,6 C 97 % 1026,2 hPa 0,0 l/m 0,3 km/h (0 Bft) S-SW 194 0 min 0,000 mm 0,0 UV-I 0 W/m 7,2 C 7,6 C 1,6 km/h (1 Bft) 97,87 %
26.10.2017 06:18 7,6 C 10,6 C 97 % 1026,2 hPa 0,0 l/m 0,3 km/h (0 Bft) S-SW 194 0 min 0,000 mm 0,0 UV-I 0 W/m 7,2 C 7,6 C 1,6 km/h (1 Bft) 98,00 %
26.10.2017 06:20 7,6 C 10,6 C 97 % 1026,2 hPa 0,0 l/m 0,1 km/h (0 Bft) S-SW 194 0 min 0,000 mm 0,0 UV-I 0 W/m 7,2 C 7,6 C 1,6 km/h (1 Bft) 96,23 %
26.10.2017 06:22 7,6 C 10,6 C 97 % 1026,2 hPa 0,0 l/m 0,4 km/h (0 Bft) S-SW 194 0 min 0,000 mm 0,0 UV-I 0 W/m 7,2 C 7,6 C 1,6 km/h (1 Bft) 97,87 %
26.10.2017 06:24 7,6 C 10,6 C 97 % 1026,0 hPa 0,0 l/m 0,8 km/h (0 Bft) S-SW 194 0 min 0,000 mm 0,0 UV-I 0 W/m 7,2 C 7,6 C 1,6 km/h (1 Bft) 100,00 %
26.10.2017 06:26 7,7 C 10,6 C 97 % 1026,0 hPa 0,0 l/m 0,8 km/h (0 Bft) S-SW 194 0 min 0,000 mm 0,0 UV-I 0 W/m 7,3 C 7,7 C 1,6 km/h (1 Bft) 98,00 %
26.10.2017 06:28 7,7 C 10,6 C 97 % 1025,9 hPa 0,0 l/m 2,3 km/h (1 Bft) S-SW 192 0 min 0,000 mm 0,0 UV-I 0 W/m 7,3 C 7,7 C 3,2 km/h (1 Bft) 100,00 %
26.10.2017 06:30 7,8 C 10,6 C 97 % 1025,8 hPa 0,0 l/m 1,9 km/h (1 Bft) S 191 0 min 0,000 mm 0,0 UV-I 0 W/m 7,4 C 7,8 C 3,2 km/h (1 Bft) 100,00 %
26.10.2017 06:32 7,9 C 10,6 C 97 % 1025,8 hPa 0,0 l/m 1,7 km/h (1 Bft) S 191 0 min 0,000 mm 0,0 UV-I 0 W/m 7,5 C 7,9 C 3,2 km/h (1 Bft) 100,00 %
26.10.2017 06:34 7,9 C 10,6 C 97 % 1025,8 hPa 0,0 l/m 1,6 km/h (1 Bft) S 191 0 min 0,000 mm 0,0 UV-I 0 W/m 7,5 C 7,9 C 3,2 km/h (1 Bft) 92,31 %
26.10.2017 06:36 7,9 C 10,6 C 97 % 1025,7 hPa 0,0 l/m 1,2 km/h (1 Bft) S 191 0 min 0,000 mm 0,0 UV-I 0 W/m 7,5 C 7,9 C 3,2 km/h (1 Bft) 100,00 %
26.10.2017 06:38 7,9 C 10,6 C 97 % 1025,7 hPa 0,0 l/m 2,7 km/h (1 Bft) S 175 0 min 0,000 mm 0,0 UV-I 0 W/m 7,5 C 7,9 C 4,8 km/h (1 Bft) 100,00 %
26.10.2017 06:40 7,9 C 10,6 C 97 % 1025,7 hPa 0,0 l/m 2,9 km/h (1 Bft) S 175 0 min 0,000 mm 0,0 UV-I 0 W/m 7,5 C 7,9 C 4,8 km/h (1 Bft) 100,00 %
26.10.2017 06:42 7,9 C 10,6 C 97 % 1025,6 hPa 0,0 l/m 3,1 km/h (1 Bft) S 176 0 min 0,000 mm 0,0 UV-I 0 W/m 7,5 C 7,9 C 6,4 km/h (2 Bft) 98,00 %
26.10.2017 06:44 7,9 C 10,6 C 97 % 1025,6 hPa 0,0 l/m 2,0 km/h (1 Bft) S 176 0 min 0,000 mm 0,0 UV-I 0 W/m 7,5 C 7,9 C 4,8 km/h (1 Bft) 100,00 %
26.10.2017 06:46 7,9 C 10,6 C 97 % 1025,6 hPa 0,0 l/m 1,8 km/h (1 Bft) S 175 0 min 0,000 mm 0,0 UV-I 0 W/m 7,5 C 7,9 C 3,2 km/h (1 Bft) 100,00 %
26.10.2017 06:48 7,9 C 10,6 C 97 % 1025,6 hPa 0,0 l/m 2,7 km/h (1 Bft) S 180 0 min 0,000 mm 0,0 UV-I 0 W/m 7,5 C 7,9 C 6,4 km/h (2 Bft) 97,62 %
26.10.2017 06:50 7,9 C 10,6 C 97 % 1025,7 hPa 0,0 l/m 3,0 km/h (1 Bft) S 172 0 min 0,000 mm 0,0 UV-I 0 W/m 7,5 C 7,9 C 6,4 km/h (2 Bft) 100,00 %
26.10.2017 06:52 8,0 C 10,6 C 97 % 1025,7 hPa 0,0 l/m 2,1 km/h (1 Bft) S 170 0 min 0,000 mm 0,0 UV-I 0 W/m 7,6 C 8,0 C 3,2 km/h (1 Bft) 97,87 %
26.10.2017 06:54 8,0 C 10,6 C 97 % 1025,7 hPa 0,0 l/m 1,8 km/h (1 Bft) S 169 0 min 0,000 mm 0,0 UV-I 0 W/m 7,6 C 8,0 C 6,4 km/h (2 Bft) 98,00 %
26.10.2017 06:56 8,0 C 10,6 C 97 % 1025,7 hPa 0,0 l/m 1,2 km/h (1 Bft) S 170 0 min 0,000 mm 0,0 UV-I 0 W/m 7,6 C 8,0 C 3,2 km/h (1 Bft) 100,00 %
26.10.2017 06:58 8,1 C 10,6 C 97 % 1025,7 hPa 0,0 l/m 0,7 km/h (0 Bft) S 169 0 min 0,000 mm 0,0 UV-I 0 W/m 7,7 C 8,1 C 1,6 km/h (1 Bft) 100,00 %
26.10.2017 07:00 8,1 C 10,6 C 97 % 1025,7 hPa 0,0 l/m 0,2 km/h (0 Bft) S 170 0 min 0,000 mm 0,0 UV-I 0 W/m 7,7 C 8,1 C 1,6 km/h (1 Bft) 97,37 %
26.10.2017 07:02 8,1 C 10,6 C 97 % 1025,7 hPa 0,0 l/m 1,6 km/h (1 Bft) S 170 0 min 0,000 mm 0,0 UV-I 0 W/m 7,7 C 8,1 C 3,2 km/h (1 Bft) 100,00 %
26.10.2017 07:04 8,1 C 10,6 C 97 % 1025,7 hPa 0,0 l/m 1,9 km/h (1 Bft) S 170 0 min 0,000 mm 0,0 UV-I 0 W/m 7,7 C 8,1 C 3,2 km/h (1 Bft) 100,00 %
26.10.2017 07:06 8,1 C 10,6 C 97 % 1025,7 hPa 0,0 l/m 0,8 km/h (0 Bft) S 170 0 min 0,000 mm 0,0 UV-I 0 W/m 7,7 C 8,1 C 1,6 km/h (1 Bft) 100,00 %
26.10.2017 07:08 8,1 C 10,6 C 97 % 1025,7 hPa 0,0 l/m 0,3 km/h (0 Bft) S 170 0 min 0,000 mm 0,0 UV-I 0 W/m 7,7 C 8,1 C 1,6 km/h (1 Bft) 100,00 %
26.10.2017 07:10 8,1 C 10,6 C 97 % 1025,6 hPa 0,0 l/m 0,4 km/h (0 Bft) S 170 0 min 0,000 mm 0,0 UV-I 0 W/m 7,7 C 8,1 C 1,6 km/h (1 Bft) 100,00 %
26.10.2017 07:12 8,1 C 10,6 C 97 % 1025,6 hPa 0,0 l/m 1,7 km/h (1 Bft) S 170 0 min 0,000 mm 0,0 UV-I 0 W/m 7,7 C 8,1 C 3,2 km/h (1 Bft) 100,00 %
26.10.2017 07:14 8,1 C 10,6 C 97 % 1025,5 hPa 0,0 l/m 2,2 km/h (1 Bft) S 170 0 min 0,000 mm 0,0 UV-I 0 W/m 7,7 C 8,1 C 3,2 km/h (1 Bft) 100,00 %
26.10.2017 07:16 8,0 C 10,6 C 97 % 1025,5 hPa 0,0 l/m 0,8 km/h (0 Bft) S 170 0 min 0,000 mm 0,0 UV-I 0 W/m 7,6 C 8,0 C 3,2 km/h (1 Bft) 100,00 %
26.10.2017 07:18 8,0 C 10,6 C 97 % 1025,5 hPa 0,0 l/m 1,9 km/h (1 Bft) S 173 0 min 0,000 mm 0,0 UV-I 0 W/m 7,6 C 8,0 C 3,2 km/h (1 Bft) 97,37 %
26.10.2017 07:20 8,0 C 10,6 C 97 % 1025,5 hPa 0,0 l/m 1,5 km/h (1 Bft) S 173 0 min 0,000 mm 0,0 UV-I 0 W/m 7,6 C 8,0 C 3,2 km/h (1 Bft) 100,00 %
26.10.2017 07:22 8,0 C 10,6 C 97 % 1025,6 hPa 0,0 l/m 1,6 km/h (1 Bft) S 173 0 min 0,000 mm 0,0 UV-I 0 W/m 7,6 C 8,0 C 3,2 km/h (1 Bft) 95,74 %
26.10.2017 07:24 8,0 C 10,6 C 97 % 1025,6 hPa 0,0 l/m 1,9 km/h (1 Bft) S 173 0 min 0,000 mm 0,0 UV-I 0 W/m 7,6 C 8,0 C 3,2 km/h (1 Bft) 98,11 %
26.10.2017 07:26 8,0 C 10,6 C 97 % 1025,6 hPa 0,0 l/m 1,2 km/h (1 Bft) S 173 0 min 0,000 mm 0,0 UV-I 0 W/m 7,6 C 8,0 C 3,2 km/h (1 Bft) 97,44 %
26.10.2017 07:28 8,0 C 10,6 C 97 % 1025,7 hPa 0,0 l/m 2,1 km/h (1 Bft) S 173 0 min 0,000 mm 0,0 UV-I 0 W/m 7,6 C 8,0 C 3,2 km/h (1 Bft) 98,00 %
26.10.2017 07:30 8,0 C 10,6 C 97 % 1025,7 hPa 0,0 l/m 1,6 km/h (1 Bft) S 173 0 min 0,000 mm 0,0 UV-I 3 W/m 7,6 C 8,0 C 3,2 km/h (1 Bft) 93,62 %
26.10.2017 07:32 8,0 C 10,6 C 97 % 1025,6 hPa 0,0 l/m 1,5 km/h (1 Bft) S 173 0 min 0,000 mm 0,0 UV-I 5 W/m 7,6 C 8,0 C 3,2 km/h (1 Bft) 100,00 %
26.10.2017 07:34 7,9 C 10,6 C 97 % 1025,6 hPa 0,0 l/m 1,6 km/h (1 Bft) S 173 0 min 0,000 mm 0,0 UV-I 5 W/m 7,5 C 7,9 C 3,2 km/h (1 Bft) 96,00 %
26.10.2017 07:36 7,9 C 10,6 C 97 % 1025,6 hPa 0,0 l/m 0,9 km/h (0 Bft) S 173 0 min 0,000 mm 0,0 UV-I 5 W/m 7,5 C 7,9 C 3,2 km/h (1 Bft) 97,87 %
26.10.2017 07:38 7,9 C 10,6 C 97 % 1025,7 hPa 0,0 l/m 1,4 km/h (1 Bft) S 173 0 min 0,000 mm 0,0 UV-I 5 W/m 7,5 C 7,9 C 3,2 km/h (1 Bft) 96,43 %
26.10.2017 07:40 7,9 C 10,6 C 97 % 1025,7 hPa 0,0 l/m 2,2 km/h (1 Bft) S-SW 194 0 min 0,000 mm 0,0 UV-I 5 W/m 7,5 C 7,9 C 3,2 km/h (1 Bft) 93,62 %
26.10.2017 07:42 7,9 C 10,6 C 97 % 1025,7 hPa 0,0 l/m 0,3 km/h (0 Bft) S-SW 194 0 min 0,000 mm 0,0 UV-I 5 W/m 7,5 C 7,9 C 1,6 km/h (1 Bft) 97,87 %
26.10.2017 07:44 7,9 C 10,6 C 97 % 1025,7 hPa 0,0 l/m 0,0 km/h (0 Bft) S-SW 194 0 min 0,000 mm 0,0 UV-I 6 W/m 7,5 C 7,9 C 0,0 km/h (0 Bft) 97,37 %
26.10.2017 07:46 7,9 C 10,6 C 97 % 1025,7 hPa 0,0 l/m 0,4 km/h (0 Bft) S-SW 194 0 min 0,000 mm 0,0 UV-I 7 W/m 7,5 C 7,9 C 3,2 km/h (1 Bft) 97,87 %
26.10.2017 07:48 7,8 C 10,6 C 97 % 1025,7 hPa 0,0 l/m 1,1 km/h (1 Bft) S-SW 194 0 min 0,000 mm 0,0 UV-I 7 W/m 7,4 C 7,8 C 1,6 km/h (1 Bft) 95,74 %
26.10.2017 07:50 7,8 C 10,6 C 97 % 1025,7 hPa 0,0 l/m 2,1 km/h (1 Bft) S-SW 194 0 min 0,000 mm 0,0 UV-I 9 W/m 7,4 C 7,8 C 3,2 km/h (1 Bft) 96,00 %
26.10.2017 07:52 7,8 C 10,6 C 97 % 1025,7 hPa 0,0 l/m 0,1 km/h (0 Bft) S-SW 194 0 min 0,000 mm 0,0 UV-I 9 W/m 7,4 C 7,8 C 1,6 km/h (1 Bft) 97,56 %
26.10.2017 07:54 7,8 C 10,6 C 97 % 1025,7 hPa 0,0 l/m 0,0 km/h (0 Bft) S-SW 194 0 min 0,000 mm 0,0 UV-I 9 W/m 7,4 C 7,8 C 0,0 km/h (0 Bft) 98,11 %
26.10.2017 07:56 7,8 C 10,6 C 97 % 1025,6 hPa 0,0 l/m 0,4 km/h (0 Bft) S-SW 194 0 min 0,000 mm 0,0 UV-I 11 W/m 7,4 C 7,8 C 1,6 km/h (1 Bft) 97,56 %
26.10.2017 07:58 7,8 C 10,6 C 97 % 1025,6 hPa 0,0 l/m 0,0 km/h (0 Bft) S-SW 194 0 min 0,000 mm 0,0 UV-I 11 W/m 7,4 C 7,8 C 0,0 km/h (0 Bft) 100,00 %
26.10.2017 08:00 7,8 C 10,6 C 97 % 1025,6 hPa 0,0 l/m 0,0 km/h (0 Bft) S-SW 194 0 min 0,000 mm 0,0 UV-I 12 W/m 7,4 C 7,8 C 0,0 km/h (0 Bft) 97,87 %
26.10.2017 08:02 7,9 C 10,6 C 97 % 1025,6 hPa 0,0 l/m 0,0 km/h (0 Bft) S-SW 194 0 min 0,000 mm 0,0 UV-I 14 W/m 7,5 C 7,9 C 0,0 km/h (0 Bft) 100,00 %
26.10.2017 08:04 7,9 C 10,6 C 97 % 1025,6 hPa 0,0 l/m 0,0 km/h (0 Bft) S-SW 194 0 min 0,000 mm 0,0 UV-I 14 W/m 7,5 C 7,9 C 0,0 km/h (0 Bft) 100,00 %
26.10.2017 08:06 7,9 C 10,6 C 97 % 1025,6 hPa 0,0 l/m 0,9 km/h (0 Bft) S-SW 196 0 min 0,000 mm 0,0 UV-I 16 W/m 7,5 C 7,9 C 3,2 km/h (1 Bft) 98,44 %
26.10.2017 08:08 8,0 C 10,6 C 97 % 1025,6 hPa 0,0 l/m 3,1 km/h (1 Bft) S-SW 195 0 min 0,000 mm 0,0 UV-I 17 W/m 7,6 C 8,0 C 4,8 km/h (1 Bft) 97,92 %
26.10.2017 08:10 8,0 C 10,6 C 97 % 1025,6 hPa 0,0 l/m 1,8 km/h (1 Bft) S-SW 195 0 min 0,000 mm 0,0 UV-I 19 W/m 7,6 C 8,0 C 3,2 km/h (1 Bft) 100,00 %
26.10.2017 08:12 8,1 C 10,6 C 97 % 1025,6 hPa 0,0 l/m 2,1 km/h (1 Bft) S-SW 195 0 min 0,000 mm 0,0 UV-I 20 W/m 7,7 C 8,1 C 3,2 km/h (1 Bft) 100,00 %
26.10.2017 08:14 8,1 C 10,6 C 97 % 1025,6 hPa 0,0 l/m 2,3 km/h (1 Bft) S 190 0 min 0,000 mm 0,0 UV-I 23 W/m 7,7 C 8,1 C 4,8 km/h (1 Bft) 100,00 %
26.10.2017 08:16 8,1 C 10,6 C 97 % 1025,6 hPa 0,0 l/m 4,3 km/h (1 Bft) SO 138 0 min 0,000 mm 0,0 UV-I 25 W/m 7,7 C 8,1 C 6,4 km/h (2 Bft) 100,00 %
26.10.2017 08:18 8,0 C 10,6 C 97 % 1025,7 hPa 0,0 l/m 3,1 km/h (1 Bft) SO 138 0 min 0,000 mm 0,0 UV-I 27 W/m 7,6 C 8,0 C 4,8 km/h (1 Bft) 100,00 %
26.10.2017 08:20 8,0 C 10,0 C 97 % 1025,7 hPa 0,0 l/m 3,0 km/h (1 Bft) SO 138 0 min 0,000 mm 0,0 UV-I 28 W/m 7,6 C 8,0 C 4,8 km/h (1 Bft) 100,00 %
26.10.2017 08:22 8,0 C 10,6 C 97 % 1025,7 hPa 0,0 l/m 2,7 km/h (1 Bft) SO 138 0 min 0,000 mm 0,0 UV-I 30 W/m 7,6 C 8,0 C 3,2 km/h (1 Bft) 100,00 %
26.10.2017 08:24 8,1 C 10,0 C 97 % 1025,7 hPa 0,0 l/m 2,2 km/h (1 Bft) SO 138 0 min 0,000 mm 0,0 UV-I 30 W/m 7,7 C 8,1 C 3,2 km/h (1 Bft) 100,00 %
26.10.2017 08:26 8,1 C 10,0 C 97 % 1025,8 hPa 0,0 l/m 1,6 km/h (1 Bft) SO 138 0 min 0,000 mm 0,0 UV-I 30 W/m 7,7 C 8,1 C 3,2 km/h (1 Bft) 100,00 %
26.10.2017 08:28 8,2 C 10,0 C 97 % 1025,8 hPa 0,0 l/m 0,8 km/h (0 Bft) SO 138 0 min 0,000 mm 0,0 UV-I 32 W/m 7,8 C 8,2 C 3,2 km/h (1 Bft) 100,00 %
26.10.2017 08:30 8,2 C 10,0 C 97 % 1025,8 hPa 0,0 l/m 0,0 km/h (0 Bft) SO 138 0 min 0,000 mm 0,0 UV-I 35 W/m 7,8 C 8,2 C 0,0 km/h (0 Bft) 100,00 %
26.10.2017 08:32 8,2 C 10,6 C 97 % 1025,8 hPa 0,0 l/m 0,0 km/h (0 Bft) SO 138 0 min 0,000 mm 0,0 UV-I 44 W/m 7,8 C 8,2 C 0,0 km/h (0 Bft) 100,00 %
26.10.2017 08:34 8,2 C 10,6 C 97 % 1025,9 hPa 0,0 l/m 0,0 km/h (0 Bft) SO 138 0 min 0,000 mm 0,0 UV-I 47 W/m 7,8 C 8,2 C 0,0 km/h (0 Bft) 100,00 %
26.10.2017 08:36 8,3 C 10,6 C 97 % 1025,9 hPa 0,0 l/m 0,0 km/h (0 Bft) SO 138 0 min 0,000 mm 0,0 UV-I 45 W/m 7,9 C 8,3 C 0,0 km/h (0 Bft) 100,00 %
26.10.2017 08:38 8,4 C 10,6 C 97 % 1025,9 hPa 0,0 l/m 0,8 km/h (0 Bft) SO 138 0 min 0,000 mm 0,0 UV-I 45 W/m 8,0 C 8,4 C 1,6 km/h (1 Bft) 100,00 %
26.10.2017 08:40 8,4 C 10,6 C 97 % 1025,9 hPa 0,0 l/m 0,0 km/h (0 Bft) SO 138 0 min 0,000 mm 0,0 UV-I 50 W/m 8,0 C 8,4 C 1,6 km/h (1 Bft) 100,00 %
26.10.2017 08:42 8,5 C 10,6 C 97 % 1025,9 hPa 0,0 l/m 1,4 km/h (1 Bft) SO 138 0 min 0,000 mm 0,0 UV-I 53 W/m 8,1 C 8,5 C 3,2 km/h (1 Bft) 100,00 %
26.10.2017 08:44 8,6 C 10,6 C 97 % 1025,9 hPa 0,0 l/m 0,2 km/h (0 Bft) SO 138 0 min 0,000 mm 0,0 UV-I 42 W/m 8,2 C 8,6 C 1,6 km/h (1 Bft) 100,00 %
26.10.2017 08:46 8,7 C 10,6 C 97 % 1025,9 hPa 0,0 l/m 1,0 km/h (0 Bft) SO 138 0 min 0,000 mm 0,0 UV-I 39 W/m 8,3 C 8,7 C 3,2 km/h (1 Bft) 98,44 %
26.10.2017 08:48 8,7 C 10,6 C 97 % 1025,9 hPa 0,0 l/m 0,0 km/h (0 Bft) SO 138 0 min 0,000 mm 0,0 UV-I 38 W/m 8,3 C 8,7 C 0,0 km/h (0 Bft) 100,00 %
26.10.2017 08:50 8,7 C 10,6 C 97 % 1025,9 hPa 0,0 l/m 0,0 km/h (0 Bft) SO 138 0 min 0,000 mm 0,0 UV-I 42 W/m 8,3 C 8,7 C 0,0 km/h (0 Bft) 100,00 %
26.10.2017 08:52 8,8 C 10,6 C 97 % 1025,9 hPa 0,0 l/m 0,9 km/h (0 Bft) SO 138 0 min 0,000 mm 0,0 UV-I 43 W/m 8,4 C 8,8 C 1,6 km/h (1 Bft) 100,00 %
26.10.2017 08:54 8,9 C 10,6 C 97 % 1025,9 hPa 0,0 l/m 0,1 km/h (0 Bft) SO 138 0 min 0,000 mm 0,0 UV-I 42 W/m 8,4 C 8,9 C 1,6 km/h (1 Bft) 100,00 %
26.10.2017 08:56 9,0 C 10,6 C 97 % 1025,9 hPa 0,0 l/m 0,0 km/h (0 Bft) SO 138 0 min 0,000 mm 0,0 UV-I 46 W/m 8,5 C 9,0 C 0,0 km/h (0 Bft) 100,00 %
26.10.2017 08:58 9,1 C 10,6 C 97 % 1025,9 hPa 0,0 l/m 0,0 km/h (0 Bft) SO 138 0 min 0,000 mm 0,0 UV-I 52 W/m 8,6 C 9,1 C 0,0 km/h (0 Bft) 98,11 %
26.10.2017 09:00 9,1 C 10,6 C 97 % 1025,9 hPa 0,0 l/m 0,0 km/h (0 Bft) SO 138 0 min 0,025 mm 0,0 UV-I 48 W/m 8,6 C 9,1 C 0,0 km/h (0 Bft) 100,00 %
26.10.2017 09:02 9,2 C 10,6 C 97 % 1025,9 hPa 0,0 l/m 0,0 km/h (0 Bft) SO 138 0 min 0,000 mm 0,0 UV-I 51 W/m 8,7 C 9,2 C 0,0 km/h (0 Bft) 97,87 %
26.10.2017 09:04 9,2 C 10,6 C 97 % 1025,9 hPa 0,0 l/m 0,0 km/h (0 Bft) SO 138 0 min 0,000 mm 0,0 UV-I 55 W/m 8,7 C 9,2 C 0,0 km/h (0 Bft) 100,00 %
26.10.2017 09:06 9,3 C 10,6 C 97 % 1025,9 hPa 0,0 l/m 0,0 km/h (0 Bft) SO 138 0 min 0,000 mm 0,0 UV-I 56 W/m 8,8 C 9,3 C 0,0 km/h (0 Bft) 100,00 %
26.10.2017 09:08 9,4 C 10,6 C 97 % 1025,9 hPa 0,0 l/m 0,0 km/h (0 Bft) SO 138 0 min 0,000 mm 0,0 UV-I 53 W/m 8,9 C 9,4 C 0,0 km/h (0 Bft) 100,00 %
26.10.2017 09:10 9,4 C 10,6 C 97 % 1025,9 hPa 0,0 l/m 0,0 km/h (0 Bft) SO 138 0 min 0,000 mm 0,0 UV-I 53 W/m 8,9 C 9,4 C 0,0 km/h (0 Bft) 100,00 %
26.10.2017 09:12 9,5 C 10,6 C 97 % 1025,9 hPa 0,0 l/m 0,0 km/h (0 Bft) SO 138 0 min 0,000 mm 0,0 UV-I 57 W/m 9,0 C 9,5 C 0,0 km/h (0 Bft) 95,74 %
26.10.2017 09:14 9,6 C 10,6 C 97 % 1025,8 hPa 0,0 l/m 0,0 km/h (0 Bft) SO 138 0 min 0,000 mm 0,0 UV-I 54 W/m 9,1 C 9,6 C 0,0 km/h (0 Bft) 100,00 %
26.10.2017 09:16 9,6 C 10,6 C 97 % 1025,9 hPa 0,0 l/m 0,0 km/h (0 Bft) SO 138 0 min 0,000 mm 0,0 UV-I 51 W/m 9,1 C 9,6 C 0,0 km/h (0 Bft) 94,34 %
26.10.2017 09:18 9,6 C 10,6 C 97 % 1025,9 hPa 0,0 l/m 0,0 km/h (0 Bft) SO 138 0 min 0,000 mm 0,0 UV-I 51 W/m 9,1 C 9,6 C 0,0 km/h (0 Bft) 97,37 %
26.10.2017 09:20 9,6 C 10,6 C 97 % 1025,9 hPa 0,0 l/m 0,0 km/h (0 Bft) SO 138 0 min 0,000 mm 0,0 UV-I 50 W/m 9,1 C 9,6 C 0,0 km/h (0 Bft) 97,87 %
26.10.2017 09:22 9,6 C 10,6 C 96 % 1025,9 hPa 0,0 l/m 0,0 km/h (0 Bft) SO 138 0 min 0,000 mm 0,0 UV-I 46 W/m 9,0 C 9,6 C 0,0 km/h (0 Bft) 97,92 %
26.10.2017 09:24 9,7 C 10,6 C 96 % 1025,9 hPa 0,0 l/m 0,0 km/h (0 Bft) SO 138 0 min 0,000 mm 0,0 UV-I 46 W/m 9,1 C 9,7 C 0,0 km/h (0 Bft) 97,96 %
26.10.2017 09:26 9,7 C 10,6 C 97 % 1025,9 hPa 0,0 l/m 0,0 km/h (0 Bft) SO 138 0 min 0,000 mm 0,0 UV-I 46 W/m 9,2 C 9,7 C 0,0 km/h (0 Bft) 97,92 %
26.10.2017 09:28 9,7 C 10,6 C 96 % 1025,9 hPa 0,0 l/m 0,0 km/h (0 Bft) SO 138 0 min 0,000 mm 0,0 UV-I 44 W/m 9,1 C 9,7 C 0,0 km/h (0 Bft) 95,74 %
26.10.2017 09:30 9,7 C 10,6 C 96 % 1025,9 hPa 0,0 l/m 0,0 km/h (0 Bft) SO 138 0 min 0,000 mm 0,0 UV-I 42 W/m 9,1 C 9,7 C 0,0 km/h (0 Bft) 93,62 %
26.10.2017 09:32 9,8 C 10,6 C 96 % 1025,9 hPa 0,0 l/m 0,0 km/h (0 Bft) SO 138 0 min 0,000 mm 0,0 UV-I 41 W/m 9,2 C 9,8 C 0,0 km/h (0 Bft) 94,34 %
26.10.2017 09:34 9,8 C 10,6 C 96 % 1025,9 hPa 0,0 l/m 0,0 km/h (0 Bft) SO 138 0 min 0,000 mm 0,0 UV-I 41 W/m 9,2 C 9,8 C 0,0 km/h (0 Bft) 94,29 %
26.10.2017 09:36 9,8 C 10,6 C 96 % 1025,9 hPa 0,0 l/m 0,0 km/h (0 Bft) SO 138 0 min 0,000 mm 0,0 UV-I 38 W/m 9,2 C 9,8 C 0,0 km/h (0 Bft) 94,64 %
26.10.2017 09:38 9,9 C 10,6 C 96 % 1025,9 hPa 0,0 l/m 0,0 km/h (0 Bft) SO 138 0 min 0,000 mm 0,0 UV-I 36 W/m 9,3 C 9,9 C 0,0 km/h (0 Bft) 96,00 %
26.10.2017 09:40 9,9 C 10,6 C 96 % 1026,0 hPa 0,0 l/m 0,0 km/h (0 Bft) SO 138 0 min 0,000 mm 0,0 UV-I 38 W/m 9,3 C 9,9 C 0,0 km/h (0 Bft) 94,29 %
26.10.2017 09:42 9,8 C 10,6 C 96 % 1025,9 hPa 0,0 l/m 0,0 km/h (0 Bft) SO 138 0 min 0,000 mm 0,0 UV-I 40 W/m 9,2 C 9,8 C 0,0 km/h (0 Bft) 96,23 %
26.10.2017 09:44 9,8 C 10,6 C 96 % 1025,9 hPa 0,0 l/m 0,0 km/h (0 Bft) SO 138 0 min 0,000 mm 0,0 UV-I 48 W/m 9,2 C 9,8 C 0,0 km/h (0 Bft) 95,74 %
26.10.2017 09:46 9,8 C 10,6 C 96 % 1025,9 hPa 0,0 l/m 0,0 km/h (0 Bft) SO 138 0 min 0,000 mm 0,0 UV-I 49 W/m 9,2 C 9,8 C 0,0 km/h (0 Bft) 96,00 %
26.10.2017 09:48 9,8 C 10,6 C 96 % 1025,9 hPa 0,0 l/m 0,0 km/h (0 Bft) SO 138 0 min 0,000 mm 0,0 UV-I 60 W/m 9,2 C 9,8 C 0,0 km/h (0 Bft) 94,74 %
26.10.2017 09:50 9,8 C 10,6 C 96 % 1025,9 hPa 0,0 l/m 0,1 km/h (0 Bft) SO 138 0 min 0,000 mm 0,0 UV-I 69 W/m 9,2 C 9,8 C 1,6 km/h (1 Bft) 94,00 %
26.10.2017 09:52 9,9 C 10,6 C 96 % 1025,9 hPa 0,0 l/m 0,7 km/h (0 Bft) SO 138 0 min 0,000 mm 0,0 UV-I 60 W/m 9,3 C 9,9 C 1,6 km/h (1 Bft) 96,23 %
26.10.2017 09:54 9,9 C 10,6 C 96 % 1025,8 hPa 0,0 l/m 0,8 km/h (0 Bft) SO 138 0 min 0,000 mm 0,0 UV-I 66 W/m 9,3 C 9,9 C 3,2 km/h (1 Bft) 94,74 %
26.10.2017 09:56 9,9 C 10,6 C 96 % 1025,8 hPa 0,0 l/m 0,2 km/h (0 Bft) SO 138 0 min 0,000 mm 0,0 UV-I 73 W/m 9,3 C 9,9 C 1,6 km/h (1 Bft) 96,23 %
26.10.2017 09:58 10,1 C 10,6 C 96 % 1025,8 hPa 0,0 l/m 1,5 km/h (1 Bft) SO 138 0 min 0,000 mm 0,0 UV-I 72 W/m 9,5 C 10,1 C 3,2 km/h (1 Bft) 92,00 %
26.10.2017 10:00 10,1 C 10,6 C 96 % 1025,8 hPa 0,0 l/m 2,3 km/h (1 Bft) S-SO 147 0 min 0,026 mm 0,0 UV-I 73 W/m 9,5 C 10,1 C 4,8 km/h (1 Bft) 95,83 %
26.10.2017 10:02 10,2 C 10,6 C 96 % 1025,7 hPa 0,0 l/m 2,8 km/h (1 Bft) S-SO 166 0 min 0,000 mm 0,0 UV-I 68 W/m 9,6 C 10,2 C 6,4 km/h (2 Bft) 97,01 %
26.10.2017 10:04 10,3 C 10,6 C 96 % 1025,8 hPa 0,0 l/m 1,9 km/h (1 Bft) S-SO 166 0 min 0,000 mm 0,0 UV-I 68 W/m 9,7 C 10,3 C 6,4 km/h (2 Bft) 97,87 %
26.10.2017 10:06 10,3 C 10,6 C 96 % 1025,7 hPa 0,0 l/m 1,0 km/h (0 Bft) S-SO 166 0 min 0,000 mm 0,0 UV-I 68 W/m 9,7 C 10,3 C 1,6 km/h (1 Bft) 95,74 %
26.10.2017 10:08 10,4 C 10,6 C 96 % 1025,8 hPa 0,0 l/m 0,9 km/h (0 Bft) S-SO 166 0 min 0,000 mm 0,0 UV-I 70 W/m 9,8 C 10,4 C 1,6 km/h (1 Bft) 97,44 %
26.10.2017 10:10 10,4 C 10,6 C 96 % 1025,7 hPa 0,0 l/m 0,7 km/h (0 Bft) S-SO 166 0 min 0,000 mm 0,0 UV-I 74 W/m 9,8 C 10,4 C 1,6 km/h (1 Bft) 98,11 %
26.10.2017 10:12 10,4 C 10,6 C 96 % 1025,7 hPa 0,0 l/m 0,9 km/h (0 Bft) S-SO 166 0 min 0,000 mm 0,0 UV-I 79 W/m 9,8 C 10,4 C 4,8 km/h (1 Bft) 97,56 %
26.10.2017 10:14 10,6 C 10,6 C 96 % 1025,7 hPa 0,0 l/m 1,4 km/h (1 Bft) S-SO 166 0 min 0,000 mm 0,0 UV-I 86 W/m 10,0 C 10,6 C 4,8 km/h (1 Bft) 95,74 %
26.10.2017 10:16 10,6 C 10,6 C 96 % 1025,8 hPa 0,0 l/m 2,9 km/h (1 Bft) S 182 0 min 0,000 mm 0,0 UV-I 96 W/m 10,0 C 10,6 C 6,4 km/h (2 Bft) 96,00 %
26.10.2017 10:18 10,7 C 10,6 C 96 % 1025,8 hPa 0,0 l/m 0,3 km/h (0 Bft) S 182 0 min 0,000 mm 0,0 UV-I 104 W/m 10,1 C 10,7 C 1,6 km/h (1 Bft) 100,00 %
26.10.2017 10:20 10,7 C 10,6 C 95 % 1025,8 hPa 0,0 l/m 0,3 km/h (0 Bft) S 182 0 min 0,000 mm 0,0 UV-I 110 W/m 9,9 C 10,7 C 1,6 km/h (1 Bft) 98,00 %
26.10.2017 10:22 10,8 C 10,6 C 95 % 1025,7 hPa 0,0 l/m 0,0 km/h (0 Bft) S 182 0 min 0,000 mm 0,0 UV-I 113 W/m 10,0 C 10,8 C 0,0 km/h (0 Bft) 97,37 %
26.10.2017 10:24 10,9 C 10,6 C 95 % 1025,7 hPa 0,0 l/m 0,0 km/h (0 Bft) S 182 0 min 0,000 mm 0,0 UV-I 110 W/m 10,1 C 10,9 C 0,0 km/h (0 Bft) 100,00 %
26.10.2017 10:26 11,0 C 10,6 C 95 % 1025,7 hPa 0,0 l/m 0,0 km/h (0 Bft) S 182 0 min 0,000 mm 0,0 UV-I 92 W/m 10,2 C 11,0 C 1,6 km/h (1 Bft) 98,04 %
26.10.2017 10:28 11,0 C 10,6 C 94 % 1025,6 hPa 0,0 l/m 0,4 km/h (0 Bft) S 182 0 min 0,000 mm 0,0 UV-I 90 W/m 10,1 C 11,0 C 1,6 km/h (1 Bft) 100,00 %
26.10.2017 10:30 11,1 C 10,6 C 94 % 1025,6 hPa 0,0 l/m 0,4 km/h (0 Bft) S 182 0 min 0,000 mm 0,0 UV-I 115 W/m 10,2 C 11,1 C 1,6 km/h (1 Bft) 100,00 %
26.10.2017 10:32 11,1 C 10,6 C 94 % 1025,6 hPa 0,0 l/m 0,0 km/h (0 Bft) S 182 0 min 0,000 mm 0,1 UV-I 109 W/m 10,2 C 11,1 C 0,0 km/h (0 Bft) 100,00 %
26.10.2017 10:34 11,2 C 10,6 C 94 % 1025,6 hPa 0,0 l/m 0,5 km/h (0 Bft) S 182 0 min 0,000 mm 0,5 UV-I 107 W/m 10,3 C 11,2 C 1,6 km/h (1 Bft) 100,00 %
26.10.2017 10:36 11,2 C 10,6 C 94 % 1025,5 hPa 0,0 l/m 0,7 km/h (0 Bft) S 182 0 min 0,000 mm 0,5 UV-I 129 W/m 10,3 C 11,2 C 3,2 km/h (1 Bft) 97,37 %
26.10.2017 10:38 11,2 C 10,6 C 94 % 1025,6 hPa 0,0 l/m 0,0 km/h (0 Bft) S 182 0 min 0,000 mm 0,6 UV-I 162 W/m 10,3 C 11,2 C 0,0 km/h (0 Bft) 100,00 %
26.10.2017 10:40 11,2 C 10,6 C 93 % 1025,6 hPa 0,0 l/m 0,9 km/h (0 Bft) S 182 0 min 0,000 mm 0,6 UV-I 172 W/m 10,1 C 11,2 C 3,2 km/h (1 Bft) 100,00 %
26.10.2017 10:42 11,3 C 10,6 C 93 % 1025,6 hPa 0,0 l/m 1,2 km/h (1 Bft) S 182 0 min 0,000 mm 0,6 UV-I 171 W/m 10,2 C 11,3 C 3,2 km/h (1 Bft) 97,87 %
26.10.2017 10:44 11,3 C 10,6 C 93 % 1025,6 hPa 0,0 l/m 0,1 km/h (0 Bft) S 182 0 min 0,000 mm 0,6 UV-I 170 W/m 10,2 C 11,3 C 1,6 km/h (1 Bft) 100,00 %
26.10.2017 10:46 11,4 C 10,6 C 93 % 1025,6 hPa 0,0 l/m 0,7 km/h (0 Bft) S 182 0 min 0,000 mm 0,6 UV-I 173 W/m 10,3 C 11,4 C 3,2 km/h (1 Bft) 100,00 %
26.10.2017 10:48 11,5 C 10,6 C 93 % 1025,5 hPa 0,0 l/m 0,0 km/h (0 Bft) S 182 0 min 0,000 mm 0,6 UV-I 166 W/m 10,4 C 11,5 C 1,6 km/h (1 Bft) 97,87 %
26.10.2017 10:50 11,6 C 10,6 C 93 % 1025,5 hPa 0,0 l/m 0,0 km/h (0 Bft) S 182 0 min 0,000 mm 0,7 UV-I 187 W/m 10,5 C 11,6 C 1,6 km/h (1 Bft) 100,00 %
26.10.2017 10:52 11,7 C 10,6 C 92 % 1025,5 hPa 0,0 l/m 2,6 km/h (1 Bft) S 182 0 min 0,000 mm 0,8 UV-I 203 W/m 10,4 C 11,7 C 4,8 km/h (1 Bft) 100,00 %
26.10.2017 10:54 11,7 C 10,6 C 92 % 1025,5 hPa 0,0 l/m 0,2 km/h (0 Bft) S 182 2 min 0,000 mm 0,9 UV-I 234 W/m 10,4 C 11,7 C 1,6 km/h (1 Bft) 100,00 %
26.10.2017 10:56 11,8 C 10,6 C 92 % 1025,5 hPa 0,0 l/m 1,0 km/h (0 Bft) S 182 2 min 0,000 mm 1,0 UV-I 316 W/m 10,5 C 11,8 C 3,2 km/h (1 Bft) 100,00 %
26.10.2017 10:58 12,0 C 10,6 C 92 % 1025,5 hPa 0,0 l/m 1,5 km/h (1 Bft) S 182 2 min 0,000 mm 1,0 UV-I 399 W/m 10,7 C 12,0 C 3,2 km/h (1 Bft) 100,00 %
26.10.2017 11:00 12,2 C 10,6 C 92 % 1025,5 hPa 0,0 l/m 2,9 km/h (1 Bft) S 182 2 min 0,076 mm 1,0 UV-I 366 W/m 10,9 C 12,2 C 4,8 km/h (1 Bft) 100,00 %
26.10.2017 11:02 12,3 C 10,6 C 91 % 1025,5 hPa 0,0 l/m 3,0 km/h (1 Bft) SW 223 2 min 0,000 mm 1,0 UV-I 306 W/m 10,9 C 12,3 C 6,4 km/h (2 Bft) 100,00 %
26.10.2017 11:04 12,3 C 10,6 C 90 % 1025,5 hPa 0,0 l/m 3,0 km/h (1 Bft) W-SW 240 2 min 0,000 mm 1,0 UV-I 298 W/m 10,7 C 12,3 C 6,4 km/h (2 Bft) 100,00 %
26.10.2017 11:06 12,3 C 10,6 C 90 % 1025,5 hPa 0,0 l/m 3,1 km/h (1 Bft) W-SW 240 2 min 0,000 mm 1,0 UV-I 294 W/m 10,7 C 12,3 C 4,8 km/h (1 Bft) 97,37 %
26.10.2017 11:08 12,4 C 10,6 C 90 % 1025,5 hPa 0,0 l/m 2,7 km/h (1 Bft) W-SW 240 2 min 0,000 mm 1,0 UV-I 267 W/m 10,8 C 12,4 C 4,8 km/h (1 Bft) 100,00 %
26.10.2017 11:10 12,6 C 10,6 C 90 % 1025,5 hPa 0,0 l/m 3,5 km/h (1 Bft) W-SW 240 2 min 0,000 mm 1,0 UV-I 261 W/m 11,0 C 12,6 C 4,8 km/h (1 Bft) 100,00 %
26.10.2017 11:12 12,6 C 10,6 C 91 % 1025,5 hPa 0,0 l/m 3,5 km/h (1 Bft) S-SW 212 2 min 0,000 mm 1,0 UV-I 262 W/m 11,2 C 12,6 C 8,0 km/h (2 Bft) 98,21 %
26.10.2017 11:14 12,7 C 10,6 C 90 % 1025,5 hPa 0,0 l/m 3,0 km/h (1 Bft) SW 231 2 min 0,000 mm 1,0 UV-I 269 W/m 11,1 C 12,7 C 4,8 km/h (1 Bft) 100,00 %
26.10.2017 11:16 12,7 C 10,6 C 90 % 1025,5 hPa 0,0 l/m 2,8 km/h (1 Bft) SW 232 2 min 0,000 mm 1,1 UV-I 301 W/m 11,1 C 12,7 C 4,8 km/h (1 Bft) 100,00 %
26.10.2017 11:18 12,8 C 10,6 C 90 % 1025,5 hPa 0,0 l/m 0,6 km/h (0 Bft) SW 232 2 min 0,000 mm 1,2 UV-I 326 W/m 11,2 C 12,8 C 3,2 km/h (1 Bft) 100,00 %
26.10.2017 11:20 12,9 C 10,6 C 89 % 1025,5 hPa 0,0 l/m 1,9 km/h (1 Bft) SW 233 2 min 0,000 mm 1,3 UV-I 338 W/m 11,1 C 12,9 C 4,8 km/h (1 Bft) 100,00 %
26.10.2017 11:22 13,1 C 10,6 C 89 % 1025,4 hPa 0,0 l/m 0,4 km/h (0 Bft) SW 233 2 min 0,000 mm 1,3 UV-I 395 W/m 11,3 C 13,1 C 3,2 km/h (1 Bft) 100,00 %
26.10.2017 11:24 13,1 C 10,6 C 88 % 1025,4 hPa 0,0 l/m 2,0 km/h (1 Bft) SW 236 2 min 0,000 mm 1,4 UV-I 418 W/m 11,2 C 13,1 C 4,8 km/h (1 Bft) 96,00 %
26.10.2017 11:26 13,3 C 10,6 C 89 % 1025,3 hPa 0,0 l/m 0,7 km/h (0 Bft) SW 236 2 min 0,000 mm 1,4 UV-I 419 W/m 11,5 C 13,3 C 3,2 km/h (1 Bft) 100,00 %
26.10.2017 11:28 13,3 C 10,6 C 89 % 1025,3 hPa 0,0 l/m 2,5 km/h (1 Bft) W-NW 288 2 min 0,000 mm 1,4 UV-I 439 W/m 11,5 C 13,3 C 4,8 km/h (1 Bft) 100,00 %
26.10.2017 11:30 13,4 C 10,6 C 88 % 1025,3 hPa 0,0 l/m 1,7 km/h (1 Bft) W-NW 288 2 min 0,000 mm 1,4 UV-I 443 W/m 11,5 C 13,4 C 3,2 km/h (1 Bft) 97,87 %
26.10.2017 11:32 13,4 C 10,6 C 88 % 1025,4 hPa 0,0 l/m 0,0 km/h (0 Bft) W-NW 288 2 min 0,000 mm 1,5 UV-I 445 W/m 11,5 C 13,4 C 1,6 km/h (1 Bft) 96,00 %
26.10.2017 11:34 13,6 C 10,6 C 88 % 1025,4 hPa 0,0 l/m 3,5 km/h (1 Bft) W-NW 286 2 min 0,000 mm 1,5 UV-I 446 W/m 11,6 C 13,6 C 9,7 km/h (2 Bft) 97,87 %
26.10.2017 11:36 13,6 C 10,6 C 87 % 1025,4 hPa 0,0 l/m 3,6 km/h (1 Bft) W-SW 257 2 min 0,000 mm 1,5 UV-I 448 W/m 11,5 C 13,6 C 6,4 km/h (2 Bft) 97,56 %
26.10.2017 11:38 13,6 C 10,6 C 88 % 1025,3 hPa 0,0 l/m 0,7 km/h (0 Bft) W 269 2 min 0,000 mm 1,5 UV-I 431 W/m 11,6 C 13,6 C 3,2 km/h (1 Bft) 97,87 %
26.10.2017 11:40 13,7 C 10,6 C 88 % 1025,4 hPa 0,0 l/m 2,2 km/h (1 Bft) N-NW 328 2 min 0,000 mm 1,5 UV-I 367 W/m 11,7 C 13,7 C 3,2 km/h (1 Bft) 97,87 %
26.10.2017 11:42 13,7 C 10,6 C 88 % 1025,4 hPa 0,0 l/m 2,0 km/h (1 Bft) N-NW 329 2 min 0,000 mm 1,5 UV-I 444 W/m 11,7 C 13,7 C 3,2 km/h (1 Bft) 98,00 %
26.10.2017 11:44 13,8 C 10,6 C 88 % 1025,3 hPa 0,0 l/m 1,1 km/h (1 Bft) NW 309 2 min 0,000 mm 1,5 UV-I 392 W/m 11,8 C 13,8 C 3,2 km/h (1 Bft) 98,11 %
26.10.2017 11:46 13,8 C 10,6 C 87 % 1025,4 hPa 0,0 l/m 1,7 km/h (1 Bft) NW 309 2 min 0,000 mm 1,5 UV-I 392 W/m 11,7 C 13,8 C 3,2 km/h (1 Bft) 94,29 %
26.10.2017 11:48 13,7 C 10,6 C 87 % 1025,3 hPa 0,0 l/m 0,0 km/h (0 Bft) NW 309 2 min 0,000 mm 1,6 UV-I 442 W/m 11,6 C 13,7 C 1,6 km/h (1 Bft) 96,00 %
26.10.2017 11:50 13,8 C 10,6 C 88 % 1025,4 hPa 0,0 l/m 0,7 km/h (0 Bft) NW 325 2 min 0,000 mm 1,6 UV-I 425 W/m 11,8 C 13,8 C 4,8 km/h (1 Bft) 94,34 %
26.10.2017 11:52 13,9 C 10,6 C 87 % 1025,3 hPa 0,0 l/m 2,8 km/h (1 Bft) NW 325 2 min 0,000 mm 1,7 UV-I 465 W/m 11,8 C 13,9 C 4,8 km/h (1 Bft) 100,00 %
26.10.2017 11:54 14,0 C 10,6 C 88 % 1025,3 hPa 0,0 l/m 0,2 km/h (0 Bft) NW 325 2 min 0,000 mm 1,7 UV-I 471 W/m 12,0 C 14,0 C 1,6 km/h (1 Bft) 96,23 %
26.10.2017 11:56 14,2 C 10,6 C 86 % 1025,3 hPa 0,0 l/m 1,1 km/h (1 Bft) W 273 2 min 0,000 mm 1,7 UV-I 460 W/m 11,9 C 14,2 C 4,8 km/h (1 Bft) 97,87 %
26.10.2017 11:58 14,3 C 10,6 C 87 % 1025,2 hPa 0,0 l/m 1,2 km/h (1 Bft) W 273 2 min 0,000 mm 1,7 UV-I 477 W/m 12,2 C 14,3 C 4,8 km/h (1 Bft) 98,00 %
26.10.2017 12:00 14,5 C 10,6 C 85 % 1025,2 hPa 0,0 l/m 2,9 km/h (1 Bft) W 275 2 min 0,203 mm 1,7 UV-I 481 W/m 12,0 C 14,5 C 4,8 km/h (1 Bft) 97,22 %
26.10.2017 12:02 14,4 C 10,6 C 84 % 1025,2 hPa 0,0 l/m 0,9 km/h (0 Bft) W 275 2 min 0,000 mm 1,7 UV-I 480 W/m 11,7 C 14,4 C 1,6 km/h (1 Bft) 94,74 %
26.10.2017 12:08 14,9 C 10,6 C 86 % 1025,1 hPa 0,0 l/m 0,4 km/h (0 Bft) W 275 6 min 0,000 mm 1,8 UV-I 485 W/m 12,6 C 14,9 C 1,6 km/h (1 Bft) 99,35 %
26.10.2017 12:10 15,0 C 10,6 C 85 % 1025,1 hPa 0,0 l/m 0,7 km/h (0 Bft) W-NW 301 2 min 0,000 mm 1,8 UV-I 465 W/m 12,5 C 15,0 C 1,6 km/h (1 Bft) 97,87 %
26.10.2017 12:12 15,0 C 10,6 C 84 % 1025,0 hPa 0,0 l/m 2,3 km/h (1 Bft) W-NW 286 2 min 0,000 mm 1,8 UV-I 480 W/m 12,3 C 15,0 C 4,8 km/h (1 Bft) 100,00 %
26.10.2017 12:14 15,0 C 10,6 C 84 % 1025,0 hPa 0,0 l/m 1,1 km/h (1 Bft) W-NW 291 2 min 0,000 mm 1,8 UV-I 478 W/m 12,3 C 15,0 C 3,2 km/h (1 Bft) 100,00 %
26.10.2017 12:16 15,0 C 10,6 C 84 % 1025,0 hPa 0,0 l/m 2,7 km/h (1 Bft) N-NW 345 2 min 0,000 mm 1,8 UV-I 489 W/m 12,3 C 15,0 C 4,8 km/h (1 Bft) 100,00 %
26.10.2017 12:18 15,1 C 10,6 C 84 % 1024,9 hPa 0,0 l/m 0,2 km/h (0 Bft) N-NW 345 2 min 0,000 mm 1,8 UV-I 508 W/m 12,4 C 15,1 C 1,6 km/h (1 Bft) 100,00 %
26.10.2017 12:20 15,3 C 10,6 C 84 % 1024,9 hPa 0,0 l/m 1,9 km/h (1 Bft) W 279 2 min 0,000 mm 1,9 UV-I 526 W/m 12,6 C 15,3 C 4,8 km/h (1 Bft) 98,00 %
26.10.2017 12:22 15,3 C 10,6 C 83 % 1024,9 hPa 0,0 l/m 3,5 km/h (1 Bft) W 259 2 min 0,000 mm 1,9 UV-I 515 W/m 12,4 C 15,3 C 9,7 km/h (2 Bft) 97,87 %
26.10.2017 12:24 15,4 C 10,6 C 82 % 1024,9 hPa 0,0 l/m 6,8 km/h (2 Bft) W-SW 245 2 min 0,000 mm 1,8 UV-I 499 W/m 12,3 C 15,2 C 11,3 km/h (2 Bft) 97,56 %
26.10.2017 12:26 15,3 C 10,6 C 82 % 1024,9 hPa 0,0 l/m 5,5 km/h (1 Bft) SW 221 2 min 0,000 mm 1,8 UV-I 488 W/m 12,2 C 15,3 C 8,0 km/h (2 Bft) 100,00 %
26.10.2017 12:28 15,4 C 10,6 C 83 % 1024,9 hPa 0,0 l/m 2,4 km/h (1 Bft) W-NW 292 2 min 0,000 mm 1,8 UV-I 492 W/m 12,5 C 15,4 C 6,4 km/h (2 Bft) 97,56 %
26.10.2017 12:30 15,3 C 10,6 C 81 % 1024,9 hPa 0,0 l/m 4,3 km/h (1 Bft) W-SW 250 2 min 0,000 mm 1,8 UV-I 498 W/m 12,1 C 15,3 C 8,0 km/h (2 Bft) 100,00 %
26.10.2017 12:32 15,3 C 10,6 C 83 % 1024,9 hPa 0,0 l/m 3,8 km/h (1 Bft) W-SW 248 2 min 0,000 mm 1,8 UV-I 514 W/m 12,4 C 15,3 C 8,0 km/h (2 Bft) 100,00 %
26.10.2017 12:34 15,2 C 10,6 C 82 % 1024,8 hPa 0,0 l/m 3,9 km/h (1 Bft) W-NW 292 2 min 0,000 mm 1,9 UV-I 516 W/m 12,1 C 15,2 C 9,7 km/h (2 Bft) 100,00 %
26.10.2017 12:36 15,3 C 10,6 C 83 % 1024,7 hPa 0,0 l/m 3,1 km/h (1 Bft) W-SW 254 2 min 0,000 mm 1,9 UV-I 520 W/m 12,4 C 15,3 C 6,4 km/h (2 Bft) 100,00 %
26.10.2017 12:38 15,4 C 10,6 C 83 % 1024,7 hPa 0,0 l/m 3,3 km/h (1 Bft) W 281 2 min 0,000 mm 1,9 UV-I 553 W/m 12,5 C 15,4 C 8,0 km/h (2 Bft) 100,00 %
26.10.2017 12:40 15,5 C 10,6 C 82 % 1024,7 hPa 0,0 l/m 3,9 km/h (1 Bft) W 264 2 min 0,000 mm 1,9 UV-I 555 W/m 12,4 C 15,5 C 6,4 km/h (2 Bft) 100,00 %
26.10.2017 12:42 15,6 C 10,6 C 82 % 1024,7 hPa 0,0 l/m 4,4 km/h (1 Bft) SW 232 2 min 0,000 mm 1,9 UV-I 563 W/m 12,5 C 15,6 C 6,4 km/h (2 Bft) 100,00 %
26.10.2017 12:44 15,8 C 10,6 C 81 % 1024,7 hPa 0,0 l/m 3,2 km/h (1 Bft) N-NW 345 2 min 0,000 mm 1,9 UV-I 571 W/m 12,5 C 15,8 C 6,4 km/h (2 Bft) 100,00 %
26.10.2017 12:46 16,1 C 10,6 C 82 % 1024,7 hPa 0,0 l/m 3,5 km/h (1 Bft) SW 227 2 min 0,000 mm 1,9 UV-I 580 W/m 13,0 C 16,1 C 11,3 km/h (2 Bft) 97,14 %
26.10.2017 12:48 16,2 C 10,6 C 80 % 1024,6 hPa 0,0 l/m 4,3 km/h (1 Bft) NW 306 2 min 0,000 mm 1,9 UV-I 540 W/m 12,7 C 16,2 C 9,7 km/h (2 Bft) 100,00 %
26.10.2017 12:50 16,1 C 10,6 C 80 % 1024,6 hPa 0,0 l/m 4,9 km/h (1 Bft) W-NW 285 2 min 0,000 mm 1,8 UV-I 508 W/m 12,6 C 16,1 C 11,3 km/h (2 Bft) 100,00 %
26.10.2017 12:52 16,2 C 10,6 C 80 % 1024,5 hPa 0,0 l/m 2,3 km/h (1 Bft) SW 229 2 min 0,000 mm 1,9 UV-I 515 W/m 12,7 C 16,2 C 6,4 km/h (2 Bft) 100,00 %
26.10.2017 12:54 16,3 C 10,6 C 80 % 1024,4 hPa 0,0 l/m 4,1 km/h (1 Bft) W 265 2 min 0,000 mm 1,9 UV-I 517 W/m 12,8 C 16,3 C 8,0 km/h (2 Bft) 100,00 %
26.10.2017 12:56 16,3 C 10,6 C 80 % 1024,4 hPa 0,0 l/m 5,5 km/h (1 Bft) SW 232 2 min 0,000 mm 1,9 UV-I 506 W/m 12,8 C 16,3 C 12,9 km/h (3 Bft) 100,00 %
26.10.2017 12:58 16,4 C 10,6 C 80 % 1024,4 hPa 0,0 l/m 6,2 km/h (2 Bft) W-SW 257 2 min 0,000 mm 1,9 UV-I 526 W/m 12,9 C 16,4 C 12,9 km/h (3 Bft) 100,00 %
26.10.2017 13:00 16,3 C 10,6 C 79 % 1024,4 hPa 0,0 l/m 6,6 km/h (2 Bft) W 265 2 min 0,280 mm 1,9 UV-I 561 W/m 12,6 C 16,2 C 12,9 km/h (3 Bft) 100,00 %
26.10.2017 13:02 16,2 C 10,6 C 80 % 1024,3 hPa 0,0 l/m 5,1 km/h (1 Bft) W-NW 294 2 min 0,000 mm 1,9 UV-I 551 W/m 12,7 C 16,2 C 8,0 km/h (2 Bft) 97,56 %
26.10.2017 13:04 16,2 C 10,6 C 81 % 1024,3 hPa 0,0 l/m 1,2 km/h (1 Bft) S-SW 212 2 min 0,000 mm 1,8 UV-I 529 W/m 12,9 C 16,2 C 6,4 km/h (2 Bft) 100,00 %
26.10.2017 13:06 16,3 C 10,6 C 81 % 1024,3 hPa 0,0 l/m 5,5 km/h (1 Bft) S-SW 205 2 min 0,000 mm 1,7 UV-I 505 W/m 13,0 C 16,3 C 8,0 km/h (2 Bft) 100,00 %
26.10.2017 13:08 16,4 C 10,6 C 81 % 1024,3 hPa 0,0 l/m 3,3 km/h (1 Bft) N-NW 342 2 min 0,000 mm 1,6 UV-I 435 W/m 13,1 C 16,4 C 8,0 km/h (2 Bft) 100,00 %
26.10.2017 13:10 16,5 C 10,6 C 81 % 1024,2 hPa 0,0 l/m 3,0 km/h (1 Bft) S 185 2 min 0,000 mm 1,6 UV-I 416 W/m 13,2 C 16,5 C 6,4 km/h (2 Bft) 100,00 %
26.10.2017 13:12 16,4 C 10,6 C 79 % 1024,2 hPa 0,0 l/m 1,5 km/h (1 Bft) W-NW 298 2 min 0,000 mm 1,6 UV-I 406 W/m 12,7 C 16,4 C 4,8 km/h (1 Bft) 100,00 %
26.10.2017 13:14 16,4 C 10,6 C 80 % 1024,2 hPa 0,0 l/m 4,1 km/h (1 Bft) W-NW 303 2 min 0,000 mm 1,6 UV-I 482 W/m 12,9 C 16,4 C 8,0 km/h (2 Bft) 100,00 %
26.10.2017 13:16 16,4 C 10,6 C 81 % 1024,1 hPa 0,0 l/m 3,5 km/h (1 Bft) W-NW 292 2 min 0,000 mm 1,6 UV-I 444 W/m 13,1 C 16,4 C 9,7 km/h (2 Bft) 100,00 %
26.10.2017 13:18 16,4 C 10,6 C 80 % 1024,0 hPa 0,0 l/m 4,5 km/h (1 Bft) W 276 2 min 0,000 mm 1,6 UV-I 450 W/m 12,9 C 16,4 C 8,0 km/h (2 Bft) 97,87 %
26.10.2017 13:20 16,4 C 10,6 C 80 % 1024,0 hPa 0,0 l/m 4,0 km/h (1 Bft) NW 307 2 min 0,000 mm 1,4 UV-I 408 W/m 12,9 C 16,4 C 9,7 km/h (2 Bft) 96,00 %
26.10.2017 13:22 16,4 C 10,6 C 79 % 1024,0 hPa 0,0 l/m 6,0 km/h (2 Bft) NW 325 2 min 0,000 mm 1,3 UV-I 344 W/m 12,7 C 16,4 C 11,3 km/h (2 Bft) 98,08 %
26.10.2017 13:24 16,3 C 10,6 C 81 % 1024,0 hPa 0,0 l/m 3,4 km/h (1 Bft) NW 318 2 min 0,000 mm 1,3 UV-I 316 W/m 13,0 C 16,3 C 8,0 km/h (2 Bft) 97,62 %
26.10.2017 13:26 16,2 C 10,6 C 81 % 1023,9 hPa 0,0 l/m 3,4 km/h (1 Bft) N-NW 346 2 min 0,000 mm 1,2 UV-I 306 W/m 12,9 C 16,2 C 8,0 km/h (2 Bft) 97,87 %
26.10.2017 13:28 16,1 C 10,6 C 82 % 1023,9 hPa 0,0 l/m 1,9 km/h (1 Bft) N-NO 21 0 min 0,000 mm 1,1 UV-I 203 W/m 13,0 C 16,1 C 4,8 km/h (1 Bft) 98,11 %
26.10.2017 13:30 16,1 C 10,6 C 82 % 1023,9 hPa 0,0 l/m 2,7 km/h (1 Bft) NW 306 0 min 0,000 mm 1,1 UV-I 198 W/m 13,0 C 16,1 C 4,8 km/h (1 Bft) 97,37 %
26.10.2017 13:32 16,0 C 10,6 C 83 % 1024,0 hPa 0,0 l/m 2,0 km/h (1 Bft) NW 313 0 min 0,000 mm 1,2 UV-I 216 W/m 13,1 C 16,0 C 4,8 km/h (1 Bft) 94,00 %
26.10.2017 13:34 15,9 C 10,6 C 82 % 1024,0 hPa 0,0 l/m 1,8 km/h (1 Bft) W 268 0 min 0,000 mm 1,2 UV-I 199 W/m 12,8 C 15,9 C 6,4 km/h (2 Bft) 97,73 %
26.10.2017 13:36 15,9 C 10,6 C 83 % 1024,0 hPa 0,0 l/m 1,8 km/h (1 Bft) O-NO 73 0 min 0,000 mm 1,2 UV-I 217 W/m 13,0 C 15,9 C 4,8 km/h (1 Bft) 97,56 %
26.10.2017 13:38 15,9 C 10,6 C 82 % 1024,0 hPa 0,0 l/m 2,0 km/h (1 Bft) W-NW 298 0 min 0,000 mm 1,2 UV-I 178 W/m 12,8 C 15,9 C 6,4 km/h (2 Bft) 94,34 %
26.10.2017 13:40 15,8 C 10,6 C 84 % 1023,9 hPa 0,0 l/m 1,4 km/h (1 Bft) NW 313 0 min 0,000 mm 1,2 UV-I 201 W/m 13,1 C 15,8 C 4,8 km/h (1 Bft) 98,11 %
26.10.2017 13:42 15,8 C 10,6 C 82 % 1023,9 hPa 0,0 l/m 4,5 km/h (1 Bft) W-NW 303 0 min 0,000 mm 1,3 UV-I 256 W/m 12,7 C 15,8 C 8,0 km/h (2 Bft) 98,00 %
26.10.2017 13:44 15,7 C 10,6 C 84 % 1023,9 hPa 0,0 l/m 2,4 km/h (1 Bft) N-NW 332 2 min 0,000 mm 1,2 UV-I 286 W/m 13,0 C 15,7 C 6,4 km/h (2 Bft) 94,74 %
26.10.2017 13:46 15,7 C 10,6 C 82 % 1023,9 hPa 0,0 l/m 4,0 km/h (1 Bft) N-NW 343 0 min 0,000 mm 1,2 UV-I 257 W/m 12,6 C 15,7 C 9,7 km/h (2 Bft) 95,74 %
26.10.2017 13:48 15,7 C 10,6 C 83 % 1023,9 hPa 0,0 l/m 2,3 km/h (1 Bft) NW 307 0 min 0,000 mm 1,1 UV-I 213 W/m 12,8 C 15,7 C 6,4 km/h (2 Bft) 97,56 %
26.10.2017 13:50 15,7 C 10,6 C 83 % 1023,8 hPa 0,0 l/m 2,6 km/h (1 Bft) N-NW 329 0 min 0,000 mm 1,1 UV-I 190 W/m 12,8 C 15,7 C 4,8 km/h (1 Bft) 98,25 %
26.10.2017 13:52 15,7 C 10,6 C 83 % 1023,9 hPa 0,0 l/m 2,6 km/h (1 Bft) N-NW 339 0 min 0,000 mm 1,1 UV-I 215 W/m 12,8 C 15,7 C 9,7 km/h (2 Bft) 98,00 %
26.10.2017 13:54 15,7 C 10,6 C 84 % 1023,8 hPa 0,0 l/m 1,7 km/h (1 Bft) W 281 2 min 0,000 mm 1,2 UV-I 341 W/m 13,0 C 15,7 C 4,8 km/h (1 Bft) 100,00 %
26.10.2017 13:56 15,8 C 10,6 C 83 % 1023,8 hPa 0,0 l/m 3,4 km/h (1 Bft) W-NW 288 2 min 0,000 mm 1,3 UV-I 336 W/m 12,9 C 15,8 C 6,4 km/h (2 Bft) 100,00 %
26.10.2017 13:58 15,9 C 10,6 C 83 % 1023,8 hPa 0,0 l/m 3,1 km/h (1 Bft) NW 326 2 min 0,000 mm 1,4 UV-I 373 W/m 13,0 C 15,9 C 6,4 km/h (2 Bft) 100,00 %
26.10.2017 14:00 15,9 C 10,6 C 82 % 1023,7 hPa 0,0 l/m 4,2 km/h (1 Bft) NW 324 2 min 0,000 mm 1,4 UV-I 364 W/m 12,8 C 15,9 C 8,0 km/h (2 Bft) 97,62 %
26.10.2017 14:02 16,0 C 10,6 C 82 % 1023,7 hPa 0,0 l/m 3,3 km/h (1 Bft) NW 315 2 min 0,177 mm 1,4 UV-I 390 W/m 12,9 C 16,0 C 8,0 km/h (2 Bft) 100,00 %
26.10.2017 14:04 16,1 C 10,6 C 82 % 1023,8 hPa 0,0 l/m 5,1 km/h (1 Bft) N-NO 26 2 min 0,000 mm 1,5 UV-I 438 W/m 13,0 C 16,1 C 9,7 km/h (2 Bft) 98,00 %
26.10.2017 14:06 16,2 C 10,6 C 82 % 1023,8 hPa 0,0 l/m 2,8 km/h (1 Bft) N-NW 341 2 min 0,000 mm 1,5 UV-I 463 W/m 13,1 C 16,2 C 9,7 km/h (2 Bft) 100,00 %
26.10.2017 14:08 16,3 C 10,6 C 82 % 1023,8 hPa 0,0 l/m 4,8 km/h (1 Bft) N 9 2 min 0,000 mm 1,5 UV-I 468 W/m 13,2 C 16,3 C 14,5 km/h (3 Bft) 97,37 %
26.10.2017 14:10 16,3 C 10,6 C 81 % 1023,7 hPa 0,0 l/m 5,5 km/h (1 Bft) N-NW 332 2 min 0,000 mm 1,4 UV-I 438 W/m 13,0 C 16,3 C 16,1 km/h (3 Bft) 97,87 %
26.10.2017 14:12 16,3 C 10,6 C 80 % 1023,7 hPa 0,0 l/m 3,1 km/h (1 Bft) W-NW 290 2 min 0,000 mm 1,3 UV-I 349 W/m 12,8 C 16,3 C 6,4 km/h (2 Bft) 100,00 %
26.10.2017 14:14 16,2 C 10,6 C 80 % 1023,7 hPa 0,0 l/m 5,5 km/h (1 Bft) N-NO 19 2 min 0,000 mm 1,3 UV-I 293 W/m 12,7 C 16,2 C 12,9 km/h (3 Bft) 98,11 %
26.10.2017 14:16 16,1 C 10,6 C 81 % 1023,7 hPa 0,0 l/m 4,5 km/h (1 Bft) NW 304 2 min 0,000 mm 1,2 UV-I 254 W/m 12,8 C 16,1 C 9,7 km/h (2 Bft) 100,00 %
26.10.2017 14:18 16,2 C 10,6 C 82 % 1023,6 hPa 0,0 l/m 1,5 km/h (1 Bft) N 5 2 min 0,000 mm 1,2 UV-I 259 W/m 13,1 C 16,2 C 3,2 km/h (1 Bft) 100,00 %
26.10.2017 14:20 16,2 C 10,6 C 82 % 1023,7 hPa 0,0 l/m 3,3 km/h (1 Bft) N-NW 329 2 min 0,000 mm 1,2 UV-I 298 W/m 13,1 C 16,2 C 8,0 km/h (2 Bft) 100,00 %
26.10.2017 14:22 16,1 C 10,6 C 82 % 1023,6 hPa 0,0 l/m 3,2 km/h (1 Bft) N-NO 14 2 min 0,000 mm 1,2 UV-I 309 W/m 13,0 C 16,1 C 6,4 km/h (2 Bft) 100,00 %
26.10.2017 14:24 16,2 C 10,6 C 82 % 1023,6 hPa 0,0 l/m 3,7 km/h (1 Bft) NW 320 2 min 0,000 mm 1,2 UV-I 357 W/m 13,1 C 16,2 C 8,0 km/h (2 Bft) 100,00 %
26.10.2017 14:26 16,1 C 10,6 C 82 % 1023,6 hPa 0,0 l/m 5,7 km/h (1 Bft) W-NW 284 2 min 0,000 mm 1,2 UV-I 353 W/m 13,0 C 16,1 C 14,5 km/h (3 Bft) 100,00 %
26.10.2017 14:28 16,1 C 10,6 C 82 % 1023,7 hPa 0,0 l/m 2,7 km/h (1 Bft) W-NW 298 2 min 0,000 mm 1,2 UV-I 319 W/m 13,0 C 16,1 C 6,4 km/h (2 Bft) 100,00 %
26.10.2017 14:30 16,1 C 10,6 C 82 % 1023,6 hPa 0,0 l/m 5,3 km/h (1 Bft) W 281 2 min 0,000 mm 1,2 UV-I 314 W/m 13,0 C 16,1 C 12,9 km/h (3 Bft) 100,00 %
26.10.2017 14:32 16,1 C 10,6 C 81 % 1023,6 hPa 0,0 l/m 4,1 km/h (1 Bft) W-SW 252 2 min 0,000 mm 1,1 UV-I 307 W/m 12,8 C 16,1 C 9,7 km/h (2 Bft) 100,00 %
26.10.2017 14:34 16,1 C 10,6 C 81 % 1023,6 hPa 0,0 l/m 4,1 km/h (1 Bft) W-NW 299 2 min 0,000 mm 1,1 UV-I 293 W/m 12,8 C 16,1 C 9,7 km/h (2 Bft) 100,00 %
26.10.2017 14:36 16,1 C 10,6 C 82 % 1023,6 hPa 0,0 l/m 2,2 km/h (1 Bft) W-NW 298 0 min 0,000 mm 1,1 UV-I 232 W/m 13,0 C 16,1 C 4,8 km/h (1 Bft) 100,00 %
26.10.2017 14:38 16,1 C 10,6 C 82 % 1023,5 hPa 0,0 l/m 1,6 km/h (1 Bft) NW 304 2 min 0,000 mm 1,1 UV-I 313 W/m 13,0 C 16,1 C 4,8 km/h (1 Bft) 100,00 %
26.10.2017 14:40 16,1 C 10,6 C 81 % 1023,5 hPa 0,0 l/m 3,9 km/h (1 Bft) W-NW 302 2 min 0,000 mm 1,2 UV-I 362 W/m 12,8 C 16,1 C 6,4 km/h (2 Bft) 98,00 %
26.10.2017 14:42 16,1 C 10,6 C 81 % 1023,5 hPa 0,0 l/m 3,5 km/h (1 Bft) N 355 2 min 0,000 mm 1,1 UV-I 312 W/m 12,8 C 16,1 C 8,0 km/h (2 Bft) 94,74 %
26.10.2017 14:44 16,1 C 10,6 C 82 % 1023,3 hPa 0,0 l/m 6,0 km/h (2 Bft) W-NW 299 2 min 0,000 mm 1,0 UV-I 252 W/m 13,0 C 16,1 C 12,9 km/h (3 Bft) 100,00 %
26.10.2017 14:46 16,0 C 10,6 C 82 % 1023,3 hPa 0,0 l/m 3,8 km/h (1 Bft) N 350 2 min 0,000 mm 1,0 UV-I 259 W/m 12,9 C 16,0 C 6,4 km/h (2 Bft) 100,00 %
26.10.2017 14:48 15,9 C 10,6 C 82 % 1023,3 hPa 0,0 l/m 4,9 km/h (1 Bft) NW 323 2 min 0,000 mm 1,0 UV-I 263 W/m 12,8 C 15,9 C 12,9 km/h (3 Bft) 98,21 %
26.10.2017 14:50 15,8 C 10,6 C 81 % 1023,2 hPa 0,0 l/m 4,3 km/h (1 Bft) W-NW 286 2 min 0,000 mm 0,9 UV-I 280 W/m 12,5 C 15,8 C 9,7 km/h (2 Bft) 100,00 %
26.10.2017 14:52 15,8 C 10,6 C 82 % 1023,1 hPa 0,0 l/m 2,2 km/h (1 Bft) NW 313 0 min 0,000 mm 0,9 UV-I 182 W/m 12,7 C 15,8 C 4,8 km/h (1 Bft) 100,00 %
26.10.2017 14:54 15,7 C 10,6 C 82 % 1023,2 hPa 0,0 l/m 2,0 km/h (1 Bft) N-NW 344 2 min 0,000 mm 1,1 UV-I 370 W/m 12,6 C 15,7 C 4,8 km/h (1 Bft) 96,23 %
26.10.2017 14:56 15,9 C 10,6 C 82 % 1023,1 hPa 0,0 l/m 2,9 km/h (1 Bft) NW 312 2 min 0,000 mm 1,0 UV-I 372 W/m 12,8 C 15,9 C 6,4 km/h (2 Bft) 100,00 %
26.10.2017 14:58 16,1 C 10,6 C 83 % 1023,1 hPa 0,0 l/m 2,0 km/h (1 Bft) W 266 2 min 0,000 mm 1,0 UV-I 338 W/m 13,2 C 16,1 C 4,8 km/h (1 Bft) 100,00 %
26.10.2017 15:00 16,1 C 10,6 C 81 % 1023,0 hPa 0,0 l/m 2,1 km/h (1 Bft) NW 313 2 min 0,178 mm 1,0 UV-I 319 W/m 12,8 C 16,1 C 6,4 km/h (2 Bft) 98,53 %
26.10.2017 15:02 16,2 C 10,6 C 82 % 1023,0 hPa 0,0 l/m 3,1 km/h (1 Bft) W-SW 252 2 min 0,000 mm 1,0 UV-I 298 W/m 13,1 C 16,2 C 4,8 km/h (1 Bft) 95,12 %
26.10.2017 15:04 16,2 C 10,6 C 81 % 1023,0 hPa 0,0 l/m 1,8 km/h (1 Bft) NW 311 2 min 0,000 mm 0,9 UV-I 252 W/m 12,9 C 16,2 C 4,8 km/h (1 Bft) 100,00 %
26.10.2017 15:06 16,1 C 10,6 C 81 % 1023,1 hPa 0,0 l/m 2,7 km/h (1 Bft) NW 319 2 min 0,000 mm 0,9 UV-I 253 W/m 12,8 C 16,1 C 6,4 km/h (2 Bft) 100,00 %
26.10.2017 15:08 16,1 C 10,6 C 81 % 1023,1 hPa 0,0 l/m 2,4 km/h (1 Bft) N 9 2 min 0,000 mm 0,9 UV-I 263 W/m 12,8 C 16,1 C 4,8 km/h (1 Bft) 100,00 %
26.10.2017 15:10 16,1 C 10,6 C 81 % 1023,1 hPa 0,0 l/m 2,7 km/h (1 Bft) NW 313 2 min 0,000 mm 0,9 UV-I 227 W/m 12,8 C 16,1 C 6,4 km/h (2 Bft) 96,23 %
26.10.2017 15:12 16,1 C 10,6 C 81 % 1023,1 hPa 0,0 l/m 2,8 km/h (1 Bft) S-SW 203 2 min 0,000 mm 0,8 UV-I 233 W/m 12,8 C 16,1 C 8,0 km/h (2 Bft) 100,00 %
26.10.2017 15:14 16,1 C 10,6 C 81 % 1023,1 hPa 0,0 l/m 2,7 km/h (1 Bft) W-NW 290 0 min 0,000 mm 0,8 UV-I 190 W/m 12,8 C 16,1 C 6,4 km/h (2 Bft) 97,44 %
26.10.2017 15:16 16,0 C 10,6 C 81 % 1023,0 hPa 0,0 l/m 3,5 km/h (1 Bft) W 277 0 min 0,000 mm 0,8 UV-I 165 W/m 12,7 C 16,0 C 6,4 km/h (2 Bft) 96,15 %
26.10.2017 15:18 16,1 C 10,6 C 82 % 1023,1 hPa 0,0 l/m 2,0 km/h (1 Bft) W-NW 295 2 min 0,000 mm 0,9 UV-I 311 W/m 13,0 C 16,1 C 4,8 km/h (1 Bft) 97,44 %
26.10.2017 15:20 16,2 C 10,6 C 83 % 1023,1 hPa 0,0 l/m 2,2 km/h (1 Bft) W 267 2 min 0,000 mm 0,9 UV-I 371 W/m 13,3 C 16,2 C 4,8 km/h (1 Bft) 96,00 %
26.10.2017 15:22 16,3 C 10,6 C 82 % 1023,1 hPa 0,0 l/m 3,3 km/h (1 Bft) W-NW 301 2 min 0,000 mm 0,8 UV-I 370 W/m 13,2 C 16,3 C 6,4 km/h (2 Bft) 95,74 %
26.10.2017 15:24 16,3 C 10,6 C 80 % 1023,0 hPa 0,0 l/m 2,5 km/h (1 Bft) W-NW 290 2 min 0,000 mm 0,8 UV-I 304 W/m 12,8 C 16,3 C 6,4 km/h (2 Bft) 93,62 %
26.10.2017 15:26 16,3 C 10,6 C 81 % 1023,0 hPa 0,0 l/m 3,3 km/h (1 Bft) W-NW 285 2 min 0,000 mm 0,7 UV-I 246 W/m 13,0 C 16,3 C 8,0 km/h (2 Bft) 92,45 %
26.10.2017 15:28 16,3 C 10,6 C 80 % 1023,0 hPa 0,0 l/m 4,8 km/h (1 Bft) N-NW 330 2 min 0,000 mm 0,8 UV-I 316 W/m 12,8 C 16,3 C 9,7 km/h (2 Bft) 97,14 %
26.10.2017 15:30 16,3 C 10,6 C 80 % 1023,0 hPa 0,0 l/m 2,8 km/h (1 Bft) N-NW 331 2 min 0,000 mm 0,7 UV-I 291 W/m 12,8 C 16,3 C 6,4 km/h (2 Bft) 94,34 %
26.10.2017 15:32 16,3 C 10,6 C 81 % 1023,0 hPa 0,0 l/m 4,8 km/h (1 Bft) N-NW 327 2 min 0,000 mm 0,7 UV-I 316 W/m 13,0 C 16,3 C 12,9 km/h (3 Bft) 96,00 %
26.10.2017 15:34 16,2 C 10,6 C 81 % 1023,0 hPa 0,0 l/m 3,6 km/h (1 Bft) NW 309 2 min 0,000 mm 0,7 UV-I 337 W/m 12,9 C 16,2 C 9,7 km/h (2 Bft) 94,00 %
26.10.2017 15:36 16,2 C 10,6 C 80 % 1023,0 hPa 0,0 l/m 3,8 km/h (1 Bft) N-NO 16 2 min 0,000 mm 0,7 UV-I 286 W/m 12,7 C 16,2 C 6,4 km/h (2 Bft) 100,00 %
26.10.2017 15:38 16,2 C 10,6 C 81 % 1023,0 hPa 0,0 l/m 2,7 km/h (1 Bft) N-NO 19 2 min 0,000 mm 0,7 UV-I 266 W/m 12,9 C 16,2 C 6,4 km/h (2 Bft) 92,00 %
26.10.2017 15:40 16,1 C 10,6 C 81 % 1023,0 hPa 0,0 l/m 2,4 km/h (1 Bft) N-NW 338 2 min 0,000 mm 0,6 UV-I 255 W/m 12,8 C 16,1 C 3,2 km/h (1 Bft) 93,62 %
26.10.2017 15:42 16,1 C 10,6 C 81 % 1023,0 hPa 0,0 l/m 4,0 km/h (1 Bft) N-NW 338 2 min 0,000 mm 0,6 UV-I 225 W/m 12,8 C 16,1 C 8,0 km/h (2 Bft) 95,92 %
26.10.2017 15:44 16,2 C 10,6 C 82 % 1023,0 hPa 0,0 l/m 3,5 km/h (1 Bft) N 349 2 min 0,000 mm 0,6 UV-I 252 W/m 13,1 C 16,2 C 6,4 km/h (2 Bft) 95,74 %
26.10.2017 15:46 16,2 C 10,6 C 81 % 1023,0 hPa 0,0 l/m 2,4 km/h (1 Bft) NW 322 2 min 0,000 mm 0,6 UV-I 252 W/m 12,9 C 16,2 C 6,4 km/h (2 Bft) 95,45 %
26.10.2017 15:48 16,1 C 10,6 C 81 % 1023,0 hPa 0,0 l/m 4,2 km/h (1 Bft) NW 316 2 min 0,000 mm 0,6 UV-I 252 W/m 12,8 C 16,1 C 12,9 km/h (3 Bft) 97,73 %
26.10.2017 15:50 16,1 C 10,6 C 80 % 1023,0 hPa 0,0 l/m 6,1 km/h (2 Bft) N-NW 330 2 min 0,000 mm 0,6 UV-I 268 W/m 12,6 C 16,1 C 12,9 km/h (3 Bft) 96,23 %
26.10.2017 15:52 16,1 C 10,6 C 81 % 1023,0 hPa 0,0 l/m 3,7 km/h (1 Bft) W-NW 290 2 min 0,000 mm 0,6 UV-I 274 W/m 12,8 C 16,1 C 8,0 km/h (2 Bft) 95,74 %
26.10.2017 15:54 16,1 C 10,6 C 81 % 1023,0 hPa 0,0 l/m 2,4 km/h (1 Bft) NW 307 2 min 0,000 mm 0,5 UV-I 276 W/m 12,8 C 16,1 C 4,8 km/h (1 Bft) 95,74 %
26.10.2017 15:56 16,1 C 10,6 C 81 % 1023,0 hPa 0,0 l/m 4,5 km/h (1 Bft) N-NW 342 2 min 0,000 mm 0,5 UV-I 258 W/m 12,8 C 16,1 C 12,9 km/h (3 Bft) 97,22 %
26.10.2017 15:58 16,1 C 10,6 C 81 % 1023,0 hPa 0,0 l/m 4,4 km/h (1 Bft) N 355 2 min 0,000 mm 0,5 UV-I 208 W/m 12,8 C 16,1 C 11,3 km/h (2 Bft) 97,73 %
26.10.2017 16:00 16,1 C 10,6 C 81 % 1023,0 hPa 0,0 l/m 3,7 km/h (1 Bft) W-NW 301 2 min 0,000 mm 0,5 UV-I 204 W/m 12,8 C 16,1 C 6,4 km/h (2 Bft) 98,21 %
26.10.2017 16:02 16,0 C 10,6 C 80 % 1023,0 hPa 0,0 l/m 5,6 km/h (1 Bft) N-NW 332 2 min 0,153 mm 0,5 UV-I 194 W/m 12,5 C 16,0 C 11,3 km/h (2 Bft) 98,11 %
26.10.2017 16:04 15,9 C 10,6 C 80 % 1023,0 hPa 0,0 l/m 2,1 km/h (1 Bft) N-NW 347 2 min 0,000 mm 0,3 UV-I 198 W/m 12,5 C 15,9 C 4,8 km/h (1 Bft) 97,37 %
26.10.2017 16:06 15,9 C 10,6 C 81 % 1023,1 hPa 0,0 l/m 2,8 km/h (1 Bft) NW 321 2 min 0,000 mm 0,0 UV-I 193 W/m 12,6 C 15,9 C 4,8 km/h (1 Bft) 96,23 %
26.10.2017 16:08 15,9 C 10,6 C 81 % 1023,0 hPa 0,0 l/m 4,6 km/h (1 Bft) NW 318 2 min 0,000 mm 0,0 UV-I 189 W/m 12,6 C 15,9 C 8,0 km/h (2 Bft) 96,00 %
26.10.2017 16:10 15,9 C 10,6 C 81 % 1023,0 hPa 0,0 l/m 2,9 km/h (1 Bft) W-NW 284 2 min 0,000 mm 0,0 UV-I 173 W/m 12,6 C 15,9 C 6,4 km/h (2 Bft) 100,00 %
26.10.2017 16:12 15,8 C 10,6 C 81 % 1023,0 hPa 0,0 l/m 1,2 km/h (1 Bft) W-NW 290 2 min 0,000 mm 0,0 UV-I 162 W/m 12,5 C 15,8 C 4,8 km/h (1 Bft) 96,00 %
26.10.2017 16:14 15,8 C 10,6 C 81 % 1022,9 hPa 0,0 l/m 3,7 km/h (1 Bft) W-NW 294 2 min 0,000 mm 0,0 UV-I 155 W/m 12,5 C 15,8 C 9,7 km/h (2 Bft) 98,00 %
26.10.2017 16:16 15,8 C 10,6 C 81 % 1022,8 hPa 0,0 l/m 2,7 km/h (1 Bft) W-NW 296 2 min 0,000 mm 0,0 UV-I 155 W/m 12,5 C 15,8 C 6,4 km/h (2 Bft) 97,37 %
26.10.2017 16:18 15,9 C 10,6 C 81 % 1022,9 hPa 0,0 l/m 1,7 km/h (1 Bft) W-SW 252 2 min 0,000 mm 0,0 UV-I 156 W/m 12,6 C 15,9 C 4,8 km/h (1 Bft) 98,11 %
26.10.2017 16:20 15,8 C 10,6 C 81 % 1022,8 hPa 0,0 l/m 2,7 km/h (1 Bft) W 278 2 min 0,000 mm 0,0 UV-I 152 W/m 12,5 C 15,8 C 4,8 km/h (1 Bft) 95,74 %
26.10.2017 16:22 15,8 C 10,6 C 81 % 1022,8 hPa 0,0 l/m 4,0 km/h (1 Bft) W-NW 288 2 min 0,000 mm 0,0 UV-I 148 W/m 12,5 C 15,8 C 9,7 km/h (2 Bft) 95,74 %
26.10.2017 16:24 15,8 C 10,6 C 82 % 1022,8 hPa 0,0 l/m 0,9 km/h (0 Bft) W-NW 298 2 min 0,000 mm 0,0 UV-I 141 W/m 12,7 C 15,8 C 3,2 km/h (1 Bft) 97,87 %
26.10.2017 16:26 15,8 C 10,6 C 82 % 1022,8 hPa 0,0 l/m 1,4 km/h (1 Bft) W-NW 297 2 min 0,000 mm 0,0 UV-I 156 W/m 12,7 C 15,8 C 4,8 km/h (1 Bft) 98,00 %
26.10.2017 16:28 15,8 C 10,6 C 82 % 1022,8 hPa 0,0 l/m 2,4 km/h (1 Bft) W 263 2 min 0,000 mm 0,0 UV-I 157 W/m 12,7 C 15,8 C 6,4 km/h (2 Bft) 97,37 %
26.10.2017 16:30 15,8 C 10,6 C 82 % 1022,8 hPa 0,0 l/m 1,9 km/h (1 Bft) SW 219 2 min 0,000 mm 0,0 UV-I 156 W/m 12,7 C 15,8 C 4,8 km/h (1 Bft) 97,87 %
26.10.2017 16:32 15,8 C 10,6 C 82 % 1022,8 hPa 0,0 l/m 1,0 km/h (0 Bft) SW 222 2 min 0,000 mm 0,0 UV-I 170 W/m 12,7 C 15,8 C 1,6 km/h (1 Bft) 98,11 %
26.10.2017 16:34 15,8 C 10,6 C 82 % 1022,8 hPa 0,0 l/m 1,8 km/h (1 Bft) W-NW 285 2 min 0,000 mm 0,0 UV-I 165 W/m 12,7 C 15,8 C 4,8 km/h (1 Bft) 97,62 %
26.10.2017 16:36 15,8 C 10,6 C 82 % 1022,8 hPa 0,0 l/m 2,6 km/h (1 Bft) W-NW 284 2 min 0,000 mm 0,0 UV-I 153 W/m 12,7 C 15,8 C 4,8 km/h (1 Bft) 96,00 %
26.10.2017 16:38 15,8 C 10,6 C 82 % 1022,8 hPa 0,0 l/m 3,4 km/h (1 Bft) N-NW 327 2 min 0,000 mm 0,0 UV-I 127 W/m 12,7 C 15,8 C 8,0 km/h (2 Bft) 98,00 %
26.10.2017 16:40 15,8 C 10,6 C 81 % 1022,8 hPa 0,0 l/m 3,7 km/h (1 Bft) W 265 2 min 0,000 mm 0,0 UV-I 104 W/m 12,5 C 15,8 C 8,0 km/h (2 Bft) 95,12 %
26.10.2017 16:42 15,8 C 10,6 C 82 % 1022,8 hPa 0,0 l/m 2,9 km/h (1 Bft) W-NW 284 0 min 0,000 mm 0,0 UV-I 95 W/m 12,7 C 15,8 C 11,3 km/h (2 Bft) 97,87 %
26.10.2017 16:44 15,8 C 10,6 C 81 % 1022,7 hPa 0,0 l/m 6,0 km/h (2 Bft) W 267 0 min 0,000 mm 0,0 UV-I 92 W/m 12,5 C 15,8 C 14,5 km/h (3 Bft) 98,00 %
26.10.2017 16:46 15,7 C 10,6 C 81 % 1022,7 hPa 0,0 l/m 4,5 km/h (1 Bft) W 259 0 min 0,000 mm 0,0 UV-I 89 W/m 12,4 C 15,7 C 11,3 km/h (2 Bft) 97,56 %
26.10.2017 16:48 15,7 C 10,6 C 81 % 1022,8 hPa 0,0 l/m 4,5 km/h (1 Bft) W 265 0 min 0,000 mm 0,0 UV-I 88 W/m 12,4 C 15,7 C 6,4 km/h (2 Bft) 98,00 %
26.10.2017 16:50 15,7 C 10,6 C 81 % 1022,8 hPa 0,0 l/m 4,2 km/h (1 Bft) W 265 2 min 0,000 mm 0,0 UV-I 90 W/m 12,4 C 15,7 C 9,7 km/h (2 Bft) 100,00 %
26.10.2017 16:52 15,6 C 10,6 C 81 % 1022,8 hPa 0,0 l/m 5,0 km/h (1 Bft) W 266 2 min 0,000 mm 0,0 UV-I 93 W/m 12,3 C 15,6 C 9,7 km/h (2 Bft) 100,00 %
26.10.2017 16:54 15,6 C 10,6 C 82 % 1022,8 hPa 0,0 l/m 3,2 km/h (1 Bft) W 261 2 min 0,000 mm 0,0 UV-I 91 W/m 12,5 C 15,6 C 9,7 km/h (2 Bft) 96,77 %
26.10.2017 16:56 15,6 C 10,6 C 82 % 1022,8 hPa 0,0 l/m 3,1 km/h (1 Bft) W-NW 292 2 min 0,000 mm 0,0 UV-I 87 W/m 12,5 C 15,6 C 4,8 km/h (1 Bft) 100,00 %
26.10.2017 16:58 15,4 C 10,6 C 82 % 1022,8 hPa 0,0 l/m 1,6 km/h (1 Bft) W-SW 250 2 min 0,000 mm 0,0 UV-I 84 W/m 12,3 C 15,4 C 3,2 km/h (1 Bft) 100,00 %
26.10.2017 17:00 15,4 C 10,6 C 82 % 1022,8 hPa 0,0 l/m 4,0 km/h (1 Bft) W-NW 283 2 min 0,000 mm 0,0 UV-I 77 W/m 12,3 C 15,4 C 6,4 km/h (2 Bft) 100,00 %
26.10.2017 17:02 15,4 C 10,6 C 82 % 1022,8 hPa 0,0 l/m 3,2 km/h (1 Bft) W 266 0 min 0,076 mm 0,0 UV-I 69 W/m 12,3 C 15,4 C 8,0 km/h (2 Bft) 98,11 %
26.10.2017 17:04 15,3 C 10,6 C 82 % 1022,8 hPa 0,0 l/m 2,6 km/h (1 Bft) W-NW 302 0 min 0,000 mm 0,0 UV-I 63 W/m 12,2 C 15,3 C 4,8 km/h (1 Bft) 100,00 %
26.10.2017 17:06 15,3 C 10,6 C 83 % 1022,8 hPa 0,0 l/m 3,0 km/h (1 Bft) W 266 0 min 0,000 mm 0,0 UV-I 58 W/m 12,4 C 15,3 C 4,8 km/h (1 Bft) 100,00 %
26.10.2017 17:08 15,2 C 10,6 C 83 % 1022,8 hPa 0,0 l/m 1,5 km/h (1 Bft) W 267 0 min 0,000 mm 0,0 UV-I 56 W/m 12,3 C 15,2 C 4,8 km/h (1 Bft) 100,00 %
26.10.2017 17:10 15,2 C 10,6 C 83 % 1022,8 hPa 0,0 l/m 3,2 km/h (1 Bft) W 274 0 min 0,000 mm 0,0 UV-I 53 W/m 12,3 C 15,2 C 4,8 km/h (1 Bft) 98,00 %
26.10.2017 17:12 15,1 C 10,6 C 83 % 1022,8 hPa 0,0 l/m 2,7 km/h (1 Bft) W 274 2 min 0,000 mm 0,0 UV-I 57 W/m 12,2 C 15,1 C 3,2 km/h (1 Bft) 97,62 %
26.10.2017 17:14 15,1 C 10,6 C 83 % 1022,8 hPa 0,0 l/m 2,5 km/h (1 Bft) W 274 2 min 0,000 mm 0,0 UV-I 63 W/m 12,2 C 15,1 C 4,8 km/h (1 Bft) 97,37 %
26.10.2017 17:16 15,1 C 10,6 C 84 % 1022,7 hPa 0,0 l/m 3,2 km/h (1 Bft) W 270 2 min 0,000 mm 0,0 UV-I 57 W/m 12,4 C 15,1 C 4,8 km/h (1 Bft) 100,00 %
26.10.2017 17:18 15,1 C 10,6 C 83 % 1022,7 hPa 0,0 l/m 2,6 km/h (1 Bft) W 270 2 min 0,000 mm 0,0 UV-I 56 W/m 12,2 C 15,1 C 4,8 km/h (1 Bft) 100,00 %
26.10.2017 17:20 15,1 C 10,6 C 83 % 1022,7 hPa 0,0 l/m 2,6 km/h (1 Bft) W 265 2 min 0,000 mm 0,0 UV-I 52 W/m 12,2 C 15,1 C 4,8 km/h (1 Bft) 98,00 %
26.10.2017 17:22 15,2 C 10,6 C 83 % 1022,7 hPa 0,0 l/m 2,2 km/h (1 Bft) W 265 2 min 0,000 mm 0,0 UV-I 50 W/m 12,3 C 15,2 C 3,2 km/h (1 Bft) 100,00 %
26.10.2017 17:24 15,1 C 10,6 C 84 % 1022,7 hPa 0,0 l/m 2,4 km/h (1 Bft) W 265 2 min 0,000 mm 0,0 UV-I 47 W/m 12,4 C 15,1 C 3,2 km/h (1 Bft) 96,61 %
26.10.2017 17:26 15,1 C 10,6 C 83 % 1022,7 hPa 0,0 l/m 2,5 km/h (1 Bft) W 265 2 min 0,000 mm 0,0 UV-I 47 W/m 12,2 C 15,1 C 3,2 km/h (1 Bft) 100,00 %
26.10.2017 17:28 15,1 C 10,6 C 84 % 1022,7 hPa 0,0 l/m 1,9 km/h (1 Bft) W 265 2 min 0,000 mm 0,0 UV-I 44 W/m 12,4 C 15,1 C 3,2 km/h (1 Bft) 97,56 %
26.10.2017 17:30 15,0 C 10,6 C 84 % 1022,6 hPa 0,0 l/m 0,8 km/h (0 Bft) W 265 2 min 0,000 mm 0,0 UV-I 41 W/m 12,3 C 15,0 C 1,6 km/h (1 Bft) 98,21 %
26.10.2017 17:32 14,9 C 10,6 C 84 % 1022,6 hPa 0,0 l/m 0,9 km/h (0 Bft) W 265 2 min 0,000 mm 0,0 UV-I 40 W/m 12,2 C 14,9 C 1,6 km/h (1 Bft) 98,11 %
26.10.2017 17:34 14,7 C 10,6 C 85 % 1022,6 hPa 0,0 l/m 0,5 km/h (0 Bft) W 265 2 min 0,000 mm 0,0 UV-I 37 W/m 12,2 C 14,7 C 3,2 km/h (1 Bft) 97,87 %
26.10.2017 17:36 14,5 C 10,6 C 86 % 1022,5 hPa 0,0 l/m 0,5 km/h (0 Bft) W 265 2 min 0,000 mm 0,0 UV-I 33 W/m 12,2 C 14,5 C 1,6 km/h (1 Bft) 97,56 %
26.10.2017 17:38 14,4 C 10,6 C 86 % 1022,6 hPa 0,0 l/m 0,1 km/h (0 Bft) W 265 2 min 0,000 mm 0,0 UV-I 27 W/m 12,1 C 14,4 C 1,6 km/h (1 Bft) 96,00 %
26.10.2017 17:40 14,3 C 10,6 C 87 % 1022,5 hPa 0,0 l/m 0,3 km/h (0 Bft) W 265 2 min 0,000 mm 0,0 UV-I 27 W/m 12,2 C 14,3 C 1,6 km/h (1 Bft) 98,00 %
26.10.2017 17:42 14,1 C 10,6 C 88 % 1022,5 hPa 0,0 l/m 0,0 km/h (0 Bft) W 265 2 min 0,000 mm 0,0 UV-I 26 W/m 12,1 C 14,1 C 0,0 km/h (0 Bft) 93,62 %
26.10.2017 17:44 14,0 C 10,6 C 88 % 1022,6 hPa 0,0 l/m 0,0 km/h (0 Bft) W 265 2 min 0,000 mm 0,0 UV-I 16 W/m 12,0 C 14,0 C 1,6 km/h (1 Bft) 97,14 %
26.10.2017 17:46 13,8 C 10,6 C 89 % 1022,5 hPa 0,0 l/m 0,0 km/h (0 Bft) W 265 0 min 0,000 mm 0,0 UV-I 10 W/m 12,0 C 13,8 C 0,0 km/h (0 Bft) 98,21 %
26.10.2017 17:48 13,7 C 10,6 C 89 % 1022,6 hPa 0,0 l/m 0,0 km/h (0 Bft) W 265 0 min 0,000 mm 0,0 UV-I 18 W/m 11,9 C 13,7 C 0,0 km/h (0 Bft) 97,87 %
26.10.2017 17:50 13,7 C 10,6 C 89 % 1022,5 hPa 0,0 l/m 0,0 km/h (0 Bft) W 265 0 min 0,000 mm 0,0 UV-I 16 W/m 11,9 C 13,7 C 0,0 km/h (0 Bft) 97,22 %
26.10.2017 17:52 13,6 C 10,6 C 89 % 1022,6 hPa 0,0 l/m 0,0 km/h (0 Bft) W 265 0 min 0,000 mm 0,0 UV-I 12 W/m 11,8 C 13,6 C 0,0 km/h (0 Bft) 98,00 %
26.10.2017 17:54 13,6 C 10,6 C 90 % 1022,5 hPa 0,0 l/m 0,0 km/h (0 Bft) W 265 0 min 0,000 mm 0,0 UV-I 11 W/m 12,0 C 13,6 C 0,0 km/h (0 Bft) 97,87 %
26.10.2017 17:56 13,5 C 10,6 C 90 % 1022,5 hPa 0,0 l/m 0,0 km/h (0 Bft) W 265 0 min 0,000 mm 0,0 UV-I 9 W/m 11,9 C 13,5 C 0,0 km/h (0 Bft) 97,87 %
26.10.2017 17:59 13,3 C 10,6 C 90 % 1022,4 hPa 0,0 l/m 0,0 km/h (0 Bft) W 265 0 min 0,000 mm 0,0 UV-I 8 W/m 11,7 C 13,3 C 0,0 km/h (0 Bft) 98,73 %
26.10.2017 18:00 13,3 C 10,6 C 90 % 1022,4 hPa 0,0 l/m 0,0 km/h (0 Bft) W 265 0 min 0,000 mm 0,0 UV-I 7 W/m 11,7 C 13,3 C 0,0 km/h (0 Bft) 100,00 %
26.10.2017 18:02 13,2 C 10,6 C 90 % 1022,4 hPa 0,0 l/m 0,0 km/h (0 Bft) W 265 0 min 0,025 mm 0,0 UV-I 7 W/m 11,6 C 13,2 C 0,0 km/h (0 Bft) 98,00 %
26.10.2017 18:04 13,2 C 10,6 C 91 % 1022,4 hPa 0,0 l/m 0,0 km/h (0 Bft) W 265 0 min 0,000 mm 0,0 UV-I 5 W/m 11,8 C 13,2 C 0,0 km/h (0 Bft) 100,00 %
26.10.2017 18:06 13,2 C 10,6 C 91 % 1022,5 hPa 0,0 l/m 0,0 km/h (0 Bft) W 265 0 min 0,000 mm 0,0 UV-I 5 W/m 11,8 C 13,2 C 0,0 km/h (0 Bft) 100,00 %
26.10.2017 18:08 13,1 C 10,6 C 91 % 1022,5 hPa 0,0 l/m 0,0 km/h (0 Bft) W 265 0 min 0,000 mm 0,0 UV-I 5 W/m 11,7 C 13,1 C 0,0 km/h (0 Bft) 100,00 %
26.10.2017 18:10 13,1 C 10,6 C 92 % 1022,5 hPa 0,0 l/m 0,0 km/h (0 Bft) W 265 0 min 0,000 mm 0,0 UV-I 5 W/m 11,8 C 13,1 C 0,0 km/h (0 Bft) 100,00 %
26.10.2017 18:12 13,1 C 10,6 C 91 % 1022,4 hPa 0,0 l/m 0,0 km/h (0 Bft) W 265 0 min 0,000 mm 0,0 UV-I 5 W/m 11,7 C 13,1 C 0,0 km/h (0 Bft) 98,00 %
26.10.2017 18:14 13,0 C 10,6 C 91 % 1022,4 hPa 0,0 l/m 0,0 km/h (0 Bft) W 265 0 min 0,000 mm 0,0 UV-I 2 W/m 11,6 C 13,0 C 0,0 km/h (0 Bft) 97,87 %
26.10.2017 18:16 12,9 C 10,6 C 91 % 1022,4 hPa 0,0 l/m 0,0 km/h (0 Bft) W 265 0 min 0,000 mm 0,0 UV-I 0 W/m 11,5 C 12,9 C 0,0 km/h (0 Bft) 100,00 %
26.10.2017 18:18 12,8 C 10,6 C 91 % 1022,4 hPa 0,0 l/m 0,0 km/h (0 Bft) W 265 0 min 0,000 mm 0,0 UV-I 0 W/m 11,4 C 12,8 C 0,0 km/h (0 Bft) 100,00 %
26.10.2017 18:20 12,6 C 10,6 C 91 % 1022,3 hPa 0,0 l/m 0,0 km/h (0 Bft) W 265 0 min 0,000 mm 0,0 UV-I 0 W/m 11,2 C 12,6 C 0,0 km/h (0 Bft) 100,00 %
26.10.2017 18:22 12,6 C 10,6 C 92 % 1022,3 hPa 0,0 l/m 0,4 km/h (0 Bft) W-SW 258 0 min 0,000 mm 0,0 UV-I 0 W/m 11,3 C 12,6 C 1,6 km/h (1 Bft) 100,00 %
26.10.2017 18:24 12,5 C 10,6 C 92 % 1022,3 hPa 0,0 l/m 2,2 km/h (1 Bft) SW 225 0 min 0,000 mm 0,0 UV-I 0 W/m 11,2 C 12,5 C 3,2 km/h (1 Bft) 100,00 %
26.10.2017 18:26 12,3 C 10,6 C 92 % 1022,3 hPa 0,0 l/m 2,3 km/h (1 Bft) SW 225 0 min 0,000 mm 0,0 UV-I 0 W/m 11,0 C 12,3 C 4,8 km/h (1 Bft) 100,00 %
26.10.2017 18:28 12,2 C 10,6 C 92 % 1022,4 hPa 0,0 l/m 0,6 km/h (0 Bft) SW 225 0 min 0,000 mm 0,0 UV-I 0 W/m 10,9 C 12,2 C 1,6 km/h (1 Bft) 100,00 %
26.10.2017 18:30 12,0 C 10,6 C 92 % 1022,4 hPa 0,0 l/m 0,0 km/h (0 Bft) SW 225 0 min 0,000 mm 0,0 UV-I 0 W/m 10,7 C 12,0 C 0,0 km/h (0 Bft) 100,00 %
26.10.2017 18:32 11,9 C 10,6 C 92 % 1022,4 hPa 0,0 l/m 0,0 km/h (0 Bft) SW 225 0 min 0,000 mm 0,0 UV-I 0 W/m 10,6 C 11,9 C 0,0 km/h (0 Bft) 100,00 %
26.10.2017 18:34 11,9 C 10,6 C 93 % 1022,5 hPa 0,0 l/m 0,0 km/h (0 Bft) SW 225 0 min 0,000 mm 0,0 UV-I 0 W/m 10,8 C 11,9 C 0,0 km/h (0 Bft) 100,00 %
26.10.2017 18:36 12,0 C 10,6 C 93 % 1022,5 hPa 0,0 l/m 0,0 km/h (0 Bft) SW 225 0 min 0,000 mm 0,0 UV-I 0 W/m 10,9 C 12,0 C 0,0 km/h (0 Bft) 100,00 %
26.10.2017 18:38 12,0 C 10,6 C 93 % 1022,5 hPa 0,0 l/m 0,0 km/h (0 Bft) SW 225 0 min 0,000 mm 0,0 UV-I 0 W/m 10,9 C 12,0 C 0,0 km/h (0 Bft) 100,00 %
26.10.2017 18:40 12,0 C 10,6 C 93 % 1022,4 hPa 0,0 l/m 0,0 km/h (0 Bft) SW 225 0 min 0,000 mm 0,0 UV-I 0 W/m 10,9 C 12,0 C 0,0 km/h (0 Bft) 100,00 %
26.10.2017 18:42 12,0 C 10,6 C 93 % 1022,5 hPa 0,0 l/m 0,0 km/h (0 Bft) SW 225 0 min 0,000 mm 0,0 UV-I 0 W/m 10,9 C 12,0 C 1,6 km/h (1 Bft) 100,00 %
26.10.2017 18:44 12,0 C 10,6 C 94 % 1022,5 hPa 0,0 l/m 1,4 km/h (1 Bft) SW 225 0 min 0,000 mm 0,0 UV-I 0 W/m 11,1 C 12,0 C 3,2 km/h (1 Bft) 98,00 %
26.10.2017 18:46 12,0 C 10,6 C 94 % 1022,5 hPa 0,0 l/m 1,2 km/h (1 Bft) SW 225 0 min 0,000 mm 0,0 UV-I 0 W/m 11,1 C 12,0 C 3,2 km/h (1 Bft) 100,00 %
26.10.2017 18:48 12,1 C 10,6 C 94 % 1022,4 hPa 0,0 l/m 0,0 km/h (0 Bft) SW 225 0 min 0,000 mm 0,0 UV-I 0 W/m 11,2 C 12,1 C 0,0 km/h (0 Bft) 100,00 %
26.10.2017 18:50 11,9 C 10,6 C 93 % 1022,5 hPa 0,0 l/m 2,1 km/h (1 Bft) SW 225 0 min 0,000 mm 0,0 UV-I 0 W/m 10,8 C 11,9 C 3,2 km/h (1 Bft) 98,11 %
26.10.2017 18:52 11,8 C 10,6 C 93 % 1022,5 hPa 0,0 l/m 2,7 km/h (1 Bft) SW 225 0 min 0,000 mm 0,0 UV-I 0 W/m 10,7 C 11,8 C 3,2 km/h (1 Bft) 100,00 %
26.10.2017 18:54 11,7 C 10,6 C 93 % 1022,5 hPa 0,0 l/m 2,0 km/h (1 Bft) SW 225 0 min 0,000 mm 0,0 UV-I 0 W/m 10,6 C 11,7 C 3,2 km/h (1 Bft) 100,00 %
26.10.2017 18:56 11,6 C 10,6 C 93 % 1022,4 hPa 0,0 l/m 2,1 km/h (1 Bft) SW 225 0 min 0,000 mm 0,0 UV-I 0 W/m 10,5 C 11,6 C 3,2 km/h (1 Bft) 100,00 %
26.10.2017 18:58 11,6 C 10,6 C 93 % 1022,4 hPa 0,0 l/m 2,0 km/h (1 Bft) SW 225 0 min 0,000 mm 0,0 UV-I 0 W/m 10,5 C 11,6 C 3,2 km/h (1 Bft) 100,00 %
26.10.2017 19:00 11,4 C 10,6 C 93 % 1022,4 hPa 0,0 l/m 2,3 km/h (1 Bft) SW 225 0 min 0,000 mm 0,0 UV-I 0 W/m 10,3 C 11,4 C 4,8 km/h (1 Bft) 95,74 %
26.10.2017 19:02 11,4 C 10,6 C 94 % 1022,5 hPa 0,0 l/m 1,7 km/h (1 Bft) SW 225 0 min 0,000 mm 0,0 UV-I 0 W/m 10,5 C 11,4 C 3,2 km/h (1 Bft) 97,56 %
26.10.2017 19:04 11,5 C 10,6 C 94 % 1022,5 hPa 0,0 l/m 1,9 km/h (1 Bft) SW 225 0 min 0,000 mm 0,0 UV-I 0 W/m 10,6 C 11,5 C 3,2 km/h (1 Bft) 97,87 %
26.10.2017 19:06 11,5 C 10,6 C 94 % 1022,6 hPa 0,0 l/m 0,1 km/h (0 Bft) SW 225 0 min 0,000 mm 0,0 UV-I 0 W/m 10,6 C 11,5 C 1,6 km/h (1 Bft) 97,87 %
26.10.2017 19:08 11,5 C 10,6 C 94 % 1022,6 hPa 0,0 l/m 0,0 km/h (0 Bft) SW 225 0 min 0,000 mm 0,0 UV-I 0 W/m 10,6 C 11,5 C 0,0 km/h (0 Bft) 100,00 %
26.10.2017 19:10 11,6 C 10,6 C 94 % 1022,6 hPa 0,0 l/m 0,3 km/h (0 Bft) SW 225 0 min 0,000 mm 0,0 UV-I 0 W/m 10,7 C 11,6 C 3,2 km/h (1 Bft) 100,00 %
26.10.2017 19:12 11,6 C 10,6 C 94 % 1022,7 hPa 0,0 l/m 1,8 km/h (1 Bft) SW 225 0 min 0,000 mm 0,0 UV-I 0 W/m 10,7 C 11,6 C 3,2 km/h (1 Bft) 100,00 %
26.10.2017 19:14 11,6 C 10,6 C 94 % 1022,7 hPa 0,0 l/m 1,3 km/h (1 Bft) SW 225 0 min 0,000 mm 0,0 UV-I 0 W/m 10,7 C 11,6 C 3,2 km/h (1 Bft) 97,87 %
26.10.2017 19:16 11,7 C 10,6 C 94 % 1022,7 hPa 0,0 l/m 1,2 km/h (1 Bft) SW 225 0 min 0,000 mm 0,0 UV-I 0 W/m 10,8 C 11,7 C 1,6 km/h (1 Bft) 100,00 %
26.10.2017 19:18 11,7 C 10,6 C 95 % 1022,7 hPa 0,0 l/m 1,4 km/h (1 Bft) SW 225 0 min 0,000 mm 0,0 UV-I 0 W/m 10,9 C 11,7 C 3,2 km/h (1 Bft) 100,00 %
26.10.2017 19:20 11,7 C 10,6 C 94 % 1022,7 hPa 0,0 l/m 0,5 km/h (0 Bft) SW 225 0 min 0,000 mm 0,0 UV-I 0 W/m 10,8 C 11,7 C 1,6 km/h (1 Bft) 96,00 %
26.10.2017 19:22 11,7 C 10,6 C 94 % 1022,7 hPa 0,0 l/m 0,8 km/h (0 Bft) SW 225 0 min 0,000 mm 0,0 UV-I 0 W/m 10,8 C 11,7 C 1,6 km/h (1 Bft) 100,00 %
26.10.2017 19:24 11,7 C 10,6 C 95 % 1022,7 hPa 0,0 l/m 1,8 km/h (1 Bft) SW 225 0 min 0,000 mm 0,0 UV-I 0 W/m 10,9 C 11,7 C 3,2 km/h (1 Bft) 98,00 %
26.10.2017 19:26 11,8 C 10,6 C 95 % 1022,8 hPa 0,0 l/m 2,5 km/h (1 Bft) W 268 0 min 0,000 mm 0,0 UV-I 0 W/m 11,0 C 11,8 C 3,2 km/h (1 Bft) 95,12 %
26.10.2017 19:28 11,8 C 10,6 C 95 % 1022,8 hPa 0,0 l/m 1,3 km/h (1 Bft) W 268 0 min 0,000 mm 0,0 UV-I 0 W/m 11,0 C 11,8 C 3,2 km/h (1 Bft) 100,00 %
26.10.2017 19:30 11,7 C 10,6 C 94 % 1022,8 hPa 0,0 l/m 1,0 km/h (0 Bft) W 268 0 min 0,000 mm 0,0 UV-I 0 W/m 10,8 C 11,7 C 3,2 km/h (1 Bft) 100,00 %
26.10.2017 19:32 11,7 C 10,6 C 94 % 1022,8 hPa 0,0 l/m 0,7 km/h (0 Bft) W 268 0 min 0,000 mm 0,0 UV-I 0 W/m 10,8 C 11,7 C 1,6 km/h (1 Bft) 97,87 %
26.10.2017 19:34 11,5 C 10,6 C 94 % 1022,8 hPa 0,0 l/m 0,7 km/h (0 Bft) W 268 0 min 0,000 mm 0,0 UV-I 0 W/m 10,6 C 11,5 C 3,2 km/h (1 Bft) 96,23 %
26.10.2017 19:36 11,4 C 10,6 C 94 % 1022,8 hPa 0,0 l/m 0,0 km/h (0 Bft) W 268 0 min 0,000 mm 0,0 UV-I 0 W/m 10,5 C 11,4 C 0,0 km/h (0 Bft) 97,87 %
26.10.2017 19:38 11,3 C 10,6 C 94 % 1022,8 hPa 0,0 l/m 0,2 km/h (0 Bft) W 268 0 min 0,000 mm 0,0 UV-I 0 W/m 10,4 C 11,3 C 1,6 km/h (1 Bft) 95,74 %
26.10.2017 19:40 11,3 C 10,6 C 94 % 1022,8 hPa 0,0 l/m 0,7 km/h (0 Bft) W 268 0 min 0,000 mm 0,0 UV-I 0 W/m 10,4 C 11,3 C 1,6 km/h (1 Bft) 92,68 %
26.10.2017 19:42 11,3 C 10,6 C 95 % 1022,8 hPa 0,0 l/m 0,6 km/h (0 Bft) W 268 0 min 0,000 mm 0,0 UV-I 0 W/m 10,5 C 11,3 C 1,6 km/h (1 Bft) 94,00 %
26.10.2017 19:44 11,3 C 10,6 C 95 % 1022,8 hPa 0,0 l/m 1,1 km/h (1 Bft) W 268 0 min 0,000 mm 0,0 UV-I 0 W/m 10,5 C 11,3 C 3,2 km/h (1 Bft) 93,62 %
26.10.2017 19:46 11,3 C 10,6 C 95 % 1022,7 hPa 0,0 l/m 1,5 km/h (1 Bft) W 267 0 min 0,000 mm 0,0 UV-I 0 W/m 10,5 C 11,3 C 3,2 km/h (1 Bft) 97,44 %
26.10.2017 19:48 11,3 C 10,6 C 95 % 1022,7 hPa 0,0 l/m 1,5 km/h (1 Bft) W 268 0 min 0,000 mm 0,0 UV-I 0 W/m 10,5 C 11,3 C 3,2 km/h (1 Bft) 94,23 %
26.10.2017 19:50 11,3 C 10,6 C 95 % 1022,8 hPa 0,0 l/m 1,5 km/h (1 Bft) W 267 0 min 0,000 mm 0,0 UV-I 0 W/m 10,5 C 11,3 C 3,2 km/h (1 Bft) 95,83 %
26.10.2017 19:52 11,3 C 10,6 C 94 % 1022,8 hPa 0,0 l/m 2,3 km/h (1 Bft) W 267 0 min 0,000 mm 0,0 UV-I 0 W/m 10,4 C 11,3 C 3,2 km/h (1 Bft) 96,15 %
26.10.2017 19:54 11,2 C 10,6 C 94 % 1022,8 hPa 0,0 l/m 2,2 km/h (1 Bft) W 267 0 min 0,000 mm 0,0 UV-I 0 W/m 10,3 C 11,2 C 3,2 km/h (1 Bft) 94,87 %
26.10.2017 19:56 11,2 C 10,6 C 95 % 1022,7 hPa 0,0 l/m 2,6 km/h (1 Bft) W 267 0 min 0,000 mm 0,0 UV-I 0 W/m 10,4 C 11,2 C 4,8 km/h (1 Bft) 95,74 %
26.10.2017 19:58 11,1 C 10,6 C 95 % 1022,7 hPa 0,0 l/m 2,5 km/h (1 Bft) W 267 0 min 0,000 mm 0,0 UV-I 0 W/m 10,3 C 11,1 C 3,2 km/h (1 Bft) 94,34 %
26.10.2017 20:00 11,1 C 10,6 C 94 % 1022,7 hPa 0,0 l/m 1,7 km/h (1 Bft) W 267 0 min 0,000 mm 0,0 UV-I 0 W/m 10,2 C 11,1 C 3,2 km/h (1 Bft) 92,11 %
26.10.2017 20:02 11,1 C 10,6 C 95 % 1022,7 hPa 0,0 l/m 1,5 km/h (1 Bft) W 267 0 min 0,000 mm 0,0 UV-I 0 W/m 10,3 C 11,1 C 3,2 km/h (1 Bft) 96,23 %
26.10.2017 20:04 11,1 C 10,6 C 95 % 1022,7 hPa 0,0 l/m 1,8 km/h (1 Bft) W 267 0 min 0,000 mm 0,0 UV-I 0 W/m 10,3 C 11,1 C 3,2 km/h (1 Bft) 96,00 %
26.10.2017 20:06 11,1 C 10,6 C 95 % 1022,9 hPa 0,0 l/m 1,7 km/h (1 Bft) W 267 0 min 0,000 mm 0,0 UV-I 0 W/m 10,3 C 11,1 C 3,2 km/h (1 Bft) 94,29 %
26.10.2017 20:08 11,1 C 10,6 C 95 % 1022,9 hPa 0,0 l/m 0,9 km/h (0 Bft) W 267 0 min 0,000 mm 0,0 UV-I 0 W/m 10,3 C 11,1 C 3,2 km/h (1 Bft) 92,86 %
26.10.2017 20:10 11,2 C 10,6 C 95 % 1022,8 hPa 0,0 l/m 2,0 km/h (1 Bft) W 267 0 min 0,000 mm 0,0 UV-I 0 W/m 10,4 C 11,2 C 3,2 km/h (1 Bft) 96,00 %
26.10.2017 20:12 11,1 C 10,6 C 95 % 1022,8 hPa 0,0 l/m 2,3 km/h (1 Bft) W 267 0 min 0,000 mm 0,0 UV-I 0 W/m 10,3 C 11,1 C 3,2 km/h (1 Bft) 93,62 %
26.10.2017 20:14 11,1 C 10,6 C 95 % 1022,8 hPa 0,0 l/m 2,4 km/h (1 Bft) W 267 0 min 0,000 mm 0,0 UV-I 0 W/m 10,3 C 11,1 C 3,2 km/h (1 Bft) 93,62 %
26.10.2017 20:16 11,1 C 10,6 C 95 % 1022,7 hPa 0,0 l/m 2,3 km/h (1 Bft) W 267 0 min 0,000 mm 0,0 UV-I 0 W/m 10,3 C 11,1 C 3,2 km/h (1 Bft) 97,37 %
26.10.2017 20:18 11,1 C 10,6 C 95 % 1022,7 hPa 0,0 l/m 2,2 km/h (1 Bft) W 267 0 min 0,000 mm 0,0 UV-I 0 W/m 10,3 C 11,1 C 3,2 km/h (1 Bft) 96,00 %
26.10.2017 20:20 11,1 C 10,6 C 95 % 1022,7 hPa 0,0 l/m 1,8 km/h (1 Bft) W 267 0 min 0,000 mm 0,0 UV-I 0 W/m 10,3 C 11,1 C 3,2 km/h (1 Bft) 98,11 %
26.10.2017 20:22 11,1 C 10,6 C 95 % 1022,8 hPa 0,0 l/m 2,2 km/h (1 Bft) W 263 0 min 0,000 mm 0,0 UV-I 0 W/m 10,3 C 11,1 C 4,8 km/h (1 Bft) 94,74 %
26.10.2017 20:24 11,1 C 10,6 C 95 % 1022,8 hPa 0,0 l/m 3,1 km/h (1 Bft) W-SW 256 0 min 0,000 mm 0,0 UV-I 0 W/m 10,3 C 11,1 C 4,8 km/h (1 Bft) 98,00 %
26.10.2017 20:26 11,1 C 10,6 C 95 % 1022,8 hPa 0,0 l/m 2,4 km/h (1 Bft) W-SW 256 0 min 0,000 mm 0,0 UV-I 0 W/m 10,3 C 11,1 C 4,8 km/h (1 Bft) 96,00 %
26.10.2017 20:28 11,1 C 10,6 C 95 % 1022,7 hPa 0,0 l/m 2,7 km/h (1 Bft) W-SW 256 0 min 0,000 mm 0,0 UV-I 0 W/m 10,3 C 11,1 C 4,8 km/h (1 Bft) 97,22 %
26.10.2017 20:30 11,1 C 10,6 C 95 % 1022,8 hPa 0,0 l/m 2,9 km/h (1 Bft) W-SW 256 0 min 0,000 mm 0,0 UV-I 0 W/m 10,3 C 11,1 C 4,8 km/h (1 Bft) 96,23 %
26.10.2017 20:32 11,1 C 10,6 C 95 % 1022,8 hPa 0,0 l/m 3,1 km/h (1 Bft) W-SW 256 0 min 0,000 mm 0,0 UV-I 0 W/m 10,3 C 11,1 C 4,8 km/h (1 Bft) 96,15 %
26.10.2017 20:34 10,9 C 10,6 C 95 % 1022,8 hPa 0,0 l/m 3,4 km/h (1 Bft) W-SW 256 0 min 0,000 mm 0,0 UV-I 0 W/m 10,1 C 10,9 C 4,8 km/h (1 Bft) 97,44 %
26.10.2017 20:36 10,9 C 10,6 C 95 % 1022,9 hPa 0,0 l/m 3,5 km/h (1 Bft) W-SW 256 0 min 0,000 mm 0,0 UV-I 0 W/m 10,1 C 10,9 C 4,8 km/h (1 Bft) 98,21 %
26.10.2017 20:38 10,8 C 10,6 C 95 % 1022,8 hPa 0,0 l/m 2,5 km/h (1 Bft) W-SW 256 0 min 0,000 mm 0,0 UV-I 0 W/m 10,0 C 10,8 C 4,8 km/h (1 Bft) 100,00 %
26.10.2017 20:40 10,8 C 10,6 C 95 % 1022,8 hPa 0,0 l/m 2,4 km/h (1 Bft) W-SW 255 0 min 0,000 mm 0,0 UV-I 0 W/m 10,0 C 10,8 C 4,8 km/h (1 Bft) 100,00 %
26.10.2017 20:42 10,8 C 10,6 C 95 % 1022,8 hPa 0,0 l/m 1,6 km/h (1 Bft) W-SW 255 0 min 0,000 mm 0,0 UV-I 0 W/m 10,0 C 10,8 C 3,2 km/h (1 Bft) 100,00 %
26.10.2017 20:44 10,8 C 10,6 C 95 % 1022,9 hPa 0,0 l/m 2,1 km/h (1 Bft) W-SW 255 0 min 0,000 mm 0,0 UV-I 0 W/m 10,0 C 10,8 C 3,2 km/h (1 Bft) 100,00 %
26.10.2017 20:46 10,8 C 10,6 C 95 % 1022,9 hPa 0,0 l/m 1,0 km/h (0 Bft) W-SW 255 0 min 0,000 mm 0,0 UV-I 0 W/m 10,0 C 10,8 C 1,6 km/h (1 Bft) 98,00 %
26.10.2017 20:48 10,8 C 10,6 C 96 % 1022,9 hPa 0,0 l/m 2,0 km/h (1 Bft) W-SW 255 0 min 0,000 mm 0,0 UV-I 0 W/m 10,2 C 10,8 C 3,2 km/h (1 Bft) 97,87 %
26.10.2017 20:50 10,8 C 10,6 C 96 % 1022,9 hPa 0,0 l/m 2,7 km/h (1 Bft) W-SW 255 0 min 0,000 mm 0,0 UV-I 0 W/m 10,2 C 10,8 C 4,8 km/h (1 Bft) 100,00 %
26.10.2017 20:52 10,8 C 10,6 C 95 % 1022,9 hPa 0,0 l/m 2,7 km/h (1 Bft) W-SW 255 0 min 0,000 mm 0,0 UV-I 0 W/m 10,0 C 10,8 C 3,2 km/h (1 Bft) 100,00 %
26.10.2017 20:54 10,8 C 10,6 C 96 % 1022,9 hPa 0,0 l/m 3,3 km/h (1 Bft) W-SW 255 0 min 0,000 mm 0,0 UV-I 0 W/m 10,2 C 10,8 C 4,8 km/h (1 Bft) 98,11 %
26.10.2017 20:56 10,8 C 10,6 C 95 % 1022,9 hPa 0,0 l/m 3,5 km/h (1 Bft) W-SW 255 0 min 0,000 mm 0,0 UV-I 0 W/m 10,0 C 10,8 C 4,8 km/h (1 Bft) 100,00 %
26.10.2017 20:58 10,6 C 10,6 C 95 % 1022,9 hPa 0,0 l/m 3,5 km/h (1 Bft) W-SW 255 0 min 0,000 mm 0,0 UV-I 0 W/m 9,8 C 10,6 C 4,8 km/h (1 Bft) 100,00 %
26.10.2017 21:00 10,6 C 10,6 C 95 % 1022,8 hPa 0,0 l/m 3,7 km/h (1 Bft) W-SW 255 0 min 0,000 mm 0,0 UV-I 0 W/m 9,8 C 10,6 C 4,8 km/h (1 Bft) 100,00 %
26.10.2017 21:02 10,4 C 10,6 C 95 % 1022,9 hPa 0,0 l/m 3,1 km/h (1 Bft) W-SW 255 0 min 0,000 mm 0,0 UV-I 0 W/m 9,6 C 10,4 C 4,8 km/h (1 Bft) 100,00 %
26.10.2017 21:04 10,4 C 10,6 C 95 % 1022,9 hPa 0,0 l/m 3,9 km/h (1 Bft) W-SW 254 0 min 0,000 mm 0,0 UV-I 0 W/m 9,6 C 10,4 C 4,8 km/h (1 Bft) 100,00 %
26.10.2017 21:06 10,4 C 10,6 C 96 % 1022,9 hPa 0,0 l/m 4,1 km/h (1 Bft) W-SW 246 0 min 0,000 mm 0,0 UV-I 0 W/m 9,8 C 10,4 C 6,4 km/h (2 Bft) 100,00 %
26.10.2017 21:08 10,4 C 10,6 C 96 % 1022,9 hPa 0,0 l/m 4,5 km/h (1 Bft) W-SW 240 0 min 0,000 mm 0,0 UV-I 0 W/m 9,8 C 10,4 C 6,4 km/h (2 Bft) 100,00 %
26.10.2017 21:10 10,4 C 10,6 C 96 % 1022,9 hPa 0,0 l/m 3,9 km/h (1 Bft) W-SW 240 0 min 0,000 mm 0,0 UV-I 0 W/m 9,8 C 10,4 C 4,8 km/h (1 Bft) 100,00 %
26.10.2017 21:12 10,5 C 10,6 C 96 % 1022,9 hPa 0,0 l/m 3,7 km/h (1 Bft) W-SW 240 0 min 0,000 mm 0,0 UV-I 0 W/m 9,9 C 10,5 C 4,8 km/h (1 Bft) 100,00 %
26.10.2017 21:14 10,4 C 10,6 C 96 % 1022,8 hPa 0,0 l/m 4,6 km/h (1 Bft) SW 225 0 min 0,000 mm 0,0 UV-I 0 W/m 9,8 C 10,4 C 6,4 km/h (2 Bft) 100,00 %
26.10.2017 21:16 10,4 C 10,6 C 96 % 1022,9 hPa 0,0 l/m 5,3 km/h (1 Bft) S-SW 211 0 min 0,000 mm 0,0 UV-I 0 W/m 9,8 C 10,4 C 8,0 km/h (2 Bft) 98,00 %
26.10.2017 21:18 10,4 C 10,6 C 96 % 1022,8 hPa 0,0 l/m 4,6 km/h (1 Bft) SW 223 0 min 0,000 mm 0,0 UV-I 0 W/m 9,8 C 10,4 C 6,4 km/h (2 Bft) 100,00 %
26.10.2017 21:20 10,4 C 10,6 C 96 % 1022,8 hPa 0,0 l/m 5,0 km/h (1 Bft) SW 215 0 min 0,000 mm 0,0 UV-I 0 W/m 9,8 C 10,4 C 6,4 km/h (2 Bft) 100,00 %
26.10.2017 21:22 10,4 C 10,6 C 96 % 1022,7 hPa 0,0 l/m 4,8 km/h (1 Bft) S-SW 202 0 min 0,000 mm 0,0 UV-I 0 W/m 9,8 C 10,4 C 8,0 km/h (2 Bft) 100,00 %
26.10.2017 21:24 10,4 C 10,6 C 96 % 1022,7 hPa 0,0 l/m 4,6 km/h (1 Bft) SW 226 0 min 0,000 mm 0,0 UV-I 0 W/m 9,8 C 10,4 C 6,4 km/h (2 Bft) 100,00 %
26.10.2017 21:26 10,4 C 10,6 C 96 % 1022,7 hPa 0,0 l/m 4,9 km/h (1 Bft) SW 222 0 min 0,000 mm 0,0 UV-I 0 W/m 9,8 C 10,4 C 8,0 km/h (2 Bft) 100,00 %
26.10.2017 21:28 10,6 C 10,6 C 96 % 1022,7 hPa 0,0 l/m 4,2 km/h (1 Bft) S-SW 213 0 min 0,000 mm 0,0 UV-I 0 W/m 10,0 C 10,6 C 8,0 km/h (2 Bft) 97,56 %
26.10.2017 21:30 10,6 C 10,6 C 96 % 1022,7 hPa 0,0 l/m 5,6 km/h (1 Bft) SW 215 0 min 0,000 mm 0,0 UV-I 0 W/m 10,0 C 10,6 C 8,0 km/h (2 Bft) 97,96 %
26.10.2017 21:32 10,6 C 10,6 C 96 % 1022,7 hPa 0,0 l/m 5,3 km/h (1 Bft) SW 217 0 min 0,000 mm 0,0 UV-I 0 W/m 10,0 C 10,6 C 8,0 km/h (2 Bft) 100,00 %
26.10.2017 21:34 10,6 C 10,6 C 96 % 1022,7 hPa 0,0 l/m 5,9 km/h (2 Bft) SW 227 0 min 0,000 mm 0,0 UV-I 0 W/m 10,0 C 10,6 C 9,7 km/h (2 Bft) 100,00 %
26.10.2017 21:36 10,6 C 10,6 C 96 % 1022,8 hPa 0,0 l/m 4,6 km/h (1 Bft) SW 221 0 min 0,000 mm 0,0 UV-I 0 W/m 10,0 C 10,6 C 6,4 km/h (2 Bft) 100,00 %
26.10.2017 21:38 10,6 C 10,6 C 96 % 1022,8 hPa 0,0 l/m 4,6 km/h (1 Bft) SW 232 0 min 0,000 mm 0,0 UV-I 0 W/m 10,0 C 10,6 C 6,4 km/h (2 Bft) 100,00 %
26.10.2017 21:40 10,6 C 10,6 C 96 % 1022,8 hPa 0,0 l/m 5,1 km/h (1 Bft) SW 228 0 min 0,000 mm 0,0 UV-I 0 W/m 10,0 C 10,6 C 8,0 km/h (2 Bft) 100,00 %
26.10.2017 21:42 10,6 C 10,6 C 96 % 1022,8 hPa 0,0 l/m 4,8 km/h (1 Bft) SW 225 0 min 0,000 mm 0,0 UV-I 0 W/m 10,0 C 10,6 C 6,4 km/h (2 Bft) 100,00 %
26.10.2017 21:44 10,5 C 10,6 C 96 % 1022,8 hPa 0,0 l/m 5,2 km/h (1 Bft) SW 217 0 min 0,000 mm 0,0 UV-I 0 W/m 9,9 C 10,5 C 8,0 km/h (2 Bft) 100,00 %
26.10.2017 21:46 10,4 C 10,6 C 96 % 1022,8 hPa 0,0 l/m 4,3 km/h (1 Bft) SW 227 0 min 0,000 mm 0,0 UV-I 0 W/m 9,8 C 10,4 C 6,4 km/h (2 Bft) 100,00 %
26.10.2017 21:48 10,4 C 10,6 C 96 % 1022,8 hPa 0,0 l/m 3,7 km/h (1 Bft) SW 234 0 min 0,000 mm 0,0 UV-I 0 W/m 9,8 C 10,4 C 4,8 km/h (1 Bft) 100,00 %
26.10.2017 21:50 10,4 C 10,6 C 96 % 1022,7 hPa 0,0 l/m 3,8 km/h (1 Bft) SW 235 0 min 0,000 mm 0,0 UV-I 0 W/m 9,8 C 10,4 C 4,8 km/h (1 Bft) 98,11 %
26.10.2017 21:52 10,4 C 10,6 C 96 % 1022,7 hPa 0,0 l/m 3,8 km/h (1 Bft) SW 222 0 min 0,000 mm 0,0 UV-I 0 W/m 9,8 C 10,4 C 4,8 km/h (1 Bft) 100,00 %
26.10.2017 21:54 10,4 C 10,6 C 96 % 1022,7 hPa 0,0 l/m 4,1 km/h (1 Bft) SW 223 0 min 0,000 mm 0,0 UV-I 0 W/m 9,8 C 10,4 C 6,4 km/h (2 Bft) 98,00 %
26.10.2017 21:56 10,3 C 10,6 C 96 % 1022,7 hPa 0,0 l/m 4,8 km/h (1 Bft) SW 217 0 min 0,000 mm 0,0 UV-I 0 W/m 9,7 C 10,3 C 6,4 km/h (2 Bft) 96,00 %
26.10.2017 21:58 10,4 C 10,6 C 96 % 1022,7 hPa 0,0 l/m 4,6 km/h (1 Bft) SW 223 0 min 0,000 mm 0,0 UV-I 0 W/m 9,8 C 10,4 C 6,4 km/h (2 Bft) 97,87 %
26.10.2017 22:00 10,4 C 10,6 C 96 % 1022,7 hPa 0,0 l/m 3,1 km/h (1 Bft) W-SW 237 0 min 0,000 mm 0,0 UV-I 0 W/m 9,8 C 10,4 C 4,8 km/h (1 Bft) 97,37 %
26.10.2017 22:02 10,3 C 10,6 C 96 % 1022,7 hPa 0,0 l/m 3,8 km/h (1 Bft) S-SW 203 0 min 0,000 mm 0,0 UV-I 0 W/m 9,7 C 10,3 C 6,4 km/h (2 Bft) 98,00 %
26.10.2017 22:04 10,2 C 10,6 C 96 % 1022,7 hPa 0,0 l/m 3,9 km/h (1 Bft) S-SW 205 0 min 0,000 mm 0,0 UV-I 0 W/m 9,6 C 10,2 C 6,4 km/h (2 Bft) 97,87 %
26.10.2017 22:06 10,2 C 10,6 C 96 % 1022,6 hPa 0,0 l/m 5,2 km/h (1 Bft) SW 223 0 min 0,000 mm 0,0 UV-I 0 W/m 9,6 C 10,2 C 8,0 km/h (2 Bft) 98,00 %
26.10.2017 22:08 10,3 C 10,6 C 96 % 1022,7 hPa 0,0 l/m 4,5 km/h (1 Bft) W-SW 240 0 min 0,000 mm 0,0 UV-I 0 W/m 9,7 C 10,3 C 6,4 km/h (2 Bft) 95,12 %
26.10.2017 22:10 10,3 C 10,6 C 96 % 1022,5 hPa 0,0 l/m 4,5 km/h (1 Bft) S-SW 211 0 min 0,000 mm 0,0 UV-I 0 W/m 9,7 C 10,3 C 6,4 km/h (2 Bft) 95,92 %
26.10.2017 22:12 10,4 C 10,6 C 96 % 1022,6 hPa 0,0 l/m 5,3 km/h (1 Bft) S-SW 211 0 min 0,000 mm 0,0 UV-I 0 W/m 9,8 C 10,4 C 6,4 km/h (2 Bft) 96,23 %
26.10.2017 22:14 10,3 C 10,6 C 96 % 1022,6 hPa 0,0 l/m 4,8 km/h (1 Bft) SW 221 0 min 0,000 mm 0,0 UV-I 0 W/m 9,7 C 10,3 C 8,0 km/h (2 Bft) 95,83 %
26.10.2017 22:16 10,3 C 10,6 C 96 % 1022,6 hPa 0,0 l/m 3,6 km/h (1 Bft) SW 216 0 min 0,000 mm 0,0 UV-I 0 W/m 9,7 C 10,3 C 6,4 km/h (2 Bft) 96,72 %
26.10.2017 22:18 10,3 C 10,6 C 96 % 1022,5 hPa 0,0 l/m 4,7 km/h (1 Bft) S-SW 212 0 min 0,000 mm 0,0 UV-I 0 W/m 9,7 C 10,3 C 6,4 km/h (2 Bft) 96,23 %
26.10.2017 22:21 10,2 C 10,6 C 96 % 1022,5 hPa 0,0 l/m 3,9 km/h (1 Bft) S-SW 212 0 min 0,000 mm 0,0 UV-I 0 W/m 9,6 C 10,2 C 4,8 km/h (1 Bft) 97,40 %
26.10.2017 22:22 10,2 C 10,6 C 96 % 1022,5 hPa 0,0 l/m 4,5 km/h (1 Bft) S-SW 211 0 min 0,000 mm 0,0 UV-I 0 W/m 9,6 C 10,2 C 6,4 km/h (2 Bft) 100,00 %
26.10.2017 22:26 10,1 C 10,6 C 96 % 1022,6 hPa 0,0 l/m 4,0 km/h (1 Bft) S-SW 211 0 min 0,000 mm 0,0 UV-I 0 W/m 9,5 C 10,1 C 6,4 km/h (2 Bft) 96,91 %
26.10.2017 22:28 10,0 C 10,6 C 96 % 1022,5 hPa 0,0 l/m 2,7 km/h (1 Bft) S-SW 211 0 min 0,000 mm 0,0 UV-I 0 W/m 9,4 C 10,0 C 4,8 km/h (1 Bft) 97,62 %
26.10.2017 22:30 9,9 C 10,6 C 96 % 1022,3 hPa 0,0 l/m 2,3 km/h (1 Bft) S 174 0 min 0,000 mm 0,0 UV-I 0 W/m 9,3 C 9,9 C 4,8 km/h (1 Bft) 98,21 %
26.10.2017 22:32 9,9 C 10,6 C 96 % 1022,3 hPa 0,0 l/m 1,1 km/h (1 Bft) S 174 0 min 0,000 mm 0,0 UV-I 0 W/m 9,3 C 9,9 C 3,2 km/h (1 Bft) 97,44 %
26.10.2017 22:34 9,9 C 10,6 C 96 % 1022,4 hPa 0,0 l/m 2,3 km/h (1 Bft) S 175 0 min 0,000 mm 0,0 UV-I 0 W/m 9,3 C 9,9 C 3,2 km/h (1 Bft) 100,00 %
26.10.2017 22:36 9,9 C 10,6 C 96 % 1022,3 hPa 0,0 l/m 2,9 km/h (1 Bft) S 184 0 min 0,000 mm 0,0 UV-I 0 W/m 9,3 C 9,9 C 4,8 km/h (1 Bft) 97,37 %
26.10.2017 22:38 9,8 C 10,6 C 96 % 1022,3 hPa 0,0 l/m 4,2 km/h (1 Bft) S-SW 192 0 min 0,000 mm 0,0 UV-I 0 W/m 9,2 C 9,8 C 4,8 km/h (1 Bft) 100,00 %
26.10.2017 22:40 9,7 C 10,6 C 96 % 1022,3 hPa 0,0 l/m 3,9 km/h (1 Bft) S-SW 200 0 min 0,000 mm 0,0 UV-I 0 W/m 9,1 C 9,7 C 6,4 km/h (2 Bft) 100,00 %
26.10.2017 22:42 9,6 C 10,6 C 96 % 1022,3 hPa 0,0 l/m 4,0 km/h (1 Bft) S 188 0 min 0,000 mm 0,0 UV-I 0 W/m 9,0 C 9,6 C 4,8 km/h (1 Bft) 100,00 %
26.10.2017 22:44 9,6 C 10,6 C 96 % 1022,2 hPa 0,0 l/m 3,3 km/h (1 Bft) S-SW 209 0 min 0,000 mm 0,0 UV-I 0 W/m 9,0 C 9,6 C 4,8 km/h (1 Bft) 100,00 %
26.10.2017 22:46 9,6 C 10,6 C 96 % 1022,3 hPa 0,0 l/m 4,9 km/h (1 Bft) S-SW 209 0 min 0,000 mm 0,0 UV-I 0 W/m 9,0 C 9,6 C 6,4 km/h (2 Bft) 100,00 %
26.10.2017 22:48 9,6 C 10,6 C 96 % 1022,2 hPa 0,0 l/m 3,1 km/h (1 Bft) S-SW 201 0 min 0,000 mm 0,0 UV-I 0 W/m 9,0 C 9,6 C 6,4 km/h (2 Bft) 100,00 %
26.10.2017 22:50 9,6 C 10,6 C 96 % 1022,2 hPa 0,0 l/m 4,0 km/h (1 Bft) S-SW 201 0 min 0,000 mm 0,0 UV-I 0 W/m 9,0 C 9,6 C 6,4 km/h (2 Bft) 100,00 %
26.10.2017 22:52 9,6 C 10,6 C 96 % 1022,2 hPa 0,0 l/m 3,8 km/h (1 Bft) S 176 0 min 0,000 mm 0,0 UV-I 0 W/m 9,0 C 9,6 C 4,8 km/h (1 Bft) 100,00 %
26.10.2017 22:54 9,6 C 10,6 C 96 % 1022,1 hPa 0,0 l/m 2,5 km/h (1 Bft) S 178 0 min 0,000 mm 0,0 UV-I 0 W/m 9,0 C 9,6 C 4,8 km/h (1 Bft) 100,00 %
26.10.2017 22:56 9,6 C 10,6 C 96 % 1022,1 hPa 0,0 l/m 2,8 km/h (1 Bft) S 178 0 min 0,000 mm 0,0 UV-I 0 W/m 9,0 C 9,6 C 4,8 km/h (1 Bft) 100,00 %
26.10.2017 22:58 9,7 C 10,6 C 96 % 1022,0 hPa 0,0 l/m 2,3 km/h (1 Bft) S 178 0 min 0,000 mm 0,0 UV-I 0 W/m 9,1 C 9,7 C 4,8 km/h (1 Bft) 100,00 %
26.10.2017 23:00 9,7 C 10,6 C 97 % 1021,9 hPa 0,0 l/m 1,8 km/h (1 Bft) S 175 0 min 0,000 mm 0,0 UV-I 0 W/m 9,2 C 9,7 C 3,2 km/h (1 Bft) 100,00 %
26.10.2017 23:02 9,7 C 10,6 C 97 % 1021,9 hPa 0,0 l/m 2,1 km/h (1 Bft) S 173 0 min 0,000 mm 0,0 UV-I 0 W/m 9,2 C 9,7 C 4,8 km/h (1 Bft) 100,00 %
26.10.2017 23:04 9,8 C 10,6 C 97 % 1021,9 hPa 0,0 l/m 2,8 km/h (1 Bft) S 180 0 min 0,000 mm 0,0 UV-I 0 W/m 9,3 C 9,8 C 4,8 km/h (1 Bft) 97,78 %
26.10.2017 23:06 9,8 C 10,6 C 97 % 1022,0 hPa 0,0 l/m 2,7 km/h (1 Bft) S 180 0 min 0,000 mm 0,0 UV-I 0 W/m 9,3 C 9,8 C 4,8 km/h (1 Bft) 100,00 %
26.10.2017 23:08 9,9 C 10,6 C 97 % 1022,0 hPa 0,0 l/m 2,1 km/h (1 Bft) S 180 0 min 0,000 mm 0,0 UV-I 0 W/m 9,4 C 9,9 C 4,8 km/h (1 Bft) 100,00 %
26.10.2017 23:10 9,9 C 10,6 C 97 % 1021,9 hPa 0,0 l/m 1,9 km/h (1 Bft) S 180 0 min 0,000 mm 0,0 UV-I 0 W/m 9,4 C 9,9 C 4,8 km/h (1 Bft) 100,00 %
26.10.2017 23:12 9,9 C 10,6 C 97 % 1021,9 hPa 0,0 l/m 3,1 km/h (1 Bft) S 185 0 min 0,000 mm 0,0 UV-I 0 W/m 9,4 C 9,9 C 4,8 km/h (1 Bft) 100,00 %
26.10.2017 23:14 9,9 C 10,6 C 97 % 1021,9 hPa 0,0 l/m 1,9 km/h (1 Bft) S 185 0 min 0,000 mm 0,0 UV-I 0 W/m 9,4 C 9,9 C 4,8 km/h (1 Bft) 100,00 %
26.10.2017 23:16 9,8 C 10,6 C 97 % 1021,8 hPa 0,0 l/m 0,9 km/h (0 Bft) S 185 0 min 0,000 mm 0,0 UV-I 0 W/m 9,3 C 9,8 C 3,2 km/h (1 Bft) 96,00 %
26.10.2017 23:18 9,8 C 10,6 C 97 % 1021,9 hPa 0,0 l/m 1,9 km/h (1 Bft) S 185 0 min 0,000 mm 0,0 UV-I 0 W/m 9,3 C 9,8 C 3,2 km/h (1 Bft) 100,00 %
26.10.2017 23:20 9,7 C 10,6 C 97 % 1021,9 hPa 0,0 l/m 1,8 km/h (1 Bft) S 185 0 min 0,000 mm 0,0 UV-I 0 W/m 9,2 C 9,7 C 3,2 km/h (1 Bft) 96,00 %
26.10.2017 23:22 9,6 C 10,6 C 96 % 1021,9 hPa 0,0 l/m 0,9 km/h (0 Bft) S 185 0 min 0,000 mm 0,0 UV-I 0 W/m 9,0 C 9,6 C 3,2 km/h (1 Bft) 97,37 %
26.10.2017 23:24 9,5 C 10,6 C 96 % 1021,9 hPa 0,0 l/m 0,0 km/h (0 Bft) S 185 0 min 0,000 mm 0,0 UV-I 0 W/m 8,9 C 9,5 C 0,0 km/h (0 Bft) 98,00 %
26.10.2017 23:26 9,4 C 10,6 C 96 % 1021,9 hPa 0,0 l/m 0,0 km/h (0 Bft) S 185 0 min 0,000 mm 0,0 UV-I 0 W/m 8,8 C 9,4 C 0,0 km/h (0 Bft) 98,00 %
26.10.2017 23:28 9,4 C 10,6 C 97 % 1021,8 hPa 0,0 l/m 0,8 km/h (0 Bft) S 185 0 min 0,000 mm 0,0 UV-I 0 W/m 8,9 C 9,4 C 1,6 km/h (1 Bft) 97,87 %
26.10.2017 23:30 9,4 C 10,6 C 97 % 1021,7 hPa 0,0 l/m 0,2 km/h (0 Bft) S 185 0 min 0,000 mm 0,0 UV-I 0 W/m 8,9 C 9,4 C 1,6 km/h (1 Bft) 97,87 %
26.10.2017 23:32 9,4 C 10,6 C 97 % 1021,7 hPa 0,0 l/m 0,1 km/h (0 Bft) S 185 0 min 0,000 mm 0,0 UV-I 0 W/m 8,9 C 9,4 C 1,6 km/h (1 Bft) 98,11 %
26.10.2017 23:34 9,4 C 10,6 C 97 % 1021,7 hPa 0,0 l/m 0,1 km/h (0 Bft) S 185 0 min 0,000 mm 0,0 UV-I 0 W/m 8,9 C 9,4 C 1,6 km/h (1 Bft) 97,14 %
26.10.2017 23:36 9,4 C 10,6 C 97 % 1021,7 hPa 0,0 l/m 0,1 km/h (0 Bft) S 185 0 min 0,000 mm 0,0 UV-I 0 W/m 8,9 C 9,4 C 1,6 km/h (1 Bft) 98,00 %
26.10.2017 23:38 9,5 C 10,6 C 97 % 1021,7 hPa 0,0 l/m 0,3 km/h (0 Bft) S 185 0 min 0,000 mm 0,0 UV-I 0 W/m 9,0 C 9,5 C 1,6 km/h (1 Bft) 98,00 %
26.10.2017 23:40 9,6 C 10,6 C 97 % 1021,7 hPa 0,0 l/m 0,7 km/h (0 Bft) S 185 0 min 0,000 mm 0,0 UV-I 0 W/m 9,1 C 9,6 C 1,6 km/h (1 Bft) 97,87 %
26.10.2017 23:42 9,6 C 10,6 C 97 % 1021,7 hPa 0,0 l/m 1,6 km/h (1 Bft) S 185 0 min 0,000 mm 0,0 UV-I 0 W/m 9,1 C 9,6 C 3,2 km/h (1 Bft) 95,74 %
26.10.2017 23:44 9,6 C 10,6 C 97 % 1021,8 hPa 0,0 l/m 1,6 km/h (1 Bft) S 185 0 min 0,000 mm 0,0 UV-I 0 W/m 9,1 C 9,6 C 3,2 km/h (1 Bft) 98,11 %
26.10.2017 23:46 9,6 C 10,6 C 97 % 1021,7 hPa 0,0 l/m 1,8 km/h (1 Bft) S 185 0 min 0,000 mm 0,0 UV-I 0 W/m 9,1 C 9,6 C 3,2 km/h (1 Bft) 97,44 %
26.10.2017 23:48 9,6 C 10,6 C 97 % 1021,7 hPa 0,0 l/m 1,7 km/h (1 Bft) S 185 0 min 0,000 mm 0,0 UV-I 0 W/m 9,1 C 9,6 C 3,2 km/h (1 Bft) 100,00 %
26.10.2017 23:50 9,5 C 10,6 C 97 % 1021,8 hPa 0,0 l/m 2,7 km/h (1 Bft) S 185 0 min 0,000 mm 0,0 UV-I 0 W/m 9,0 C 9,5 C 3,2 km/h (1 Bft) 96,92 %
26.10.2017 23:52 9,4 C 10,6 C 97 % 1021,9 hPa 0,0 l/m 2,4 km/h (1 Bft) S 185 0 min 0,000 mm 0,0 UV-I 0 W/m 8,9 C 9,4 C 3,2 km/h (1 Bft) 95,74 %
26.10.2017 23:54 9,4 C 10,6 C 97 % 1021,9 hPa 0,0 l/m 1,8 km/h (1 Bft) S 185 0 min 0,000 mm 0,0 UV-I 0 W/m 8,9 C 9,4 C 3,2 km/h (1 Bft) 98,00 %
26.10.2017 23:56 9,4 C 10,6 C 97 % 1021,9 hPa 0,0 l/m 2,4 km/h (1 Bft) S 185 0 min 0,000 mm 0,0 UV-I 0 W/m 8,9 C 9,4 C 4,8 km/h (1 Bft) 97,87 %
26.10.2017 23:58 9,4 C 10,6 C 97 % 1021,8 hPa 0,0 l/m 1,2 km/h (1 Bft) S 185 0 min 0,000 mm 0,0 UV-I 0 W/m 8,9 C 9,4 C 3,2 km/h (1 Bft) 98,00 %
_ Min-Zeit 05:28 08:20 13:00 23:30 - 00:32 - - - - - - 05:28 05:28 00:32 05:44
Minimum _ 7,2 C 10,0 C 79 % 1021,7 hPa - 0,0 km/h (0 Bft) - - - - - - 6,6 C 7,2 C 0,0 km/h (0 Bft) 91,49 %
_ Max-Zeit 13:10 00:00 00:00 06:06 00:00 12:24 - - 12:08 13:00 12:20 12:46 15:20 13:10 14:10 00:00
Maximum _ 16,5 C 10,6 C 97 % 1026,3 hPa 0,0 l/m 6,8 km/h
W-SW (2 Bft)
- - 6 min 0,280 mm 1,9 UV-I 580 W/m 13,3 C 16,5 C 16,1 km/h
NW (3 Bft)
100,00 %
Durchschnitt _ 11,1 C 10,6 C 92 % 1024,3 hPa #0,0 l/m 2,0 km/h (1 Bft) S-SW - #6:02 h #1,219 mm 1,2 UV-I 207 W/m 9,8 C 11,1 C 4,1 km/h (1 Bft) 98,21 %